| time (UTC) | temp F | wind direction | speed MPH | gust MPH | rain 1hr in | rain 24hr in | rain mn in | humidity % | barometer mb |
| 20260906212528 | 86 | 360 | 11.0 | 23.0 | 0.00 | 0.00 | 0.00 | 67 | 1013.5 |
| 20260906212448 | 86 | 360 | 12.0 | 23.0 | 0.00 | 0.00 | 0.00 | 67 | 1013.5 |
| 20260906212327 | 86 | 360 | 11.0 | 23.0 | 0.00 | 0.00 | 0.00 | 67 | 1013.4 |
| 20260906212226 | 87 | 360 | 12.0 | 23.0 | 0.00 | 0.00 | 0.00 | 66 | 1013.5 |
| 20260906212127 | 87 | 360 | 11.0 | 22.0 | 0.00 | 0.00 | 0.00 | 65 | 1013.5 |
| 20260906212047 | 88 | 360 | 12.0 | 22.0 | 0.00 | 0.00 | 0.00 | 64 | 1013.5 |
| 20260906211925 | 88 | 360 | 12.0 | 19.0 | 0.00 | 0.00 | 0.00 | 63 | 1013.5 |
| 20260906211846 | 89 | 360 | 12.0 | 18.0 | 0.00 | 0.00 | 0.00 | 62 | 1013.6 |
| 20260906211750 | 89 | 360 | 11.0 | 18.0 | 0.00 | 0.00 | 0.00 | 60 | 1013.7 |
| 20260906211630 | 90 | 360 | 11.0 | 18.0 | 0.00 | 0.00 | 0.00 | 57 | 1013.6 |
| 20260906211529 | 91 | 360 | 11.0 | 17.0 | 0.00 | 0.00 | 0.00 | 57 | 1013.7 |
| 20260906211429 | 92 | 360 | 10.0 | 17.0 | 0.00 | 0.00 | 0.00 | 57 | 1013.6 |
| 20260906211329 | 92 | 360 | 7.0 | 14.0 | 0.00 | 0.00 | 0.00 | 56 | 1013.5 |
| 20260906211250 | 92 | 360 | 4.0 | 12.0 | 0.00 | 0.00 | 0.00 | 55 | 1013.6 |
| 20260906211129 | 92 | 360 | 3.0 | 6.0 | 0.00 | 0.00 | 0.00 | 55 | 1013.4 |
| 20260906211031 | 92 | 360 | 3.0 | 6.0 | 0.00 | 0.00 | 0.00 | 54 | 1013.4 |
| 20260906210951 | 93 | 360 | 3.0 | 6.0 | 0.00 | 0.00 | 0.00 | 54 | 1013.3 |
| 20260906210835 | 93 | 360 | 3.0 | 6.0 | 0.00 | 0.00 | 0.00 | 54 | 1013.4 |
| 20260906210716 | 93 | 360 | 4.0 | 6.0 | 0.00 | 0.00 | 0.00 | 54 | 1013.3 |
| 20260906210617 | 93 | 360 | 4.0 | 6.0 | 0.00 | 0.00 | 0.00 | 54 | 1013.3 |
| 20260906210517 | 93 | 360 | 4.0 | 6.0 | 0.00 | 0.00 | 0.00 | 54 | 1013.3 |
| 20260906210438 | 93 | 360 | 4.0 | 6.0 | 0.00 | 0.00 | 0.00 | 53 | 1013.3 |
| 20260906210318 | 93 | 28 | 4.0 | 6.0 | 0.00 | 0.00 | 0.00 | 54 | 1013.4 |
| 20260906210238 | 94 | 360 | 3.0 | 8.0 | 0.00 | 0.00 | 0.00 | 54 | 1013.4 |
| 20260906210122 | 94 | 360 | 3.0 | 8.0 | 0.00 | 0.00 | 0.00 | 54 | 1013.4 |
| 20260906210023 | 94 | 46 | 2.0 | 8.0 | 0.00 | 0.00 | 0.00 | 53 | 1013.4 |
| 20260906205923 | 94 | 56 | 3.0 | 8.0 | 0.00 | 0.00 | 0.00 | 52 | 1013.5 |
| 20260906205825 | 94 | 360 | 3.0 | 8.0 | 0.00 | 0.00 | 0.00 | 52 | 1013.5 |
| 20260906205725 | 94 | 360 | 3.0 | 8.0 | 0.00 | 0.00 | 0.00 | 52 | 1013.4 |
| 20260906205625 | 95 | 360 | 4.0 | 8.0 | 0.00 | 0.00 | 0.00 | 52 | 1013.5 |
| 20260906205546 | 95 | 360 | 3.0 | 8.0 | 0.00 | 0.00 | 0.00 | 52 | 1013.4 |
| 20260906205428 | 96 | 360 | 3.0 | 8.0 | 0.00 | 0.00 | 0.00 | 52 | 1013.4 |
| 20260906205329 | 96 | 360 | 2.0 | 6.0 | 0.00 | 0.00 | 0.00 | 52 | 1013.5 |
| 20260906205231 | 96 | 136 | 1.0 | 3.0 | 0.00 | 0.00 | 0.00 | 51 | 1013.5 |
| 20260906205132 | 96 | 72 | 1.0 | 3.0 | 0.00 | 0.00 | 0.00 | 52 | 1013.5 |
| 20260906205033 | 96 | 360 | 1.0 | 2.0 | 0.00 | 0.00 | 0.00 | 51 | 1013.5 |
| 20260906204933 | 96 | 360 | 1.0 | 3.0 | 0.00 | 0.00 | 0.00 | 52 | 1013.7 |
| 20260906204818 | 96 | 360 | 1.0 | 4.0 | 0.00 | 0.00 | 0.00 | 53 | 1013.6 |
| 20260906204718 | 95 | 286 | 1.0 | 4.0 | 0.00 | 0.00 | 0.00 | 53 | 1013.7 |
| 20260906204618 | 94 | 360 | 1.0 | 4.0 | 0.00 | 0.00 | 0.00 | 54 | 1013.6 |
| 20260906204539 | 94 | 360 | 1.0 | 4.0 | 0.00 | 0.00 | 0.00 | 54 | 1013.7 |
| 20260906204439 | 94 | 360 | 1.0 | 4.0 | 0.00 | 0.00 | 0.00 | 56 | 1013.7 |
| 20260906204319 | 93 | 360 | 2.0 | 4.0 | 0.00 | 0.00 | 0.00 | 56 | 1013.7 |
| 20260906204219 | 93 | 305 | 1.0 | 4.0 | 0.00 | 0.00 | 0.00 | 57 | 1013.7 |
| 20260906204124 | 92 | 360 | 1.0 | 4.0 | 0.00 | 0.00 | 0.00 | 57 | 1013.8 |
| 20260906204024 | 92 | 306 | 0.0 | 4.0 | 0.00 | 0.00 | 0.00 | 57 | 1013.8 |
| 20260906203924 | 92 | 360 | 1.0 | 3.0 | 0.00 | 0.00 | 0.00 | 58 | 1013.8 |
| 20260906203845 | 92 | 360 | 1.0 | 3.0 | 0.00 | 0.00 | 0.00 | 59 | 1013.8 |
| 20260906203725 | 91 | 360 | 2.0 | 3.0 | 0.00 | 0.00 | 0.00 | 59 | 1013.7 |
| 20260906203624 | 91 | 360 | 2.0 | 3.0 | 0.00 | 0.00 | 0.00 | 59 | 1013.8 |
| 20260906203545 | 91 | 96 | 2.0 | 3.0 | 0.00 | 0.00 | 0.00 | 59 | 1013.8 |
| 20260906203425 | 91 | 360 | 2.0 | 3.0 | 0.00 | 0.00 | 0.00 | 59 | 1013.8 |
| 20260906203325 | 91 | 360 | 2.0 | 3.0 | 0.00 | 0.00 | 0.00 | 59 | 1013.8 |
| 20260906203227 | 91 | 360 | 2.0 | 3.0 | 0.00 | 0.00 | 0.00 | 59 | 1013.7 |
| 20260906203128 | 91 | 360 | 2.0 | 3.0 | 0.00 | 0.00 | 0.00 | 59 | 1013.7 |
| 20260906203029 | 91 | 360 | 2.0 | 3.0 | 0.00 | 0.00 | 0.00 | 59 | 1013.8 |
| 20260906202930 | 91 | 360 | 2.0 | 3.0 | 0.00 | 0.00 | 0.00 | 60 | 1013.8 |
| 20260906202832 | 91 | 360 | 1.0 | 3.0 | 0.00 | 0.00 | 0.00 | 60 | 1013.8 |
| 20260906202730 | 91 | 360 | 2.0 | 3.0 | 0.00 | 0.00 | 0.00 | 60 | 1013.8 |
| 20260906202630 | 90 | 360 | 2.0 | 3.0 | 0.00 | 0.00 | 0.00 | 60 | 1013.9 |
| 20260906202536 | 90 | 360 | 2.0 | 3.0 | 0.00 | 0.00 | 0.00 | 60 | 1013.9 |
| 20260906202436 | 90 | 360 | 2.0 | 3.0 | 0.00 | 0.00 | 0.00 | 60 | 1013.9 |
| 20260906202317 | 90 | 360 | 2.0 | 3.0 | 0.00 | 0.00 | 0.00 | 60 | 1013.9 |
| 20260906202218 | 90 | 360 | 1.0 | 3.0 | 0.00 | 0.00 | 0.00 | 60 | 1013.9 |
| 20260906202118 | 90 | 360 | 2.0 | 3.0 | 0.00 | 0.00 | 0.00 | 60 | 1013.8 |
| 20260906202018 | 90 | 360 | 2.0 | 3.0 | 0.00 | 0.00 | 0.00 | 59 | 1013.8 |
| 20260906201923 | 90 | 360 | 2.0 | 4.0 | 0.00 | 0.00 | 0.00 | 60 | 1013.8 |
| 20260906201824 | 90 | 360 | 2.0 | 4.0 | 0.00 | 0.00 | 0.00 | 61 | 1013.8 |
| 20260906201745 | 90 | 96 | 2.0 | 4.0 | 0.00 | 0.00 | 0.00 | 61 | 1013.8 |
| 20260906201624 | 90 | 360 | 1.0 | 4.0 | 0.00 | 0.00 | 0.00 | 61 | 1013.9 |
| 20260906201524 | 90 | 94 | 2.0 | 4.0 | 0.00 | 0.00 | 0.00 | 63 | 1013.9 |
| 20260906201425 | 90 | 96 | 2.0 | 4.0 | 0.00 | 0.00 | 0.00 | 63 | 1013.9 |
| 20260906201326 | 90 | 360 | 3.0 | 4.0 | 0.00 | 0.00 | 0.00 | 63 | 1014.0 |
| 20260906201231 | 90 | 360 | 3.0 | 4.0 | 0.00 | 0.00 | 0.00 | 63 | 1013.9 |
| 20260906201131 | 90 | 360 | 2.0 | 4.0 | 0.00 | 0.00 | 0.00 | 64 | 1013.9 |
| 20260906201031 | 90 | 360 | 2.0 | 4.0 | 0.00 | 0.00 | 0.00 | 66 | 1014.0 |
| 20260906200931 | 89 | 78 | 1.0 | 4.0 | 0.00 | 0.00 | 0.00 | 66 | 1014.0 |
| 20260906200831 | 89 | 75 | 1.0 | 4.0 | 0.00 | 0.00 | 0.00 | 67 | 1014.0 |
| 20260906200732 | 89 | 360 | 1.0 | 4.0 | 0.00 | 0.00 | 0.00 | 67 | 1014.0 |
| 20260906200632 | 88 | 76 | 1.0 | 4.0 | 0.00 | 0.00 | 0.00 | 65 | 1014.0 |
| 20260906200536 | 88 | 360 | 2.0 | 4.0 | 0.00 | 0.00 | 0.00 | 66 | 1014.1 |
| 20260906200416 | 88 | 360 | 2.0 | 7.0 | 0.00 | 0.00 | 0.00 | 66 | 1014.1 |
| 20260906200317 | 88 | 360 | 2.0 | 9.0 | 0.00 | 0.00 | 0.00 | 65 | 1014.0 |
| 20260906200237 | 88 | 360 | 2.0 | 10.0 | 0.00 | 0.00 | 0.00 | 66 | 1014.1 |
| 20260906200137 | 88 | 360 | 2.0 | 10.0 | 0.00 | 0.00 | 0.00 | 66 | 1014.1 |
| 20260906200058 | 88 | 360 | 2.0 | 10.0 | 0.00 | 0.00 | 0.00 | 68 | 1014.1 |
| 20260906195957 | 88 | 360 | 3.0 | 10.0 | 0.00 | 0.00 | 0.00 | 67 | 1014.2 |
| 20260906195817 | 88 | 360 | 4.0 | 10.0 | 0.00 | 0.00 | 0.00 | 66 | 1014.2 |
| 20260906195720 | 88 | 360 | 5.0 | 10.0 | 0.00 | 0.00 | 0.00 | 65 | 1014.2 |
| 20260906195621 | 89 | 360 | 6.0 | 12.0 | 0.00 | 0.00 | 0.00 | 64 | 1014.2 |
| 20260906195522 | 89 | 360 | 6.0 | 12.0 | 0.00 | 0.00 | 0.00 | 64 | 1014.2 |
| 20260906195421 | 90 | 360 | 4.0 | 12.0 | 0.00 | 0.00 | 0.00 | 64 | 1014.2 |
| 20260906195322 | 90 | 360 | 3.0 | 12.0 | 0.00 | 0.00 | 0.00 | 63 | 1014.2 |
| 20260906195223 | 91 | 360 | 4.0 | 12.0 | 0.00 | 0.00 | 0.00 | 62 | 1014.2 |
| 20260906195143 | 91 | 360 | 5.0 | 12.0 | 0.00 | 0.00 | 0.00 | 60 | 1014.3 |
| 20260906195047 | 92 | 360 | 7.0 | 12.0 | 0.00 | 0.00 | 0.00 | 55 | 1014.3 |
| 20260906194927 | 93 | 360 | 6.0 | 12.0 | 0.00 | 0.00 | 0.00 | 55 | 1014.4 |
| 20260906194847 | 94 | 139 | 5.0 | 12.0 | 0.00 | 0.00 | 0.00 | 54 | 1014.4 |
| 20260906194726 | 95 | 360 | 3.0 | 12.0 | 0.00 | 0.00 | 0.00 | 51 | 1014.5 |
| 20260906194627 | 96 | 360 | 2.0 | 4.0 | 0.00 | 0.00 | 0.00 | 51 | 1014.5 |
| 20260906194528 | 96 | 360 | 2.0 | 4.0 | 0.00 | 0.00 | 0.00 | 51 | 1014.4 |
| 20260906194428 | 96 | 302 | 2.0 | 5.0 | 0.00 | 0.00 | 0.00 | 51 | 1014.5 |
| 20260906194332 | 96 | 360 | 3.0 | 8.0 | 0.00 | 0.00 | 0.00 | 52 | 1014.5 |
| 20260906194233 | 96 | 360 | 2.0 | 10.0 | 0.00 | 0.00 | 0.00 | 52 | 1014.4 |
| 20260906194134 | 96 | 360 | 2.0 | 10.0 | 0.00 | 0.00 | 0.00 | 52 | 1014.3 |
| 20260906194035 | 96 | 360 | 1.0 | 10.0 | 0.00 | 0.00 | 0.00 | 52 | 1014.4 |
| 20260906193935 | 95 | 360 | 1.0 | 11.0 | 0.00 | 0.00 | 0.00 | 53 | 1014.4 |
| 20260906193835 | 95 | 360 | 2.0 | 11.0 | 0.00 | 0.00 | 0.00 | 53 | 1014.4 |
| 20260906193720 | 95 | 360 | 5.0 | 11.0 | 0.00 | 0.00 | 0.00 | 53 | 1014.4 |
| 20260906193640 | 96 | 355 | 6.0 | 11.0 | 0.00 | 0.00 | 0.00 | 52 | 1014.4 |
| 20260906193540 | 96 | 360 | 6.0 | 11.0 | 0.00 | 0.00 | 0.00 | 51 | 1014.3 |
| 20260906193419 | 97 | 360 | 6.0 | 11.0 | 0.00 | 0.00 | 0.00 | 51 | 1014.3 |
| 20260906193320 | 97 | 360 | 6.0 | 11.0 | 0.00 | 0.00 | 0.00 | 51 | 1014.3 |
| 20260906193220 | 97 | 360 | 6.0 | 11.0 | 0.00 | 0.00 | 0.00 | 51 | 1014.3 |
| 20260906193121 | 97 | 298 | 4.0 | 11.0 | 0.00 | 0.00 | 0.00 | 51 | 1014.3 |
| 20260906193022 | 97 | 360 | 3.0 | 10.0 | 0.00 | 0.00 | 0.00 | 50 | 1014.4 |
| 20260906192926 | 97 | 360 | 2.0 | 9.0 | 0.00 | 0.00 | 0.00 | 50 | 1014.3 |
| 20260906192828 | 98 | 76 | 3.0 | 9.0 | 0.00 | 0.00 | 0.00 | 50 | 1014.3 |
| 20260906192748 | 98 | 360 | 4.0 | 9.0 | 0.00 | 0.00 | 0.00 | 51 | 1014.3 |
| 20260906192626 | 98 | 360 | 4.0 | 9.0 | 0.00 | 0.00 | 0.00 | 49 | 1014.3 |
| 20260906192527 | 99 | 360 | 5.0 | 9.0 | 0.00 | 0.00 | 0.00 | 50 | 1014.4 |
| 20260906192428 | 99 | 360 | 3.0 | 10.0 | 0.00 | 0.00 | 0.00 | 49 | 1014.3 |
| 20260906192348 | 100 | 360 | 2.0 | 10.0 | 0.00 | 0.00 | 0.00 | 48 | 1014.3 |
| 20260906192231 | 100 | 360 | 1.0 | 10.0 | 0.00 | 0.00 | 0.00 | 49 | 1014.4 |
| 20260906192152 | 100 | 360 | 2.0 | 10.0 | 0.00 | 0.00 | 0.00 | 49 | 1014.4 |
| 20260906192031 | 99 | 360 | 2.0 | 10.0 | 0.00 | 0.00 | 0.00 | 50 | 1014.4 |
| 20260906191930 | 99 | 360 | 2.0 | 10.0 | 0.00 | 0.00 | 0.00 | 50 | 1014.4 |
| 20260906191830 | 98 | 360 | 2.0 | 10.0 | 0.00 | 0.00 | 0.00 | 51 | 1014.4 |
| 20260906191730 | 98 | 360 | 3.0 | 10.0 | 0.00 | 0.00 | 0.00 | 52 | 1014.4 |
| 20260906191631 | 97 | 360 | 2.0 | 10.0 | 0.00 | 0.00 | 0.00 | 53 | 1014.4 |
| 20260906191552 | 97 | 360 | 1.0 | 6.0 | 0.00 | 0.00 | 0.00 | 52 | 1014.4 |
| 20260906191435 | 97 | 360 | 1.0 | 6.0 | 0.00 | 0.00 | 0.00 | 52 | 1014.4 |
| 20260906191316 | 97 | 360 | 1.0 | 6.0 | 0.00 | 0.00 | 0.00 | 51 | 1014.5 |
| 20260906191217 | 97 | 360 | 2.0 | 6.0 | 0.00 | 0.00 | 0.00 | 51 | 1014.5 |
| 20260906191117 | 97 | 360 | 2.0 | 6.0 | 0.00 | 0.00 | 0.00 | 50 | 1014.5 |
| 20260906191018 | 98 | 360 | 3.0 | 6.0 | 0.00 | 0.00 | 0.00 | 50 | 1014.5 |
| 20260906190919 | 98 | 360 | 3.0 | 6.0 | 0.00 | 0.00 | 0.00 | 50 | 1014.5 |
| 20260906190823 | 98 | 360 | 3.0 | 6.0 | 0.00 | 0.00 | 0.00 | 51 | 1014.6 |
| 20260906190724 | 98 | 360 | 2.0 | 6.0 | 0.00 | 0.00 | 0.00 | 52 | 1014.6 |
| 20260906190624 | 97 | 360 | 2.0 | 9.0 | 0.00 | 0.00 | 0.00 | 53 | 1014.6 |
| 20260906190544 | 97 | 360 | 2.0 | 9.0 | 0.00 | 0.00 | 0.00 | 53 | 1014.7 |
| 20260906190425 | 97 | 360 | 2.0 | 9.0 | 0.00 | 0.00 | 0.00 | 52 | 1014.7 |
| 20260906190345 | 96 | 360 | 1.0 | 9.0 | 0.00 | 0.00 | 0.00 | 52 | 1014.6 |
| 20260906190224 | 96 | 360 | 1.0 | 9.0 | 0.00 | 0.00 | 0.00 | 52 | 1014.6 |
| 20260906190125 | 96 | 360 | 2.0 | 9.0 | 0.00 | 0.00 | 0.00 | 54 | 1014.7 |
| 20260906190029 | 96 | 360 | 4.0 | 9.0 | 0.00 | 0.00 | 0.00 | 54 | 1014.7 |
| 20260906185950 | 96 | 360 | 3.0 | 10.0 | 0.00 | 0.00 | 0.00 | 56 | 1014.7 |
| 20260906185830 | 96 | 360 | 2.0 | 10.0 | 0.00 | 0.00 | 0.00 | 55 | 1014.7 |
| 20260906185729 | 95 | 360 | 2.0 | 10.0 | 0.00 | 0.00 | 0.00 | 55 | 1014.7 |
| 20260906185630 | 95 | 360 | 3.0 | 10.0 | 0.00 | 0.00 | 0.00 | 54 | 1014.8 |
| 20260906185530 | 95 | 360 | 5.0 | 10.0 | 0.00 | 0.00 | 0.00 | 55 | 1014.7 |
| 20260906185430 | 95 | 360 | 5.0 | 10.0 | 0.00 | 0.00 | 0.00 | 55 | 1014.7 |
| 20260906185315 | 95 | 360 | 4.0 | 10.0 | 0.00 | 0.00 | 0.00 | 55 | 1014.7 |
| 20260906185235 | 95 | 360 | 4.0 | 10.0 | 0.00 | 0.00 | 0.00 | 55 | 1014.7 |
| 20260906185156 | 95 | 360 | 4.0 | 10.0 | 0.00 | 0.00 | 0.00 | 54 | 1014.8 |
| 20260906185037 | 95 | 360 | 4.0 | 10.0 | 0.00 | 0.00 | 0.00 | 55 | 1014.7 |
| 20260906184916 | 95 | 360 | 4.0 | 10.0 | 0.00 | 0.00 | 0.00 | 54 | 1014.7 |
| 20260906184816 | 96 | 360 | 4.0 | 10.0 | 0.00 | 0.00 | 0.00 | 54 | 1014.7 |
| 20260906184717 | 96 | 360 | 4.0 | 9.0 | 0.00 | 0.00 | 0.00 | 54 | 1014.8 |
| 20260906184619 | 96 | 360 | 3.0 | 9.0 | 0.00 | 0.00 | 0.00 | 55 | 1014.8 |
| 20260906184520 | 95 | 360 | 3.0 | 9.0 | 0.00 | 0.00 | 0.00 | 55 | 1014.8 |
| 20260906184420 | 95 | 360 | 2.0 | 9.0 | 0.00 | 0.00 | 0.00 | 55 | 1014.9 |
| 20260906184320 | 95 | 360 | 2.0 | 9.0 | 0.00 | 0.00 | 0.00 | 56 | 1014.9 |
| 20260906184241 | 94 | 360 | 3.0 | 9.0 | 0.00 | 0.00 | 0.00 | 56 | 1014.9 |
| 20260906184121 | 94 | 360 | 3.0 | 9.0 | 0.00 | 0.00 | 0.00 | 56 | 1014.8 |
| 20260906184041 | 93 | 360 | 3.0 | 12.0 | 0.00 | 0.00 | 0.00 | 57 | 1014.8 |
| 20260906183920 | 93 | 360 | 3.0 | 12.0 | 0.00 | 0.00 | 0.00 | 58 | 1014.9 |
| 20260906183825 | 93 | 360 | 3.0 | 12.0 | 0.00 | 0.00 | 0.00 | 57 | 1014.8 |
| 20260906183726 | 93 | 360 | 4.0 | 12.0 | 0.00 | 0.00 | 0.00 | 56 | 1014.9 |
| 20260906183626 | 93 | 360 | 4.0 | 12.0 | 0.00 | 0.00 | 0.00 | 56 | 1014.8 |
| 20260906183528 | 93 | 360 | 3.0 | 12.0 | 0.00 | 0.00 | 0.00 | 57 | 1014.9 |
| 20260906183429 | 93 | 360 | 5.0 | 12.0 | 0.00 | 0.00 | 0.00 | 58 | 1014.8 |
| 20260906183328 | 93 | 360 | 6.0 | 12.0 | 0.00 | 0.00 | 0.00 | 58 | 1014.9 |
| 20260906183233 | 93 | 360 | 6.0 | 12.0 | 0.00 | 0.00 | 0.00 | 57 | 1014.9 |
| 20260906183133 | 94 | 360 | 4.0 | 12.0 | 0.00 | 0.00 | 0.00 | 56 | 1014.9 |
| 20260906183034 | 94 | 360 | 3.0 | 9.0 | 0.00 | 0.00 | 0.00 | 55 | 1015.0 |
| 20260906182935 | 94 | 360 | 3.0 | 9.0 | 0.00 | 0.00 | 0.00 | 56 | 1014.9 |
| 20260906182816 | 94 | 360 | 4.0 | 9.0 | 0.00 | 0.00 | 0.00 | 55 | 1015.0 |
| 20260906182717 | 95 | 360 | 4.0 | 9.0 | 0.00 | 0.00 | 0.00 | 54 | 1015.0 |
| 20260906182620 | 95 | 360 | 3.0 | 6.0 | 0.00 | 0.00 | 0.00 | 54 | 1015.0 |
| 20260906182521 | 95 | 360 | 2.0 | 5.0 | 0.00 | 0.00 | 0.00 | 54 | 1015.0 |
| 20260906182421 | 95 | 360 | 2.0 | 5.0 | 0.00 | 0.00 | 0.00 | 55 | 1015.0 |
| 20260906182321 | 94 | 360 | 1.0 | 5.0 | 0.00 | 0.00 | 0.00 | 57 | 1015.0 |
| 20260906182222 | 93 | 360 | 2.0 | 5.0 | 0.00 | 0.00 | 0.00 | 57 | 1014.9 |
| 20260906182143 | 93 | 360 | 2.0 | 5.0 | 0.00 | 0.00 | 0.00 | 58 | 1015.0 |
| 20260906182022 | 92 | 301 | 3.0 | 5.0 | 0.00 | 0.00 | 0.00 | 58 | 1015.0 |
| 20260906181927 | 92 | 360 | 3.0 | 8.0 | 0.00 | 0.00 | 0.00 | 57 | 1015.0 |
| 20260906181828 | 92 | 360 | 3.0 | 8.0 | 0.00 | 0.00 | 0.00 | 58 | 1015.0 |
| 20260906181747 | 92 | 360 | 3.0 | 8.0 | 0.00 | 0.00 | 0.00 | 58 | 1015.0 |
| 20260906181627 | 92 | 360 | 3.0 | 8.0 | 0.00 | 0.00 | 0.00 | 58 | 1015.1 |
| 20260906181529 | 91 | 360 | 3.0 | 9.0 | 0.00 | 0.00 | 0.00 | 59 | 1015.0 |
| 20260906181449 | 91 | 14 | 3.0 | 9.0 | 0.00 | 0.00 | 0.00 | 59 | 1015.0 |
| 20260906181328 | 91 | 360 | 4.0 | 9.0 | 0.00 | 0.00 | 0.00 | 58 | 1015.0 |
| 20260906181229 | 91 | 360 | 4.0 | 9.0 | 0.00 | 0.00 | 0.00 | 58 | 1015.0 |
| 20260906181134 | 91 | 360 | 4.0 | 9.0 | 0.00 | 0.00 | 0.00 | 59 | 1015.1 |
| 20260906181035 | 91 | 360 | 4.0 | 9.0 | 0.00 | 0.00 | 0.00 | 59 | 1015.1 |
| 20260906180936 | 91 | 360 | 5.0 | 9.0 | 0.00 | 0.00 | 0.00 | 59 | 1015.1 |
| 20260906180837 | 92 | 360 | 5.0 | 9.0 | 0.00 | 0.00 | 0.00 | 57 | 1015.3 |
| 20260906180735 | 92 | 360 | 5.0 | 9.0 | 0.00 | 0.00 | 0.00 | 57 | 1015.2 |
| 20260906180616 | 93 | 360 | 5.0 | 9.0 | 0.00 | 0.00 | 0.00 | 57 | 1015.2 |
| 20260906180520 | 93 | 23 | 4.0 | 8.0 | 0.00 | 0.00 | 0.00 | 57 | 1015.3 |
| 20260906180421 | 93 | 360 | 3.0 | 8.0 | 0.00 | 0.00 | 0.00 | 57 | 1015.2 |
| 20260906180321 | 93 | 360 | 2.0 | 8.0 | 0.00 | 0.00 | 0.00 | 59 | 1015.2 |
| 20260906180221 | 92 | 360 | 2.0 | 8.0 | 0.00 | 0.00 | 0.00 | 59 | 1015.2 |
| 20260906180122 | 92 | 360 | 3.0 | 8.0 | 0.00 | 0.00 | 0.00 | 60 | 1015.3 |
| 20260906180043 | 91 | 360 | 4.0 | 8.0 | 0.00 | 0.00 | 0.00 | 59 | 1015.3 |
| 20260906175923 | 91 | 360 | 4.0 | 8.0 | 0.00 | 0.00 | 0.00 | 59 | 1015.3 |
| 20260906175829 | 92 | 360 | 3.0 | 6.0 | 0.00 | 0.00 | 0.00 | 59 | 1015.4 |
| 20260906175728 | 92 | 360 | 4.0 | 5.0 | 0.00 | 0.00 | 0.00 | 60 | 1015.3 |
| 20260906175629 | 91 | 360 | 4.0 | 5.0 | 0.00 | 0.00 | 0.00 | 60 | 1015.4 |
| 20260906175530 | 91 | 360 | 4.0 | 5.0 | 0.00 | 0.00 | 0.00 | 60 | 1015.5 |
| 20260906175430 | 91 | 351 | 4.0 | 8.0 | 0.00 | 0.00 | 0.00 | 59 | 1015.4 |
| 20260906175331 | 91 | 360 | 4.0 | 8.0 | 0.00 | 0.00 | 0.00 | 60 | 1015.5 |
| 20260906175230 | 91 | 360 | 3.0 | 8.0 | 0.00 | 0.00 | 0.00 | 61 | 1015.5 |
| 20260906175135 | 90 | 360 | 3.0 | 8.0 | 0.00 | 0.00 | 0.00 | 61 | 1015.6 |
| 20260906175035 | 90 | 360 | 3.0 | 8.0 | 0.00 | 0.00 | 0.00 | 61 | 1015.5 |
| 20260906174916 | 90 | 51 | 2.0 | 8.0 | 0.00 | 0.00 | 0.00 | 61 | 1015.6 |
| 20260906174835 | 90 | 52 | 2.0 | 8.0 | 0.00 | 0.00 | 0.00 | 63 | 1015.5 |
| 20260906174756 | 90 | 30 | 4.0 | 8.0 | 0.00 | 0.00 | 0.00 | 62 | 1015.6 |
| 20260906174655 | 90 | 360 | 4.0 | 8.0 | 0.00 | 0.00 | 0.00 | 62 | 1015.6 |
| 20260906174535 | 90 | 360 | 4.0 | 8.0 | 0.00 | 0.00 | 0.00 | 62 | 1015.5 |
| 20260906174419 | 90 | 360 | 3.0 | 8.0 | 0.00 | 0.00 | 0.00 | 63 | 1015.6 |
| 20260906174320 | 89 | 44 | 3.0 | 8.0 | 0.00 | 0.00 | 0.00 | 64 | 1015.6 |
| 20260906174220 | 89 | 360 | 3.0 | 8.0 | 0.00 | 0.00 | 0.00 | 64 | 1015.6 |
| 20260906174121 | 89 | 360 | 2.0 | 8.0 | 0.00 | 0.00 | 0.00 | 65 | 1015.6 |
| 20260906174021 | 89 | 360 | 2.0 | 8.0 | 0.00 | 0.00 | 0.00 | 65 | 1015.7 |
| 20260906173921 | 89 | 360 | 3.0 | 8.0 | 0.00 | 0.00 | 0.00 | 65 | 1015.6 |
| 20260906173821 | 89 | 360 | 4.0 | 8.0 | 0.00 | 0.00 | 0.00 | 65 | 1015.7 |
| 20260906173725 | 88 | 360 | 4.0 | 8.0 | 0.00 | 0.00 | 0.00 | 65 | 1015.6 |
| 20260906173626 | 88 | 360 | 4.0 | 8.0 | 0.00 | 0.00 | 0.00 | 65 | 1015.7 |
| 20260906173526 | 88 | 360 | 4.0 | 8.0 | 0.00 | 0.00 | 0.00 | 65 | 1015.7 |
| 20260906173447 | 88 | 360 | 4.0 | 8.0 | 0.00 | 0.00 | 0.00 | 66 | 1015.6 |
| 20260906173347 | 88 | 360 | 3.0 | 6.0 | 0.00 | 0.00 | 0.00 | 66 | 1015.7 |
| 20260906173225 | 88 | 360 | 3.0 | 6.0 | 0.00 | 0.00 | 0.00 | 67 | 1015.8 |
| 20260906173126 | 88 | 360 | 3.0 | 6.0 | 0.00 | 0.00 | 0.00 | 67 | 1015.7 |
| 20260906173031 | 88 | 47 | 3.0 | 6.0 | 0.00 | 0.00 | 0.00 | 68 | 1015.8 |
| 20260906172932 | 87 | 360 | 3.0 | 6.0 | 0.00 | 0.00 | 0.00 | 68 | 1015.8 |
| 20260906172834 | 87 | 360 | 4.0 | 6.0 | 0.00 | 0.00 | 0.00 | 69 | 1015.8 |
| 20260906172733 | 87 | 360 | 3.0 | 6.0 | 0.00 | 0.00 | 0.00 | 69 | 1015.8 |
| 20260906172634 | 87 | 360 | 3.0 | 6.0 | 0.00 | 0.00 | 0.00 | 69 | 1015.9 |
| 20260906172535 | 87 | 360 | 3.0 | 6.0 | 0.00 | 0.00 | 0.00 | 70 | 1015.9 |
| 20260906172419 | 87 | 360 | 3.0 | 6.0 | 0.00 | 0.00 | 0.00 | 69 | 1015.9 |
| 20260906172339 | 87 | 360 | 3.0 | 6.0 | 0.00 | 0.00 | 0.00 | 69 | 1015.9 |
| 20260906172219 | 87 | 107 | 3.0 | 6.0 | 0.00 | 0.00 | 0.00 | 70 | 1016.0 |
| 20260906172120 | 87 | 360 | 4.0 | 6.0 | 0.00 | 0.00 | 0.00 | 70 | 1015.9 |
| 20260906172021 | 87 | 84 | 4.0 | 6.0 | 0.00 | 0.00 | 0.00 | 69 | 1015.9 |
| 20260906171922 | 87 | 360 | 4.0 | 6.0 | 0.00 | 0.00 | 0.00 | 69 | 1015.9 |
| 20260906171822 | 87 | 360 | 3.0 | 6.0 | 0.00 | 0.00 | 0.00 | 70 | 1016.0 |
| 20260906171722 | 87 | 86 | 3.0 | 5.0 | 0.00 | 0.00 | 0.00 | 70 | 1016.0 |
| 20260906171620 | 87 | 111 | 2.0 | 5.0 | 0.00 | 0.00 | 0.00 | 71 | 1016.0 |
| 20260906171525 | 87 | 360 | 2.0 | 6.0 | 0.00 | 0.00 | 0.00 | 71 | 1016.0 |
| 20260906171424 | 87 | 360 | 2.0 | 6.0 | 0.00 | 0.00 | 0.00 | 71 | 1016.0 |
| 20260906171325 | 87 | 360 | 2.0 | 6.0 | 0.00 | 0.00 | 0.00 | 71 | 1016.1 |
| 20260906171225 | 86 | 360 | 3.0 | 6.0 | 0.00 | 0.00 | 0.00 | 71 | 1016.1 |
| 20260906171126 | 86 | 360 | 3.0 | 6.0 | 0.00 | 0.00 | 0.00 | 72 | 1016.1 |
| 20260906171028 | 86 | 360 | 4.0 | 6.0 | 0.00 | 0.00 | 0.00 | 72 | 1016.2 |
| 20260906170934 | 86 | 360 | 4.0 | 6.0 | 0.00 | 0.00 | 0.00 | 72 | 1016.1 |
| 20260906170834 | 87 | 360 | 4.0 | 7.0 | 0.00 | 0.00 | 0.00 | 71 | 1016.2 |
| 20260906170735 | 87 | 360 | 4.0 | 7.0 | 0.00 | 0.00 | 0.00 | 71 | 1016.1 |
| 20260906170656 | 87 | 360 | 4.0 | 7.0 | 0.00 | 0.00 | 0.00 | 70 | 1016.2 |
| 20260906170555 | 87 | 360 | 3.0 | 6.0 | 0.00 | 0.00 | 0.00 | 70 | 1016.2 |
| 20260906170433 | 87 | 84 | 3.0 | 6.0 | 0.00 | 0.00 | 0.00 | 67 | 1016.2 |
| 20260906170334 | 87 | 360 | 4.0 | 6.0 | 0.00 | 0.00 | 0.00 | 66 | 1016.3 |
| 20260906170234 | 87 | 13 | 4.0 | 7.0 | 0.00 | 0.00 | 0.00 | 67 | 1016.2 |
| 20260906170118 | 87 | 13 | 4.0 | 7.0 | 0.00 | 0.00 | 0.00 | 67 | 1016.2 |
| 20260906170018 | 87 | 86 | 3.0 | 5.0 | 0.00 | 0.00 | 0.00 | 67 | 1016.3 |
| 20260906165918 | 87 | 74 | 2.0 | 4.0 | 0.00 | 0.00 | 0.00 | 67 | 1016.2 |
| 20260906165820 | 87 | 360 | 1.0 | 4.0 | 0.00 | 0.00 | 0.00 | 67 | 1016.2 |
| 20260906165720 | 87 | 360 | 1.0 | 4.0 | 0.00 | 0.00 | 0.00 | 67 | 1016.2 |
| 20260906165620 | 87 | 72 | 2.0 | 4.0 | 0.00 | 0.00 | 0.00 | 66 | 1016.2 |
| 20260906165525 | 87 | 75 | 2.0 | 4.0 | 0.00 | 0.00 | 0.00 | 66 | 1016.3 |
| 20260906165425 | 87 | 76 | 2.0 | 4.0 | 0.00 | 0.00 | 0.00 | 65 | 1016.2 |
| 20260906165325 | 87 | 76 | 3.0 | 4.0 | 0.00 | 0.00 | 0.00 | 65 | 1016.3 |
| 20260906165227 | 87 | 74 | 3.0 | 4.0 | 0.00 | 0.00 | 0.00 | 65 | 1016.3 |
| 20260906165127 | 88 | 360 | 3.0 | 4.0 | 0.00 | 0.00 | 0.00 | 66 | 1016.3 |
| 20260906165028 | 88 | 360 | 2.0 | 3.0 | 0.00 | 0.00 | 0.00 | 65 | 1016.3 |
| 20260906164929 | 88 | 360 | 2.0 | 4.0 | 0.00 | 0.00 | 0.00 | 65 | 1016.2 |
| 20260906164833 | 88 | 360 | 2.0 | 4.0 | 0.00 | 0.00 | 0.00 | 64 | 1016.3 |
| 20260906164734 | 88 | 77 | 2.0 | 4.0 | 0.00 | 0.00 | 0.00 | 64 | 1016.3 |
| 20260906164634 | 88 | 76 | 1.0 | 4.0 | 0.00 | 0.00 | 0.00 | 65 | 1016.3 |
| 20260906164534 | 88 | 78 | 2.0 | 4.0 | 0.00 | 0.00 | 0.00 | 65 | 1016.3 |
| 20260906164435 | 88 | 360 | 2.0 | 4.0 | 0.00 | 0.00 | 0.00 | 65 | 1016.3 |
| 20260906164335 | 88 | 348 | 2.0 | 4.0 | 0.00 | 0.00 | 0.00 | 65 | 1016.2 |
| 20260906164220 | 88 | 344 | 3.0 | 4.0 | 0.00 | 0.00 | 0.00 | 66 | 1016.2 |
| 20260906164120 | 87 | 348 | 3.0 | 4.0 | 0.00 | 0.00 | 0.00 | 67 | 1016.4 |
| 20260906164022 | 87 | 26 | 2.0 | 4.0 | 0.00 | 0.00 | 0.00 | 67 | 1016.4 |
| 20260906163923 | 87 | 360 | 2.0 | 3.0 | 0.00 | 0.00 | 0.00 | 67 | 1016.4 |
| 20260906163843 | 87 | 360 | 2.0 | 3.0 | 0.00 | 0.00 | 0.00 | 67 | 1016.3 |
| 20260906163716 | 88 | 94 | 1.0 | 3.0 | 0.00 | 0.00 | 0.00 | 66 | 1016.3 |
| 20260906163621 | 87 | 360 | 1.0 | 3.0 | 0.00 | 0.00 | 0.00 | 66 | 1016.3 |
| 20260906163521 | 87 | 360 | 2.0 | 3.0 | 0.00 | 0.00 | 0.00 | 66 | 1016.4 |
| 20260906163422 | 87 | 360 | 2.0 | 3.0 | 0.00 | 0.00 | 0.00 | 66 | 1016.2 |
| 20260906163321 | 87 | 360 | 2.0 | 3.0 | 0.00 | 0.00 | 0.00 | 66 | 1016.3 |
| 20260906163221 | 87 | 94 | 1.0 | 3.0 | 0.00 | 0.00 | 0.00 | 68 | 1016.3 |
| 20260906163123 | 87 | 360 | 1.0 | 3.0 | 0.00 | 0.00 | 0.00 | 68 | 1016.3 |
| 20260906163023 | 87 | 360 | 1.0 | 3.0 | 0.00 | 0.00 | 0.00 | 68 | 1016.3 |
| 20260906162927 | 87 | 94 | 1.0 | 3.0 | 0.00 | 0.00 | 0.00 | 68 | 1016.3 |
| 20260906162829 | 87 | 94 | 1.0 | 3.0 | 0.00 | 0.00 | 0.00 | 68 | 1016.3 |
| 20260906162729 | 87 | 360 | 1.0 | 3.0 | 0.00 | 0.00 | 0.00 | 68 | 1016.3 |
| 20260906162629 | 87 | 360 | 1.0 | 3.0 | 0.00 | 0.00 | 0.00 | 67 | 1016.3 |
| 20260906162549 | 87 | 360 | 1.0 | 3.0 | 0.00 | 0.00 | 0.00 | 68 | 1016.2 |
| 20260906162450 | 87 | 360 | 1.0 | 2.0 | 0.00 | 0.00 | 0.00 | 67 | 1016.3 |
| 20260906162329 | 87 | 360 | 2.0 | 2.0 | 0.00 | 0.00 | 0.00 | 67 | 1016.3 |
| 20260906162249 | 87 | 360 | 1.0 | 2.0 | 0.00 | 0.00 | 0.00 | 67 | 1016.2 |
| 20260906162133 | 87 | 360 | 1.0 | 2.0 | 0.00 | 0.00 | 0.00 | 67 | 1016.2 |
| 20260906162033 | 87 | 360 | 1.0 | 2.0 | 0.00 | 0.00 | 0.00 | 68 | 1016.4 |
| 20260906161934 | 87 | 360 | 1.0 | 6.0 | 0.00 | 0.00 | 0.00 | 68 | 1016.2 |
| 20260906161834 | 87 | 360 | 1.0 | 6.0 | 0.00 | 0.00 | 0.00 | 68 | 1016.3 |
| 20260906161755 | 87 | 360 | 0.0 | 6.0 | 0.00 | 0.00 | 0.00 | 69 | 1016.3 |
| 20260906161634 | 87 | 360 | 0.0 | 6.0 | 0.00 | 0.00 | 0.00 | 70 | 1016.2 |
| 20260906161535 | 87 | 360 | 1.0 | 6.0 | 0.00 | 0.00 | 0.00 | 69 | 1016.2 |
| 20260906161419 | 87 | 360 | 1.0 | 6.0 | 0.00 | 0.00 | 0.00 | 71 | 1016.3 |
| 20260906161319 | 86 | 360 | 2.0 | 6.0 | 0.00 | 0.00 | 0.00 | 71 | 1016.3 |
| 20260906161220 | 86 | 360 | 2.0 | 6.0 | 0.00 | 0.00 | 0.00 | 71 | 1016.4 |
| 20260906161141 | 86 | 360 | 3.0 | 6.0 | 0.00 | 0.00 | 0.00 | 71 | 1016.3 |
| 20260906161021 | 86 | 91 | 2.0 | 6.0 | 0.00 | 0.00 | 0.00 | 71 | 1016.3 |
| 20260906160920 | 86 | 360 | 2.0 | 6.0 | 0.00 | 0.00 | 0.00 | 73 | 1016.3 |
| 20260906160821 | 86 | 360 | 2.0 | 5.0 | 0.00 | 0.00 | 0.00 | 73 | 1016.4 |
| 20260906160725 | 86 | 360 | 3.0 | 5.0 | 0.00 | 0.00 | 0.00 | 73 | 1016.4 |
| 20260906160625 | 86 | 360 | 3.0 | 5.0 | 0.00 | 0.00 | 0.00 | 74 | 1016.3 |
| 20260906160547 | 86 | 360 | 3.0 | 5.0 | 0.00 | 0.00 | 0.00 | 74 | 1016.3 |
| 20260906160426 | 86 | 360 | 3.0 | 5.0 | 0.00 | 0.00 | 0.00 | 74 | 1016.3 |
| 20260906160326 | 85 | 360 | 3.0 | 5.0 | 0.00 | 0.00 | 0.00 | 75 | 1016.4 |
| 20260906160227 | 85 | 360 | 3.0 | 5.0 | 0.00 | 0.00 | 0.00 | 75 | 1016.3 |
| 20260906160128 | 85 | 81 | 3.0 | 5.0 | 0.00 | 0.00 | 0.00 | 75 | 1016.4 |
| 20260906160032 | 85 | 360 | 2.0 | 5.0 | 0.00 | 0.00 | 0.00 | 75 | 1016.4 |
| 20260906155933 | 85 | 61 | 2.0 | 5.0 | 0.00 | 0.00 | 0.00 | 75 | 1016.4 |
| 20260906155834 | 85 | 63 | 2.0 | 4.0 | 0.00 | 0.00 | 0.00 | 75 | 1016.4 |
| 20260906155734 | 85 | 100 | 2.0 | 4.0 | 0.00 | 0.00 | 0.00 | 75 | 1016.4 |
| 20260906155656 | 85 | 100 | 3.0 | 4.0 | 0.00 | 0.00 | 0.00 | 75 | 1016.3 |
| 20260906155555 | 85 | 98 | 3.0 | 4.0 | 0.00 | 0.00 | 0.00 | 74 | 1016.4 |
| 20260906155434 | 86 | 360 | 2.0 | 4.0 | 0.00 | 0.00 | 0.00 | 74 | 1016.4 |
| 20260906155319 | 86 | 360 | 1.0 | 4.0 | 0.00 | 0.00 | 0.00 | 75 | 1016.4 |
| 20260906155218 | 85 | 360 | 0.0 | 3.0 | 0.00 | 0.00 | 0.00 | 76 | 1016.3 |
| 20260906155118 | 85 | 360 | 0.0 | 3.0 | 0.00 | 0.00 | 0.00 | 76 | 1016.4 |
| 20260906155018 | 85 | 360 | 1.0 | 3.0 | 0.00 | 0.00 | 0.00 | 75 | 1016.4 |
| 20260906154920 | 85 | 360 | 1.0 | 3.0 | 0.00 | 0.00 | 0.00 | 75 | 1016.3 |
| 20260906154820 | 85 | 360 | 1.0 | 3.0 | 0.00 | 0.00 | 0.00 | 75 | 1016.3 |
| 20260906154721 | 85 | 360 | 1.0 | 3.0 | 0.00 | 0.00 | 0.00 | 75 | 1016.3 |
| 20260906154625 | 85 | 360 | 1.0 | 3.0 | 0.00 | 0.00 | 0.00 | 75 | 1016.3 |
| 20260906154527 | 85 | 360 | 1.0 | 3.0 | 0.00 | 0.00 | 0.00 | 76 | 1016.3 |
| 20260906154427 | 85 | 360 | 2.0 | 3.0 | 0.00 | 0.00 | 0.00 | 76 | 1016.3 |
| 20260906154327 | 85 | 360 | 2.0 | 3.0 | 0.00 | 0.00 | 0.00 | 75 | 1016.3 |
| 20260906154247 | 85 | 360 | 2.0 | 3.0 | 0.00 | 0.00 | 0.00 | 75 | 1016.3 |
| 20260906154126 | 85 | 360 | 1.0 | 3.0 | 0.00 | 0.00 | 0.00 | 75 | 1016.3 |
| 20260906154027 | 85 | 360 | 1.0 | 3.0 | 0.00 | 0.00 | 0.00 | 75 | 1016.3 |
| 20260906153931 | 85 | 360 | 0.0 | 3.0 | 0.00 | 0.00 | 0.00 | 75 | 1016.3 |
| 20260906153832 | 85 | 360 | 0.0 | 3.0 | 0.00 | 0.00 | 0.00 | 75 | 1016.4 |
| 20260906153733 | 84 | 360 | 0.0 | 3.0 | 0.00 | 0.00 | 0.00 | 76 | 1016.4 |
| 20260906153653 | 84 | 360 | 1.0 | 3.0 | 0.00 | 0.00 | 0.00 | 76 | 1016.4 |
| 20260906153531 | 84 | 360 | 1.0 | 3.0 | 0.00 | 0.00 | 0.00 | 76 | 1016.4 |
| 20260906153433 | 84 | 360 | 1.0 | 3.0 | 0.00 | 0.00 | 0.00 | 76 | 1016.3 |
| 20260906153333 | 84 | 360 | 2.0 | 3.0 | 0.00 | 0.00 | 0.00 | 76 | 1016.3 |
| 20260906153217 | 84 | 360 | 1.0 | 3.0 | 0.00 | 0.00 | 0.00 | 75 | 1016.3 |
| 20260906153118 | 84 | 360 | 1.0 | 3.0 | 0.00 | 0.00 | 0.00 | 75 | 1016.2 |
| 20260906153018 | 84 | 360 | 1.0 | 3.0 | 0.00 | 0.00 | 0.00 | 75 | 1016.2 |
| 20260906152939 | 84 | 360 | 1.0 | 3.0 | 0.00 | 0.00 | 0.00 | 75 | 1016.3 |
| 20260906152819 | 84 | 360 | 1.0 | 3.0 | 0.00 | 0.00 | 0.00 | 75 | 1016.3 |
| 20260906152739 | 84 | 360 | 1.0 | 3.0 | 0.00 | 0.00 | 0.00 | 75 | 1016.4 |
| 20260906152617 | 84 | 360 | 1.0 | 3.0 | 0.00 | 0.00 | 0.00 | 75 | 1016.3 |
| 20260906152517 | 84 | 360 | 1.0 | 3.0 | 0.00 | 0.00 | 0.00 | 75 | 1016.3 |
| 20260906152422 | 84 | 360 | 1.0 | 3.0 | 0.00 | 0.00 | 0.00 | 75 | 1016.2 |
| 20260906152321 | 84 | 360 | 1.0 | 2.0 | 0.00 | 0.00 | 0.00 | 75 | 1016.3 |
| 20260906152222 | 84 | 360 | 1.0 | 2.0 | 0.00 | 0.00 | 0.00 | 75 | 1016.2 |
| 20260906152123 | 84 | 360 | 1.0 | 2.0 | 0.00 | 0.00 | 0.00 | 75 | 1016.2 |
| 20260906152024 | 85 | 360 | 1.0 | 3.0 | 0.00 | 0.00 | 0.00 | 75 | 1016.2 |
| 20260906151945 | 85 | 360 | 1.0 | 3.0 | 0.00 | 0.00 | 0.00 | 75 | 1016.2 |
| 20260906151823 | 85 | 360 | 0.0 | 3.0 | 0.00 | 0.00 | 0.00 | 75 | 1016.2 |
| 20260906151727 | 85 | 360 | 0.0 | 4.0 | 0.00 | 0.00 | 0.00 | 76 | 1016.1 |
| 20260906151628 | 84 | 360 | 0.0 | 4.0 | 0.00 | 0.00 | 0.00 | 76 | 1016.1 |
| 20260906151528 | 84 | 360 | 0.0 | 4.0 | 0.00 | 0.00 | 0.00 | 76 | 1016.0 |
| 20260906151430 | 84 | 360 | 1.0 | 4.0 | 0.00 | 0.00 | 0.00 | 76 | 1016.0 |
| 20260906151330 | 84 | 360 | 2.0 | 4.0 | 0.00 | 0.00 | 0.00 | 76 | 1016.1 |
| 20260906151231 | 84 | 360 | 2.0 | 4.0 | 0.00 | 0.00 | 0.00 | 76 | 1016.0 |
| 20260906151132 | 84 | 360 | 2.0 | 4.0 | 0.00 | 0.00 | 0.00 | 76 | 1016.1 |
| 20260906151035 | 84 | 360 | 1.0 | 4.0 | 0.00 | 0.00 | 0.00 | 76 | 1016.1 |
| 20260906150916 | 84 | 360 | 1.0 | 4.0 | 0.00 | 0.00 | 0.00 | 77 | 1016.0 |
| 20260906150837 | 84 | 360 | 1.0 | 4.0 | 0.00 | 0.00 | 0.00 | 77 | 1016.1 |
| 20260906150757 | 84 | 360 | 1.0 | 4.0 | 0.00 | 0.00 | 0.00 | 78 | 1016.0 |
| 20260906150616 | 83 | 360 | 1.0 | 3.0 | 0.00 | 0.00 | 0.00 | 78 | 1015.9 |
| 20260906150516 | 83 | 360 | 1.0 | 5.0 | 0.00 | 0.00 | 0.00 | 79 | 1016.0 |
| 20260906150417 | 83 | 360 | 1.0 | 5.0 | 0.00 | 0.00 | 0.00 | 79 | 1015.9 |
| 20260906150321 | 83 | 205 | 1.0 | 5.0 | 0.00 | 0.00 | 0.00 | 79 | 1015.9 |
| 20260906150242 | 83 | 360 | 1.0 | 5.0 | 0.00 | 0.00 | 0.00 | 79 | 1015.9 |
| 20260906150204 | 83 | 360 | 1.0 | 5.0 | 0.00 | 0.00 | 0.00 | 79 | 1015.9 |
| 20260906150016 | 83 | 360 | 2.0 | 5.0 | 0.00 | 0.00 | 0.00 | 79 | 1015.9 |
| 20260906145937 | 83 | 360 | 2.0 | 5.0 | 0.00 | 0.00 | 0.00 | 79 | 1015.9 |
| 20260906145858 | 83 | 205 | 3.0 | 5.0 | 0.00 | 0.00 | 0.00 | 79 | 1015.9 |
| 20260906145757 | 83 | 360 | 3.0 | 5.0 | 0.00 | 0.00 | 0.00 | 79 | 1015.9 |
| 20260906145656 | 83 | 360 | 3.0 | 5.0 | 0.00 | 0.00 | 0.00 | 78 | 1015.9 |
| 20260906145556 | 83 | 360 | 3.0 | 5.0 | 0.00 | 0.00 | 0.00 | 78 | 1015.8 |
| 20260906145419 | 83 | 360 | 2.0 | 5.0 | 0.00 | 0.00 | 0.00 | 78 | 1015.8 |
| 20260906145320 | 83 | 360 | 2.0 | 5.0 | 0.00 | 0.00 | 0.00 | 78 | 1015.9 |
| 20260906145221 | 83 | 360 | 2.0 | 5.0 | 0.00 | 0.00 | 0.00 | 78 | 1015.9 |
| 20260906145122 | 83 | 360 | 3.0 | 8.0 | 0.00 | 0.00 | 0.00 | 77 | 1015.9 |
| 20260906145022 | 83 | 360 | 3.0 | 8.0 | 0.00 | 0.00 | 0.00 | 77 | 1015.9 |
| 20260906144924 | 83 | 360 | 2.0 | 8.0 | 0.00 | 0.00 | 0.00 | 77 | 1015.8 |
| 20260906144829 | 84 | 360 | 2.0 | 8.0 | 0.00 | 0.00 | 0.00 | 77 | 1015.9 |
| 20260906144730 | 84 | 360 | 2.0 | 8.0 | 0.00 | 0.00 | 0.00 | 77 | 1015.8 |
| 20260906144651 | 84 | 360 | 1.0 | 8.0 | 0.00 | 0.00 | 0.00 | 78 | 1015.8 |
| 20260906144530 | 84 | 360 | 2.0 | 8.0 | 0.00 | 0.00 | 0.00 | 78 | 1015.8 |
| 20260906144430 | 84 | 360 | 3.0 | 8.0 | 0.00 | 0.00 | 0.00 | 77 | 1015.8 |
| 20260906144351 | 84 | 360 | 4.0 | 8.0 | 0.00 | 0.00 | 0.00 | 77 | 1015.8 |
| 20260906144231 | 84 | 360 | 4.0 | 8.0 | 0.00 | 0.00 | 0.00 | 77 | 1015.8 |
| 20260906144153 | 84 | 360 | 4.0 | 7.0 | 0.00 | 0.00 | 0.00 | 76 | 1015.9 |
| 20260906144031 | 84 | 360 | 3.0 | 7.0 | 0.00 | 0.00 | 0.00 | 76 | 1015.8 |
| 20260906143935 | 84 | 360 | 2.0 | 6.0 | 0.00 | 0.00 | 0.00 | 76 | 1015.8 |
| 20260906143856 | 84 | 360 | 2.0 | 6.0 | 0.00 | 0.00 | 0.00 | 76 | 1015.9 |
| 20260906143716 | 84 | 360 | 3.0 | 6.0 | 0.00 | 0.00 | 0.00 | 76 | 1015.8 |
| 20260906143617 | 85 | 360 | 3.0 | 6.0 | 0.00 | 0.00 | 0.00 | 76 | 1015.9 |
| 20260906143518 | 85 | 360 | 2.0 | 6.0 | 0.00 | 0.00 | 0.00 | 77 | 1015.9 |
| 20260906143417 | 85 | 360 | 2.0 | 4.0 | 0.00 | 0.00 | 0.00 | 77 | 1015.8 |
| 20260906143318 | 84 | 360 | 2.0 | 5.0 | 0.00 | 0.00 | 0.00 | 77 | 1015.9 |
| 20260906143223 | 84 | 360 | 2.0 | 5.0 | 0.00 | 0.00 | 0.00 | 77 | 1015.9 |
| 20260906143123 | 84 | 360 | 1.0 | 5.0 | 0.00 | 0.00 | 0.00 | 78 | 1015.8 |
| 20260906143024 | 84 | 360 | 2.0 | 5.0 | 0.00 | 0.00 | 0.00 | 79 | 1015.8 |
| 20260906142925 | 84 | 360 | 2.0 | 5.0 | 0.00 | 0.00 | 0.00 | 79 | 1015.9 |
| 20260906142827 | 83 | 360 | 2.0 | 5.0 | 0.00 | 0.00 | 0.00 | 79 | 1015.8 |
| 20260906142727 | 83 | 360 | 3.0 | 5.0 | 0.00 | 0.00 | 0.00 | 79 | 1015.8 |
| 20260906142631 | 83 | 360 | 2.0 | 5.0 | 0.00 | 0.00 | 0.00 | 79 | 1015.9 |
| 20260906142531 | 83 | 360 | 2.0 | 5.0 | 0.00 | 0.00 | 0.00 | 80 | 1015.8 |
| 20260906142432 | 83 | 360 | 1.0 | 5.0 | 0.00 | 0.00 | 0.00 | 80 | 1015.9 |
| 20260906142332 | 83 | 360 | 2.0 | 8.0 | 0.00 | 0.00 | 0.00 | 81 | 1015.9 |
| 20260906142233 | 83 | 360 | 3.0 | 8.0 | 0.00 | 0.00 | 0.00 | 81 | 1015.7 |
| 20260906142132 | 83 | 360 | 3.0 | 8.0 | 0.00 | 0.00 | 0.00 | 80 | 1015.8 |
| 20260906142017 | 83 | 360 | 2.0 | 8.0 | 0.00 | 0.00 | 0.00 | 80 | 1015.8 |
| 20260906141917 | 83 | 360 | 1.0 | 8.0 | 0.00 | 0.00 | 0.00 | 81 | 1015.8 |
| 20260906141818 | 82 | 360 | 2.0 | 8.0 | 0.00 | 0.00 | 0.00 | 81 | 1015.6 |
| 20260906141739 | 82 | 360 | 4.0 | 8.0 | 0.00 | 0.00 | 0.00 | 81 | 1015.7 |
| 20260906141618 | 82 | 360 | 4.0 | 8.0 | 0.00 | 0.00 | 0.00 | 81 | 1015.6 |
| 20260906141539 | 82 | 360 | 4.0 | 8.0 | 0.00 | 0.00 | 0.00 | 81 | 1015.6 |
| 20260906141417 | 82 | 360 | 4.0 | 6.0 | 0.00 | 0.00 | 0.00 | 81 | 1015.7 |
| 20260906141317 | 82 | 360 | 4.0 | 8.0 | 0.00 | 0.00 | 0.00 | 81 | 1015.6 |
| 20260906141223 | 81 | 360 | 3.0 | 8.0 | 0.00 | 0.00 | 0.00 | 81 | 1015.6 |
| 20260906141143 | 81 | 360 | 3.0 | 8.0 | 0.00 | 0.00 | 0.00 | 81 | 1015.6 |
| 20260906141043 | 81 | 360 | 3.0 | 8.0 | 0.00 | 0.00 | 0.00 | 81 | 1015.6 |
| 20260906141004 | 81 | 360 | 3.0 | 8.0 | 0.00 | 0.00 | 0.00 | 82 | 1015.6 |
| 20260906140816 | 81 | 360 | 3.0 | 8.0 | 0.00 | 0.00 | 0.00 | 82 | 1015.6 |
| 20260906140717 | 81 | 203 | 4.0 | 8.0 | 0.00 | 0.00 | 0.00 | 82 | 1015.7 |
| 20260906140618 | 81 | 360 | 4.0 | 8.0 | 0.00 | 0.00 | 0.00 | 82 | 1015.7 |
| 20260906140518 | 81 | 360 | 5.0 | 8.0 | 0.00 | 0.00 | 0.00 | 81 | 1015.7 |
| 20260906140443 | 81 | 360 | 4.0 | 8.0 | 0.00 | 0.00 | 0.00 | 81 | 1015.7 |
| 20260906140316 | 81 | 360 | 4.0 | 8.0 | 0.00 | 0.00 | 0.00 | 81 | 1015.6 |
| 20260906140216 | 82 | 360 | 4.0 | 8.0 | 0.00 | 0.00 | 0.00 | 82 | 1015.6 |
| 20260906140117 | 81 | 360 | 4.0 | 8.0 | 0.00 | 0.00 | 0.00 | 82 | 1015.6 |
| 20260906140017 | 81 | 360 | 5.0 | 8.0 | 0.00 | 0.00 | 0.00 | 82 | 1015.7 |
| 20260906135918 | 81 | 360 | 6.0 | 8.0 | 0.00 | 0.00 | 0.00 | 82 | 1015.7 |
| 20260906135819 | 81 | 182 | 6.0 | 8.0 | 0.00 | 0.00 | 0.00 | 81 | 1015.7 |
| 20260906135722 | 81 | 360 | 6.0 | 9.0 | 0.00 | 0.00 | 0.00 | 82 | 1015.8 |
| 20260906135624 | 81 | 360 | 5.0 | 9.0 | 0.00 | 0.00 | 0.00 | 81 | 1015.6 |
| 20260906135524 | 81 | 360 | 4.0 | 9.0 | 0.00 | 0.00 | 0.00 | 81 | 1015.7 |
| 20260906135445 | 81 | 360 | 4.0 | 9.0 | 0.00 | 0.00 | 0.00 | 81 | 1015.6 |
| 20260906135323 | 81 | 360 | 5.0 | 9.0 | 0.00 | 0.00 | 0.00 | 81 | 1015.6 |
| 20260906135224 | 81 | 360 | 5.0 | 9.0 | 0.00 | 0.00 | 0.00 | 81 | 1015.6 |
| 20260906135125 | 82 | 360 | 4.0 | 9.0 | 0.00 | 0.00 | 0.00 | 81 | 1015.8 |
| 20260906135029 | 82 | 360 | 4.0 | 9.0 | 0.00 | 0.00 | 0.00 | 80 | 1015.6 |
| 20260906134930 | 82 | 360 | 3.0 | 9.0 | 0.00 | 0.00 | 0.00 | 80 | 1015.6 |
| 20260906134829 | 82 | 360 | 2.0 | 5.0 | 0.00 | 0.00 | 0.00 | 81 | 1015.6 |
| 20260906134750 | 82 | 360 | 1.0 | 5.0 | 0.00 | 0.00 | 0.00 | 81 | 1015.6 |
| 20260906134629 | 82 | 360 | 1.0 | 8.0 | 0.00 | 0.00 | 0.00 | 82 | 1015.6 |
| 20260906134529 | 82 | 360 | 1.0 | 8.0 | 0.00 | 0.00 | 0.00 | 82 | 1015.6 |
| 20260906134450 | 81 | 360 | 2.0 | 11.0 | 0.00 | 0.00 | 0.00 | 82 | 1015.6 |
| 20260906134328 | 81 | 360 | 2.0 | 11.0 | 0.00 | 0.00 | 0.00 | 82 | 1015.6 |
| 20260906134232 | 81 | 360 | 2.0 | 11.0 | 0.00 | 0.00 | 0.00 | 82 | 1015.6 |
| 20260906134132 | 81 | 360 | 2.0 | 11.0 | 0.00 | 0.00 | 0.00 | 82 | 1015.7 |
| 20260906134033 | 81 | 360 | 2.0 | 11.0 | 0.00 | 0.00 | 0.00 | 82 | 1015.5 |
| 20260906133934 | 81 | 360 | 3.0 | 11.0 | 0.00 | 0.00 | 0.00 | 82 | 1015.5 |
| 20260906133834 | 81 | 360 | 5.0 | 11.0 | 0.00 | 0.00 | 0.00 | 82 | 1015.5 |
| 20260906133734 | 81 | 360 | 6.0 | 11.0 | 0.00 | 0.00 | 0.00 | 82 | 1015.5 |
| 20260906133618 | 81 | 360 | 5.0 | 11.0 | 0.00 | 0.00 | 0.00 | 82 | 1015.5 |
| 20260906133520 | 81 | 360 | 5.0 | 9.0 | 0.00 | 0.00 | 0.00 | 82 | 1015.4 |
| 20260906133421 | 81 | 360 | 4.0 | 9.0 | 0.00 | 0.00 | 0.00 | 82 | 1015.4 |
| 20260906133320 | 81 | 360 | 4.0 | 9.0 | 0.00 | 0.00 | 0.00 | 83 | 1015.3 |
| 20260906133221 | 81 | 360 | 3.0 | 9.0 | 0.00 | 0.00 | 0.00 | 83 | 1015.3 |
| 20260906133122 | 81 | 185 | 4.0 | 10.0 | 0.00 | 0.00 | 0.00 | 83 | 1015.4 |
| 20260906133021 | 81 | 360 | 4.0 | 10.0 | 0.00 | 0.00 | 0.00 | 82 | 1015.4 |
| 20260906132942 | 81 | 360 | 4.0 | 10.0 | 0.00 | 0.00 | 0.00 | 82 | 1015.4 |
| 20260906132827 | 81 | 360 | 3.0 | 10.0 | 0.00 | 0.00 | 0.00 | 82 | 1015.4 |
| 20260906132726 | 81 | 360 | 2.0 | 10.0 | 0.00 | 0.00 | 0.00 | 82 | 1015.4 |
| 20260906132627 | 81 | 360 | 2.0 | 10.0 | 0.00 | 0.00 | 0.00 | 82 | 1015.3 |
| 20260906132527 | 81 | 360 | 1.0 | 10.0 | 0.00 | 0.00 | 0.00 | 82 | 1015.3 |
| 20260906132426 | 81 | 360 | 2.0 | 10.0 | 0.00 | 0.00 | 0.00 | 83 | 1015.2 |
| 20260906132327 | 80 | 360 | 3.0 | 10.0 | 0.00 | 0.00 | 0.00 | 83 | 1015.3 |
| 20260906132249 | 80 | 360 | 5.0 | 10.0 | 0.00 | 0.00 | 0.00 | 83 | 1015.3 |
| 20260906132129 | 80 | 360 | 6.0 | 10.0 | 0.00 | 0.00 | 0.00 | 83 | 1015.3 |
| 20260906132034 | 80 | 360 | 6.0 | 8.0 | 0.00 | 0.00 | 0.00 | 83 | 1015.4 |
| 20260906131955 | 80 | 360 | 5.0 | 8.0 | 0.00 | 0.00 | 0.00 | 83 | 1015.3 |
| 20260906131834 | 80 | 360 | 4.0 | 8.0 | 0.00 | 0.00 | 0.00 | 83 | 1015.3 |
| 20260906131754 | 80 | 360 | 3.0 | 6.0 | 0.00 | 0.00 | 0.00 | 83 | 1015.2 |
| 20260906131634 | 80 | 360 | 3.0 | 6.0 | 0.00 | 0.00 | 0.00 | 84 | 1015.4 |
| 20260906131534 | 80 | 360 | 3.0 | 6.0 | 0.00 | 0.00 | 0.00 | 84 | 1015.3 |
| 20260906131455 | 79 | 360 | 4.0 | 6.0 | 0.00 | 0.00 | 0.00 | 84 | 1015.3 |
| 20260906131318 | 79 | 360 | 4.0 | 6.0 | 0.00 | 0.00 | 0.00 | 84 | 1015.3 |
| 20260906131219 | 79 | 360 | 3.0 | 5.0 | 0.00 | 0.00 | 0.00 | 84 | 1015.3 |
| 20260906131119 | 79 | 360 | 3.0 | 5.0 | 0.00 | 0.00 | 0.00 | 83 | 1015.2 |
| 20260906131019 | 79 | 360 | 2.0 | 4.0 | 0.00 | 0.00 | 0.00 | 83 | 1015.2 |
| 20260906130940 | 79 | 360 | 1.0 | 3.0 | 0.00 | 0.00 | 0.00 | 84 | 1015.0 |
| 20260906130820 | 79 | 360 | 0.0 | 2.0 | 0.00 | 0.00 | 0.00 | 84 | 1015.1 |
| 20260906130720 | 79 | 360 | 0.0 | 0.0 | 0.00 | 0.00 | 0.00 | 83 | 1015.0 |
| 20260906130621 | 79 | 360 | 0.0 | 0.0 | 0.00 | 0.00 | 0.00 | 83 | 1015.0 |
| 20260906130525 | 79 | 360 | 0.0 | 0.0 | 0.00 | 0.00 | 0.00 | 83 | 1015.0 |
| 20260906130426 | 79 | 360 | 0.0 | 0.0 | 0.00 | 0.00 | 0.00 | 83 | 1015.0 |
| 20260906130326 | 79 | 360 | 0.0 | 0.0 | 0.00 | 0.00 | 0.00 | 83 | 1014.9 |
| 20260906130226 | 79 | 360 | 0.0 | 0.0 | 0.00 | 0.00 | 0.00 | 83 | 1014.8 |
| 20260906130127 | 79 | 360 | 0.0 | 0.0 | 0.00 | 0.00 | 0.00 | 84 | 1014.9 |
| 20260906130047 | 79 | 360 | 0.0 | 0.0 | 0.00 | 0.00 | 0.00 | 84 | 1015.0 |
| 20260906125927 | 79 | 360 | 0.0 | 0.0 | 0.00 | 0.00 | 0.00 | 84 | 1014.9 |
| 20260906125832 | 79 | 360 | 0.0 | 0.0 | 0.00 | 0.00 | 0.00 | 84 | 1014.9 |
| 20260906125730 | 79 | 360 | 0.0 | 0.0 | 0.00 | 0.00 | 0.00 | 84 | 1015.0 |
| 20260906125633 | 79 | 360 | 0.0 | 0.0 | 0.00 | 0.00 | 0.00 | 84 | 1015.0 |
| 20260906125534 | 79 | 360 | 0.0 | 0.0 | 0.00 | 0.00 | 0.00 | 84 | 1014.9 |
| 20260906125435 | 79 | 360 | 0.0 | 0.0 | 0.00 | 0.00 | 0.00 | 84 | 1015.0 |
| 20260906125335 | 79 | 360 | 0.0 | 0.0 | 0.00 | 0.00 | 0.00 | 84 | 1015.0 |
| 20260906125220 | 79 | 360 | 0.0 | 0.0 | 0.00 | 0.00 | 0.00 | 84 | 1015.0 |
| 20260906125120 | 79 | 360 | 0.0 | 0.0 | 0.00 | 0.00 | 0.00 | 84 | 1015.0 |
| 20260906125021 | 79 | 360 | 0.0 | 0.0 | 0.00 | 0.00 | 0.00 | 84 | 1015.0 |
| 20260906124921 | 79 | 360 | 0.0 | 0.0 | 0.00 | 0.00 | 0.00 | 84 | 1015.0 |
| 20260906124842 | 79 | 360 | 0.0 | 0.0 | 0.00 | 0.00 | 0.00 | 84 | 1015.0 |
| 20260906124721 | 78 | 360 | 0.0 | 0.0 | 0.00 | 0.00 | 0.00 | 84 | 1015.0 |
| 20260906124622 | 78 | 360 | 0.0 | 0.0 | 0.00 | 0.00 | 0.00 | 84 | 1014.9 |
| 20260906124526 | 78 | 360 | 0.0 | 0.0 | 0.00 | 0.00 | 0.00 | 84 | 1014.9 |
| 20260906124426 | 78 | 360 | 0.0 | 0.0 | 0.00 | 0.00 | 0.00 | 84 | 1015.0 |
| 20260906124327 | 78 | 360 | 0.0 | 0.0 | 0.00 | 0.00 | 0.00 | 84 | 1015.0 |
| 20260906124228 | 78 | 360 | 0.0 | 0.0 | 0.00 | 0.00 | 0.00 | 84 | 1014.9 |
| 20260906124129 | 78 | 360 | 0.0 | 0.0 | 0.00 | 0.00 | 0.00 | 84 | 1014.8 |
| 20260906124030 | 78 | 360 | 0.0 | 0.0 | 0.00 | 0.00 | 0.00 | 84 | 1014.9 |
| 20260906123929 | 78 | 360 | 0.0 | 0.0 | 0.00 | 0.00 | 0.00 | 84 | 1014.8 |
| 20260906123833 | 78 | 360 | 0.0 | 0.0 | 0.00 | 0.00 | 0.00 | 84 | 1014.8 |
| 20260906123734 | 78 | 360 | 0.0 | 0.0 | 0.00 | 0.00 | 0.00 | 84 | 1014.8 |
| 20260906123654 | 78 | 360 | 0.0 | 0.0 | 0.00 | 0.00 | 0.00 | 84 | 1014.8 |
| 20260906123534 | 78 | 360 | 0.0 | 0.0 | 0.00 | 0.00 | 0.00 | 84 | 1014.7 |
| 20260906123436 | 78 | 360 | 0.0 | 0.0 | 0.00 | 0.00 | 0.00 | 84 | 1014.7 |
| 20260906123336 | 78 | 360 | 0.0 | 0.0 | 0.00 | 0.00 | 0.00 | 84 | 1014.7 |
| 20260906123256 | 78 | 360 | 0.0 | 0.0 | 0.00 | 0.00 | 0.00 | 84 | 1014.7 |
| 20260906123120 | 78 | 360 | 0.0 | 0.0 | 0.00 | 0.00 | 0.00 | 84 | 1014.5 |
| 20260906123021 | 78 | 360 | 0.0 | 0.0 | 0.00 | 0.00 | 0.00 | 84 | 1014.5 |
| 20260906122922 | 78 | 360 | 0.0 | 0.0 | 0.00 | 0.00 | 0.00 | 84 | 1014.5 |
| 20260906122824 | 78 | 360 | 0.0 | 0.0 | 0.00 | 0.00 | 0.00 | 84 | 1014.4 |
| 20260906122724 | 78 | 360 | 0.0 | 0.0 | 0.00 | 0.00 | 0.00 | 84 | 1014.5 |
| 20260906122625 | 78 | 360 | 0.0 | 0.0 | 0.00 | 0.00 | 0.00 | 84 | 1014.4 |
| 20260906122545 | 78 | 360 | 0.0 | 0.0 | 0.00 | 0.00 | 0.00 | 84 | 1014.3 |
| 20260906122449 | 78 | 360 | 0.0 | 0.0 | 0.00 | 0.00 | 0.00 | 84 | 1014.4 |
| 20260906122328 | 78 | 360 | 0.0 | 0.0 | 0.00 | 0.00 | 0.00 | 84 | 1014.4 |
| 20260906122229 | 78 | 360 | 0.0 | 1.0 | 0.00 | 0.00 | 0.00 | 84 | 1014.3 |
| 20260906122129 | 78 | 360 | 0.0 | 1.0 | 0.00 | 0.00 | 0.00 | 84 | 1014.4 |
| 20260906122050 | 78 | 360 | 0.0 | 1.0 | 0.00 | 0.00 | 0.00 | 84 | 1014.4 |
| 20260906121950 | 78 | 360 | 0.0 | 1.0 | 0.00 | 0.00 | 0.00 | 84 | 1014.4 |
| 20260906121829 | 78 | 360 | 0.0 | 1.0 | 0.00 | 0.00 | 0.00 | 84 | 1014.4 |
| 20260906121749 | 78 | 360 | 0.0 | 2.0 | 0.00 | 0.00 | 0.00 | 84 | 1014.4 |
| 20260906121633 | 78 | 360 | 0.0 | 2.0 | 0.00 | 0.00 | 0.00 | 84 | 1014.4 |
| 20260906121553 | 78 | 360 | 0.0 | 2.0 | 0.00 | 0.00 | 0.00 | 84 | 1014.3 |
| 20260906121432 | 78 | 360 | 0.0 | 2.0 | 0.00 | 0.00 | 0.00 | 84 | 1014.4 |
| 20260906121333 | 78 | 360 | 0.0 | 2.0 | 0.00 | 0.00 | 0.00 | 84 | 1014.3 |
| 20260906121233 | 78 | 360 | 0.0 | 2.0 | 0.00 | 0.00 | 0.00 | 84 | 1014.3 |
| 20260906121133 | 78 | 360 | 0.0 | 2.0 | 0.00 | 0.00 | 0.00 | 84 | 1014.3 |
| 20260906121035 | 78 | 360 | 1.0 | 2.0 | 0.00 | 0.00 | 0.00 | 84 | 1014.4 |
| 20260906120940 | 78 | 360 | 1.0 | 2.0 | 0.00 | 0.00 | 0.00 | 84 | 1014.3 |
| 20260906120821 | 78 | 360 | 1.0 | 2.0 | 0.00 | 0.00 | 0.00 | 84 | 1014.3 |
| 20260906120721 | 78 | 360 | 0.0 | 2.0 | 0.00 | 0.00 | 0.00 | 84 | 1014.4 |
| 20260906120622 | 78 | 360 | 0.0 | 2.0 | 0.00 | 0.00 | 0.00 | 84 | 1014.3 |
| 20260906120524 | 78 | 360 | 0.0 | 2.0 | 0.00 | 0.00 | 0.00 | 84 | 1014.3 |
| 20260906120424 | 78 | 360 | 1.0 | 2.0 | 0.00 | 0.00 | 0.00 | 84 | 1014.3 |
| 20260906120324 | 78 | 360 | 1.0 | 2.0 | 0.00 | 0.00 | 0.00 | 84 | 1014.3 |
| 20260906120229 | 78 | 360 | 1.0 | 2.0 | 0.00 | 0.00 | 0.00 | 84 | 1014.3 |
| 20260906120128 | 78 | 360 | 1.0 | 2.0 | 0.00 | 0.00 | 0.00 | 84 | 1014.2 |
| 20260906120028 | 78 | 360 | 1.0 | 2.0 | 0.00 | 0.00 | 0.00 | 84 | 1014.2 |
| 20260906115929 | 78 | 360 | 1.0 | 2.0 | 0.00 | 0.00 | 0.00 | 84 | 1014.1 |
| 20260906115832 | 78 | 360 | 1.0 | 2.0 | 0.00 | 0.00 | 0.00 | 84 | 1014.2 |
| 20260906115730 | 78 | 360 | 1.0 | 2.0 | 0.00 | 0.00 | 0.00 | 84 | 1014.2 |
| 20260906115630 | 78 | 360 | 1.0 | 2.0 | 0.00 | 0.00 | 0.00 | 84 | 1014.3 |
| 20260906115516 | 78 | 360 | 1.0 | 2.0 | 0.00 | 0.00 | 0.00 | 84 | 1014.2 |
| 20260906115437 | 78 | 360 | 0.0 | 2.0 | 0.00 | 0.00 | 0.00 | 84 | 1014.3 |
| 20260906115336 | 78 | 360 | 0.0 | 2.0 | 0.00 | 0.00 | 0.00 | 84 | 1014.1 |
| 20260906115235 | 78 | 360 | 0.0 | 2.0 | 0.00 | 0.00 | 0.00 | 84 | 1014.2 |
| 20260906115135 | 78 | 360 | 0.0 | 2.0 | 0.00 | 0.00 | 0.00 | 84 | 1014.1 |
| 20260906115035 | 78 | 360 | 0.0 | 2.0 | 0.00 | 0.00 | 0.00 | 84 | 1014.1 |
| 20260906114957 | 78 | 360 | 1.0 | 2.0 | 0.00 | 0.00 | 0.00 | 84 | 1014.2 |
| 20260906114855 | 78 | 360 | 1.0 | 2.0 | 0.00 | 0.00 | 0.00 | 84 | 1014.1 |
| 20260906114735 | 78 | 360 | 2.0 | 2.0 | 0.00 | 0.00 | 0.00 | 84 | 1014.1 |
| 20260906114619 | 78 | 360 | 1.0 | 2.0 | 0.00 | 0.00 | 0.00 | 84 | 1014.1 |
| 20260906114519 | 78 | 360 | 1.0 | 2.0 | 0.00 | 0.00 | 0.00 | 84 | 1014.1 |
| 20260906114421 | 78 | 360 | 0.0 | 2.0 | 0.00 | 0.00 | 0.00 | 84 | 1014.0 |
| 20260906114341 | 78 | 360 | 0.0 | 0.0 | 0.00 | 0.00 | 0.00 | 84 | 1014.0 |
| 20260906114221 | 78 | 360 | 0.0 | 0.0 | 0.00 | 0.00 | 0.00 | 84 | 1014.0 |
| 20260906114122 | 78 | 360 | 0.0 | 0.0 | 0.00 | 0.00 | 0.00 | 84 | 1013.9 |
| 20260906114022 | 78 | 360 | 0.0 | 0.0 | 0.00 | 0.00 | 0.00 | 84 | 1013.8 |
| 20260906113927 | 78 | 360 | 0.0 | 0.0 | 0.00 | 0.00 | 0.00 | 84 | 1013.7 |
| 20260906113828 | 78 | 360 | 0.0 | 0.0 | 0.00 | 0.00 | 0.00 | 84 | 1013.7 |
| 20260906113728 | 78 | 360 | 0.0 | 0.0 | 0.00 | 0.00 | 0.00 | 84 | 1013.7 |
| 20260906113628 | 78 | 360 | 0.0 | 0.0 | 0.00 | 0.00 | 0.00 | 83 | 1013.7 |
| 20260906113527 | 78 | 360 | 0.0 | 0.0 | 0.00 | 0.00 | 0.00 | 83 | 1013.6 |
| 20260906113448 | 78 | 360 | 0.0 | 0.0 | 0.00 | 0.00 | 0.00 | 83 | 1013.6 |
| 20260906113347 | 78 | 360 | 0.0 | 0.0 | 0.00 | 0.00 | 0.00 | 83 | 1013.5 |
| 20260906113227 | 78 | 360 | 0.0 | 0.0 | 0.00 | 0.00 | 0.00 | 83 | 1013.6 |
| 20260906113130 | 78 | 360 | 0.0 | 0.0 | 0.00 | 0.00 | 0.00 | 84 | 1013.6 |
| 20260906113031 | 78 | 360 | 0.0 | 0.0 | 0.00 | 0.00 | 0.00 | 84 | 1013.5 |
| 20260906112952 | 78 | 360 | 0.0 | 0.0 | 0.00 | 0.00 | 0.00 | 84 | 1013.6 |
| 20260906112854 | 78 | 360 | 0.0 | 0.0 | 0.00 | 0.00 | 0.00 | 84 | 1013.5 |
| 20260906112731 | 78 | 360 | 0.0 | 0.0 | 0.00 | 0.00 | 0.00 | 83 | 1013.6 |
| 20260906112632 | 78 | 360 | 0.0 | 0.0 | 0.00 | 0.00 | 0.00 | 83 | 1013.5 |
| 20260906112533 | 78 | 360 | 0.0 | 0.0 | 0.00 | 0.00 | 0.00 | 83 | 1013.7 |
| 20260906112419 | 78 | 360 | 0.0 | 0.0 | 0.00 | 0.00 | 0.00 | 83 | 1013.6 |
| 20260906112319 | 78 | 360 | 0.0 | 0.0 | 0.00 | 0.00 | 0.00 | 83 | 1013.6 |
| 20260906112219 | 78 | 360 | 0.0 | 0.0 | 0.00 | 0.00 | 0.00 | 83 | 1013.5 |
| 20260906112120 | 78 | 360 | 0.0 | 0.0 | 0.00 | 0.00 | 0.00 | 83 | 1013.5 |
| 20260906112021 | 78 | 360 | 0.0 | 0.0 | 0.00 | 0.00 | 0.00 | 83 | 1013.5 |
| 20260906111921 | 78 | 360 | 0.0 | 0.0 | 0.00 | 0.00 | 0.00 | 83 | 1013.5 |
| 20260906111827 | 78 | 360 | 0.0 | 0.0 | 0.00 | 0.00 | 0.00 | 83 | 1013.4 |
| 20260906111726 | 78 | 360 | 0.0 | 0.0 | 0.00 | 0.00 | 0.00 | 83 | 1013.5 |
| 20260906111627 | 78 | 360 | 0.0 | 0.0 | 0.00 | 0.00 | 0.00 | 83 | 1013.5 |
| 20260906111528 | 78 | 360 | 0.0 | 0.0 | 0.00 | 0.00 | 0.00 | 83 | 1013.5 |
| 20260906111429 | 78 | 360 | 0.0 | 0.0 | 0.00 | 0.00 | 0.00 | 83 | 1013.4 |
| 20260906111329 | 78 | 360 | 0.0 | 0.0 | 0.00 | 0.00 | 0.00 | 83 | 1013.4 |
| 20260906111229 | 78 | 360 | 0.0 | 0.0 | 0.00 | 0.00 | 0.00 | 83 | 1013.4 |
| 20260906111134 | 79 | 360 | 0.0 | 0.0 | 0.00 | 0.00 | 0.00 | 83 | 1013.4 |
| 20260906111055 | 78 | 360 | 0.0 | 0.0 | 0.00 | 0.00 | 0.00 | 83 | 1013.4 |
| 20260906110934 | 79 | 360 | 0.0 | 0.0 | 0.00 | 0.00 | 0.00 | 83 | 1013.4 |
| 20260906110835 | 79 | 360 | 0.0 | 0.0 | 0.00 | 0.00 | 0.00 | 83 | 1013.4 |
| 20260906110756 | 79 | 360 | 0.0 | 0.0 | 0.00 | 0.00 | 0.00 | 83 | 1013.4 |
| 20260906110635 | 79 | 360 | 0.0 | 0.0 | 0.00 | 0.00 | 0.00 | 83 | 1013.4 |
| 20260906110535 | 79 | 360 | 0.0 | 0.0 | 0.00 | 0.00 | 0.00 | 83 | 1013.4 |
| 20260906110420 | 79 | 360 | 0.0 | 0.0 | 0.00 | 0.00 | 0.00 | 83 | 1013.3 |
| 20260906110321 | 79 | 360 | 0.0 | 0.0 | 0.00 | 0.00 | 0.00 | 83 | 1013.4 |
| 20260906110221 | 78 | 360 | 0.0 | 0.0 | 0.00 | 0.00 | 0.00 | 83 | 1013.3 |
| 20260906110144 | 79 | 360 | 0.0 | 0.0 | 0.00 | 0.00 | 0.00 | 83 | 1013.3 |
| 20260906110023 | 79 | 360 | 0.0 | 2.0 | 0.00 | 0.00 | 0.00 | 83 | 1013.3 |
| 20260906105922 | 78 | 360 | 0.0 | 2.0 | 0.00 | 0.00 | 0.00 | 83 | 1013.2 |
| 20260906105824 | 79 | 360 | 0.0 | 2.0 | 0.00 | 0.00 | 0.00 | 83 | 1013.2 |
| 20260906105727 | 79 | 360 | 0.0 | 2.0 | 0.00 | 0.00 | 0.00 | 83 | 1013.2 |
| 20260906105628 | 78 | 360 | 0.0 | 2.0 | 0.00 | 0.00 | 0.00 | 83 | 1013.3 |
| 20260906105549 | 79 | 360 | 0.0 | 3.0 | 0.00 | 0.00 | 0.00 | 83 | 1013.2 |
| 20260906105429 | 79 | 360 | 0.0 | 3.0 | 0.00 | 0.00 | 0.00 | 83 | 1013.3 |
| 20260906105330 | 78 | 360 | 0.0 | 3.0 | 0.00 | 0.00 | 0.00 | 83 | 1013.3 |
| 20260906105229 | 79 | 360 | 1.0 | 3.0 | 0.00 | 0.00 | 0.00 | 83 | 1013.3 |
| 20260906105150 | 78 | 360 | 1.0 | 3.0 | 0.00 | 0.00 | 0.00 | 83 | 1013.2 |
| 20260906105030 | 79 | 360 | 1.0 | 3.0 | 0.00 | 0.00 | 0.00 | 83 | 1013.2 |
| 20260906104934 | 79 | 360 | 2.0 | 3.0 | 0.00 | 0.00 | 0.00 | 83 | 1013.1 |
| 20260906104855 | 79 | 360 | 2.0 | 3.0 | 0.00 | 0.00 | 0.00 | 83 | 1013.1 |
| 20260906104734 | 79 | 360 | 2.0 | 3.0 | 0.00 | 0.00 | 0.00 | 83 | 1013.1 |
| 20260906104634 | 79 | 360 | 2.0 | 3.0 | 0.00 | 0.00 | 0.00 | 83 | 1013.1 |
| 20260906104554 | 79 | 360 | 2.0 | 3.0 | 0.00 | 0.00 | 0.00 | 83 | 1013.0 |
| 20260906104453 | 79 | 360 | 3.0 | 3.0 | 0.00 | 0.00 | 0.00 | 83 | 1013.1 |
| 20260906104352 | 79 | 360 | 2.0 | 3.0 | 0.00 | 0.00 | 0.00 | 82 | 1013.1 |
| 20260906104232 | 79 | 360 | 2.0 | 3.0 | 0.00 | 0.00 | 0.00 | 82 | 1013.1 |
| 20260906104117 | 79 | 360 | 2.0 | 2.0 | 0.00 | 0.00 | 0.00 | 82 | 1013.1 |
| 20260906104017 | 79 | 360 | 1.0 | 2.0 | 0.00 | 0.00 | 0.00 | 82 | 1013.1 |
| 20260906103917 | 79 | 360 | 1.0 | 2.0 | 0.00 | 0.00 | 0.00 | 82 | 1013.1 |
| 20260906103818 | 79 | 360 | 1.0 | 2.0 | 0.00 | 0.00 | 0.00 | 82 | 1013.1 |
| 20260906103718 | 79 | 360 | 1.0 | 2.0 | 0.00 | 0.00 | 0.00 | 82 | 1013.1 |
| 20260906103639 | 79 | 360 | 1.0 | 2.0 | 0.00 | 0.00 | 0.00 | 82 | 1013.1 |
| 20260906103519 | 79 | 360 | 1.0 | 2.0 | 0.00 | 0.00 | 0.00 | 82 | 1013.1 |
| 20260906103422 | 79 | 360 | 1.0 | 2.0 | 0.00 | 0.00 | 0.00 | 82 | 1013.1 |
| 20260906103323 | 79 | 360 | 1.0 | 2.0 | 0.00 | 0.00 | 0.00 | 82 | 1013.1 |
| 20260906103223 | 79 | 360 | 1.0 | 2.0 | 0.00 | 0.00 | 0.00 | 82 | 1013.2 |
| 20260906103124 | 79 | 360 | 1.0 | 2.0 | 0.00 | 0.00 | 0.00 | 82 | 1013.1 |
| 20260906103025 | 79 | 360 | 0.0 | 2.0 | 0.00 | 0.00 | 0.00 | 82 | 1013.2 |
| 20260906102924 | 79 | 360 | 0.0 | 0.0 | 0.00 | 0.00 | 0.00 | 82 | 1013.1 |
| 20260906102825 | 79 | 360 | 0.0 | 0.0 | 0.00 | 0.00 | 0.00 | 82 | 1013.2 |
| 20260906102729 | 79 | 360 | 0.0 | 0.0 | 0.00 | 0.00 | 0.00 | 82 | 1013.2 |
| 20260906102650 | 79 | 360 | 0.0 | 0.0 | 0.00 | 0.00 | 0.00 | 82 | 1013.2 |
| 20260906102530 | 79 | 360 | 0.0 | 0.0 | 0.00 | 0.00 | 0.00 | 82 | 1013.2 |
| 20260906102430 | 79 | 360 | 0.0 | 1.0 | 0.00 | 0.00 | 0.00 | 82 | 1013.2 |
| 20260906102331 | 79 | 360 | 0.0 | 1.0 | 0.00 | 0.00 | 0.00 | 82 | 1013.2 |
| 20260906102252 | 79 | 360 | 0.0 | 1.0 | 0.00 | 0.00 | 0.00 | 82 | 1013.2 |
| 20260906102132 | 79 | 360 | 0.0 | 2.0 | 0.00 | 0.00 | 0.00 | 82 | 1013.2 |
| 20260906102032 | 79 | 360 | 0.0 | 2.0 | 0.00 | 0.00 | 0.00 | 82 | 1013.2 |
| 20260906101937 | 79 | 360 | 0.0 | 3.0 | 0.00 | 0.00 | 0.00 | 82 | 1013.2 |
| 20260906101816 | 79 | 360 | 0.0 | 3.0 | 0.00 | 0.00 | 0.00 | 82 | 1013.3 |
| 20260906101717 | 79 | 360 | 0.0 | 3.0 | 0.00 | 0.00 | 0.00 | 82 | 1013.2 |
| 20260906101617 | 79 | 360 | 1.0 | 3.0 | 0.00 | 0.00 | 0.00 | 82 | 1013.2 |
| 20260906101537 | 79 | 360 | 1.0 | 3.0 | 0.00 | 0.00 | 0.00 | 82 | 1013.2 |
| 20260906101417 | 79 | 360 | 2.0 | 3.0 | 0.00 | 0.00 | 0.00 | 82 | 1013.2 |
| 20260906101318 | 79 | 360 | 2.0 | 3.0 | 0.00 | 0.00 | 0.00 | 82 | 1013.2 |
| 20260906101222 | 79 | 360 | 2.0 | 3.0 | 0.00 | 0.00 | 0.00 | 82 | 1013.2 |
| 20260906101123 | 79 | 360 | 2.0 | 3.0 | 0.00 | 0.00 | 0.00 | 82 | 1013.2 |
| 20260906101042 | 79 | 360 | 1.0 | 2.0 | 0.00 | 0.00 | 0.00 | 82 | 1013.2 |
| 20260906100921 | 79 | 360 | 1.0 | 2.0 | 0.00 | 0.00 | 0.00 | 82 | 1013.2 |
| 20260906100822 | 79 | 360 | 1.0 | 2.0 | 0.00 | 0.00 | 0.00 | 82 | 1013.2 |
| 20260906100722 | 79 | 360 | 1.0 | 2.0 | 0.00 | 0.00 | 0.00 | 82 | 1013.1 |
| 20260906100643 | 79 | 360 | 0.0 | 1.0 | 0.00 | 0.00 | 0.00 | 82 | 1013.1 |
| 20260906100521 | 79 | 360 | 0.0 | 1.0 | 0.00 | 0.00 | 0.00 | 82 | 1013.2 |
| 20260906100421 | 79 | 360 | 0.0 | 1.0 | 0.00 | 0.00 | 0.00 | 82 | 1013.2 |
| 20260906100326 | 79 | 360 | 0.0 | 1.0 | 0.00 | 0.00 | 0.00 | 82 | 1013.1 |
| 20260906100226 | 79 | 360 | 0.0 | 2.0 | 0.00 | 0.00 | 0.00 | 82 | 1013.1 |
| 20260906100127 | 79 | 360 | 0.0 | 2.0 | 0.00 | 0.00 | 0.00 | 82 | 1013.1 |
| 20260906100027 | 79 | 360 | 0.0 | 2.0 | 0.00 | 0.00 | 0.00 | 82 | 1013.1 |
| 20260906095947 | 79 | 360 | 0.0 | 2.0 | 0.00 | 0.00 | 0.00 | 82 | 1013.1 |
| 20260906095829 | 79 | 360 | 0.0 | 3.0 | 0.00 | 0.00 | 0.00 | 82 | 1013.1 |
| 20260906095729 | 79 | 360 | 0.0 | 3.0 | 0.00 | 0.00 | 0.00 | 82 | 1013.1 |
| 20260906095650 | 79 | 360 | 1.0 | 3.0 | 0.00 | 0.00 | 0.00 | 82 | 1013.1 |
| 20260906095533 | 79 | 360 | 1.0 | 3.0 | 0.00 | 0.00 | 0.00 | 82 | 1013.1 |
| 20260906095433 | 79 | 360 | 1.0 | 3.0 | 0.00 | 0.00 | 0.00 | 82 | 1013.1 |
| 20260906095334 | 79 | 360 | 1.0 | 3.0 | 0.00 | 0.00 | 0.00 | 82 | 1013.2 |
| 20260906095254 | 79 | 360 | 1.0 | 3.0 | 0.00 | 0.00 | 0.00 | 81 | 1013.2 |
| 20260906095134 | 79 | 360 | 1.0 | 3.0 | 0.00 | 0.00 | 0.00 | 81 | 1013.2 |
| 20260906095054 | 79 | 360 | 0.0 | 3.0 | 0.00 | 0.00 | 0.00 | 81 | 1013.2 |
| 20260906094954 | 79 | 360 | 0.0 | 3.0 | 0.00 | 0.00 | 0.00 | 81 | 1013.2 |
| 20260906094854 | 79 | 360 | 1.0 | 3.0 | 0.00 | 0.00 | 0.00 | 81 | 1013.1 |
| 20260906094718 | 79 | 360 | 1.0 | 3.0 | 0.00 | 0.00 | 0.00 | 81 | 1013.2 |
| 20260906094618 | 79 | 360 | 1.0 | 3.0 | 0.00 | 0.00 | 0.00 | 81 | 1013.2 |
| 20260906094520 | 79 | 360 | 1.0 | 3.0 | 0.00 | 0.00 | 0.00 | 81 | 1013.2 |
| 20260906094441 | 79 | 360 | 1.0 | 3.0 | 0.00 | 0.00 | 0.00 | 81 | 1013.2 |
| 20260906094321 | 79 | 360 | 1.0 | 3.0 | 0.00 | 0.00 | 0.00 | 81 | 1013.3 |
| 20260906094222 | 79 | 360 | 1.0 | 3.0 | 0.00 | 0.00 | 0.00 | 81 | 1013.2 |
| 20260906094122 | 79 | 360 | 1.0 | 3.0 | 0.00 | 0.00 | 0.00 | 81 | 1013.3 |
| 20260906094047 | 79 | 360 | 1.0 | 3.0 | 0.00 | 0.00 | 0.00 | 81 | 1013.3 |
| 20260906093926 | 79 | 360 | 1.0 | 3.0 | 0.00 | 0.00 | 0.00 | 81 | 1013.3 |
| 20260906093826 | 79 | 360 | 1.0 | 3.0 | 0.00 | 0.00 | 0.00 | 81 | 1013.2 |
| 20260906093727 | 79 | 360 | 2.0 | 3.0 | 0.00 | 0.00 | 0.00 | 81 | 1013.3 |
| 20260906093627 | 79 | 360 | 2.0 | 3.0 | 0.00 | 0.00 | 0.00 | 81 | 1013.3 |
| 20260906093528 | 79 | 360 | 2.0 | 3.0 | 0.00 | 0.00 | 0.00 | 81 | 1013.2 |
| 20260906093427 | 79 | 360 | 1.0 | 3.0 | 0.00 | 0.00 | 0.00 | 81 | 1013.3 |
| 20260906093332 | 79 | 360 | 1.0 | 3.0 | 0.00 | 0.00 | 0.00 | 81 | 1013.3 |
| 20260906093233 | 79 | 360 | 1.0 | 2.0 | 0.00 | 0.00 | 0.00 | 81 | 1013.3 |
| 20260906093134 | 79 | 360 | 1.0 | 2.0 | 0.00 | 0.00 | 0.00 | 81 | 1013.4 |
| 20260906093035 | 79 | 360 | 1.0 | 2.0 | 0.00 | 0.00 | 0.00 | 81 | 1013.3 |
| 20260906092934 | 79 | 360 | 2.0 | 2.0 | 0.00 | 0.00 | 0.00 | 81 | 1013.4 |
| 20260906092836 | 79 | 360 | 1.0 | 3.0 | 0.00 | 0.00 | 0.00 | 81 | 1013.3 |
| 20260906092719 | 79 | 360 | 1.0 | 3.0 | 0.00 | 0.00 | 0.00 | 81 | 1013.4 |
| 20260906092620 | 79 | 360 | 1.0 | 3.0 | 0.00 | 0.00 | 0.00 | 81 | 1013.3 |
| 20260906092521 | 80 | 360 | 1.0 | 3.0 | 0.00 | 0.00 | 0.00 | 81 | 1013.3 |
| 20260906092421 | 80 | 360 | 0.0 | 3.0 | 0.00 | 0.00 | 0.00 | 81 | 1013.4 |
| 20260906092342 | 79 | 360 | 1.0 | 3.0 | 0.00 | 0.00 | 0.00 | 81 | 1013.3 |
| 20260906092216 | 80 | 360 | 1.0 | 3.0 | 0.00 | 0.00 | 0.00 | 81 | 1013.4 |
| 20260906092121 | 79 | 360 | 2.0 | 3.0 | 0.00 | 0.00 | 0.00 | 81 | 1013.3 |
| 20260906092021 | 80 | 360 | 2.0 | 3.0 | 0.00 | 0.00 | 0.00 | 81 | 1013.3 |
| 20260906091942 | 80 | 360 | 2.0 | 3.0 | 0.00 | 0.00 | 0.00 | 81 | 1013.4 |
| 20260906091816 | 79 | 360 | 1.0 | 2.0 | 0.00 | 0.00 | 0.00 | 81 | 1013.3 |
| 20260906091717 | 80 | 360 | 0.0 | 3.0 | 0.00 | 0.00 | 0.00 | 81 | 1013.3 |
| 20260906091617 | 79 | 360 | 0.0 | 3.0 | 0.00 | 0.00 | 0.00 | 81 | 1013.3 |
| 20260906091517 | 80 | 360 | 1.0 | 3.0 | 0.00 | 0.00 | 0.00 | 81 | 1013.3 |
| 20260906091421 | 80 | 360 | 1.0 | 3.0 | 0.00 | 0.00 | 0.00 | 81 | 1013.3 |
| 20260906091322 | 80 | 360 | 1.0 | 3.0 | 0.00 | 0.00 | 0.00 | 81 | 1013.3 |
| 20260906091223 | 80 | 360 | 1.0 | 3.0 | 0.00 | 0.00 | 0.00 | 81 | 1013.2 |
| 20260906091124 | 80 | 360 | 1.0 | 4.0 | 0.00 | 0.00 | 0.00 | 81 | 1013.2 |
| 20260906091025 | 80 | 360 | 1.0 | 4.0 | 0.00 | 0.00 | 0.00 | 81 | 1013.2 |
| 20260906090926 | 80 | 360 | 1.0 | 4.0 | 0.00 | 0.00 | 0.00 | 81 | 1013.2 |
| 20260906090827 | 80 | 360 | 1.0 | 4.0 | 0.00 | 0.00 | 0.00 | 82 | 1013.2 |
| 20260906090730 | 80 | 360 | 2.0 | 4.0 | 0.00 | 0.00 | 0.00 | 82 | 1013.2 |
| 20260906090651 | 80 | 360 | 2.0 | 4.0 | 0.00 | 0.00 | 0.00 | 81 | 1013.2 |
| 20260906090531 | 80 | 360 | 2.0 | 4.0 | 0.00 | 0.00 | 0.00 | 80 | 1013.2 |
| 20260906090430 | 79 | 360 | 2.0 | 4.0 | 0.00 | 0.00 | 0.00 | 80 | 1013.1 |
| 20260906090332 | 80 | 360 | 1.0 | 4.0 | 0.00 | 0.00 | 0.00 | 80 | 1013.1 |
| 20260906090232 | 80 | 360 | 1.0 | 3.0 | 0.00 | 0.00 | 0.00 | 80 | 1013.2 |
| 20260906090132 | 80 | 360 | 1.0 | 3.0 | 0.00 | 0.00 | 0.00 | 80 | 1013.1 |
| 20260906090017 | 80 | 360 | 1.0 | 5.0 | 0.00 | 0.00 | 0.00 | 80 | 1013.1 |
| 20260906085919 | 80 | 360 | 1.0 | 5.0 | 0.00 | 0.00 | 0.00 | 80 | 1013.1 |
| 20260906085819 | 80 | 360 | 2.0 | 5.0 | 0.00 | 0.00 | 0.00 | 80 | 1013.2 |
| 20260906085718 | 80 | 360 | 2.0 | 5.0 | 0.00 | 0.00 | 0.00 | 80 | 1013.1 |
| 20260906085618 | 80 | 360 | 1.0 | 5.0 | 0.00 | 0.00 | 0.00 | 80 | 1013.1 |
| 20260906085519 | 80 | 360 | 1.0 | 5.0 | 0.00 | 0.00 | 0.00 | 80 | 1013.1 |
| 20260906085419 | 80 | 360 | 1.0 | 5.0 | 0.00 | 0.00 | 0.00 | 80 | 1013.0 |
| 20260906085325 | 80 | 360 | 1.0 | 5.0 | 0.00 | 0.00 | 0.00 | 80 | 1013.1 |
| 20260906085225 | 80 | 360 | 1.0 | 5.0 | 0.00 | 0.00 | 0.00 | 80 | 1013.1 |
| 20260906085125 | 80 | 360 | 1.0 | 5.0 | 0.00 | 0.00 | 0.00 | 80 | 1013.1 |
| 20260906085046 | 80 | 360 | 1.0 | 5.0 | 0.00 | 0.00 | 0.00 | 80 | 1013.1 |
| 20260906084945 | 80 | 360 | 1.0 | 5.0 | 0.00 | 0.00 | 0.00 | 80 | 1013.1 |
| 20260906084825 | 80 | 360 | 1.0 | 5.0 | 0.00 | 0.00 | 0.00 | 80 | 1013.1 |
| 20260906084724 | 80 | 360 | 2.0 | 5.0 | 0.00 | 0.00 | 0.00 | 80 | 1013.1 |
| 20260906084624 | 80 | 360 | 2.0 | 5.0 | 0.00 | 0.00 | 0.00 | 80 | 1013.2 |
| 20260906084528 | 80 | 360 | 2.0 | 5.0 | 0.00 | 0.00 | 0.00 | 80 | 1013.1 |
| 20260906084450 | 80 | 360 | 2.0 | 5.0 | 0.00 | 0.00 | 0.00 | 80 | 1013.1 |
| 20260906084329 | 80 | 360 | 1.0 | 4.0 | 0.00 | 0.00 | 0.00 | 80 | 1013.1 |
| 20260906084228 | 80 | 360 | 1.0 | 4.0 | 0.00 | 0.00 | 0.00 | 79 | 1013.1 |
| 20260906084128 | 80 | 360 | 2.0 | 4.0 | 0.00 | 0.00 | 0.00 | 79 | 1013.1 |
| 20260906084028 | 80 | 360 | 2.0 | 4.0 | 0.00 | 0.00 | 0.00 | 79 | 1013.1 |
| 20260906083929 | 80 | 360 | 2.0 | 4.0 | 0.00 | 0.00 | 0.00 | 79 | 1013.1 |
| 20260906083829 | 80 | 360 | 2.0 | 4.0 | 0.00 | 0.00 | 0.00 | 79 | 1013.2 |
| 20260906083734 | 80 | 360 | 3.0 | 4.0 | 0.00 | 0.00 | 0.00 | 79 | 1013.2 |
| 20260906083635 | 80 | 360 | 2.0 | 4.0 | 0.00 | 0.00 | 0.00 | 79 | 1013.2 |
| 20260906083535 | 80 | 360 | 2.0 | 4.0 | 0.00 | 0.00 | 0.00 | 79 | 1013.2 |
| 20260906083434 | 80 | 360 | 2.0 | 4.0 | 0.00 | 0.00 | 0.00 | 79 | 1013.2 |
| 20260906083335 | 80 | 360 | 2.0 | 4.0 | 0.00 | 0.00 | 0.00 | 79 | 1013.2 |
| 20260906083255 | 80 | 360 | 2.0 | 4.0 | 0.00 | 0.00 | 0.00 | 79 | 1013.2 |
| 20260906083135 | 80 | 360 | 2.0 | 4.0 | 0.00 | 0.00 | 0.00 | 79 | 1013.2 |
| 20260906083020 | 80 | 360 | 2.0 | 5.0 | 0.00 | 0.00 | 0.00 | 79 | 1013.2 |
| 20260906082921 | 80 | 360 | 2.0 | 5.0 | 0.00 | 0.00 | 0.00 | 79 | 1013.2 |
| 20260906082823 | 80 | 360 | 2.0 | 5.0 | 0.00 | 0.00 | 0.00 | 79 | 1013.2 |
| 20260906082722 | 80 | 360 | 2.0 | 5.0 | 0.00 | 0.00 | 0.00 | 79 | 1013.2 |
| 20260906082643 | 80 | 360 | 2.0 | 5.0 | 0.00 | 0.00 | 0.00 | 79 | 1013.2 |
| 20260906082522 | 80 | 360 | 2.0 | 5.0 | 0.00 | 0.00 | 0.00 | 79 | 1013.3 |
| 20260906082442 | 80 | 360 | 3.0 | 5.0 | 0.00 | 0.00 | 0.00 | 79 | 1013.3 |
| 20260906082326 | 80 | 360 | 3.0 | 5.0 | 0.00 | 0.00 | 0.00 | 79 | 1013.3 |
| 20260906082225 | 80 | 360 | 3.0 | 5.0 | 0.00 | 0.00 | 0.00 | 79 | 1013.3 |
| 20260906082126 | 80 | 360 | 3.0 | 4.0 | 0.00 | 0.00 | 0.00 | 79 | 1013.3 |
| 20260906082027 | 80 | 360 | 2.0 | 4.0 | 0.00 | 0.00 | 0.00 | 79 | 1013.3 |
| 20260906081928 | 80 | 360 | 1.0 | 4.0 | 0.00 | 0.00 | 0.00 | 79 | 1013.3 |
| 20260906081827 | 80 | 360 | 1.0 | 4.0 | 0.00 | 0.00 | 0.00 | 79 | 1013.3 |
| 20260906081748 | 80 | 360 | 1.0 | 5.0 | 0.00 | 0.00 | 0.00 | 79 | 1013.3 |
| 20260906081627 | 80 | 360 | 1.0 | 5.0 | 0.00 | 0.00 | 0.00 | 78 | 1013.3 |
| 20260906081552 | 80 | 360 | 2.0 | 5.0 | 0.00 | 0.00 | 0.00 | 78 | 1013.3 |
| 20260906081431 | 80 | 360 | 1.0 | 5.0 | 0.00 | 0.00 | 0.00 | 78 | 1013.3 |
| 20260906081333 | 80 | 360 | 1.0 | 5.0 | 0.00 | 0.00 | 0.00 | 78 | 1013.3 |
| 20260906081233 | 80 | 360 | 2.0 | 6.0 | 0.00 | 0.00 | 0.00 | 78 | 1013.3 |
| 20260906081133 | 81 | 360 | 2.0 | 6.0 | 0.00 | 0.00 | 0.00 | 78 | 1013.3 |
| 20260906081033 | 80 | 360 | 3.0 | 6.0 | 0.00 | 0.00 | 0.00 | 78 | 1013.4 |
| 20260906080934 | 81 | 360 | 3.0 | 6.0 | 0.00 | 0.00 | 0.00 | 78 | 1013.4 |
| 20260906080818 | 81 | 360 | 3.0 | 6.0 | 0.00 | 0.00 | 0.00 | 78 | 1013.3 |
| 20260906080719 | 81 | 360 | 3.0 | 6.0 | 0.00 | 0.00 | 0.00 | 78 | 1013.4 |
| 20260906080619 | 81 | 360 | 3.0 | 6.0 | 0.00 | 0.00 | 0.00 | 78 | 1013.4 |
| 20260906080519 | 81 | 360 | 3.0 | 6.0 | 0.00 | 0.00 | 0.00 | 78 | 1013.4 |
| 20260906080419 | 81 | 360 | 3.0 | 6.0 | 0.00 | 0.00 | 0.00 | 78 | 1013.4 |
| 20260906080339 | 81 | 360 | 2.0 | 5.0 | 0.00 | 0.00 | 0.00 | 78 | 1013.4 |
| 20260906080219 | 81 | 360 | 2.0 | 5.0 | 0.00 | 0.00 | 0.00 | 78 | 1013.4 |
| 20260906080120 | 81 | 360 | 1.0 | 5.0 | 0.00 | 0.00 | 0.00 | 78 | 1013.5 |
| 20260906080024 | 81 | 360 | 1.0 | 5.0 | 0.00 | 0.00 | 0.00 | 78 | 1013.5 |
| 20260906075925 | 81 | 360 | 1.0 | 5.0 | 0.00 | 0.00 | 0.00 | 78 | 1013.5 |
| 20260906075846 | 81 | 360 | 1.0 | 6.0 | 0.00 | 0.00 | 0.00 | 78 | 1013.4 |
| 20260906075725 | 81 | 360 | 1.0 | 6.0 | 0.00 | 0.00 | 0.00 | 78 | 1013.6 |
| 20260906075626 | 81 | 360 | 2.0 | 6.0 | 0.00 | 0.00 | 0.00 | 78 | 1013.5 |
| 20260906075527 | 81 | 360 | 2.0 | 6.0 | 0.00 | 0.00 | 0.00 | 78 | 1013.5 |
| 20260906075447 | 81 | 360 | 2.0 | 6.0 | 0.00 | 0.00 | 0.00 | 77 | 1013.5 |
| 20260906075331 | 81 | 360 | 2.0 | 6.0 | 0.00 | 0.00 | 0.00 | 77 | 1013.7 |
| 20260906075231 | 81 | 360 | 2.0 | 6.0 | 0.00 | 0.00 | 0.00 | 77 | 1013.6 |
| 20260906075131 | 81 | 360 | 2.0 | 6.0 | 0.00 | 0.00 | 0.00 | 77 | 1013.7 |
| 20260906075033 | 81 | 188 | 2.0 | 6.0 | 0.00 | 0.00 | 0.00 | 77 | 1013.7 |
| 20260906074934 | 81 | 360 | 1.0 | 6.0 | 0.00 | 0.00 | 0.00 | 77 | 1013.7 |
| 20260906074834 | 81 | 360 | 1.0 | 5.0 | 0.00 | 0.00 | 0.00 | 77 | 1013.8 |
| 20260906074755 | 81 | 360 | 2.0 | 5.0 | 0.00 | 0.00 | 0.00 | 77 | 1013.8 |
| 20260906074618 | 81 | 360 | 2.0 | 5.0 | 0.00 | 0.00 | 0.00 | 77 | 1013.7 |
| 20260906074539 | 81 | 360 | 2.0 | 4.0 | 0.00 | 0.00 | 0.00 | 77 | 1013.7 |
| 20260906074420 | 81 | 360 | 1.0 | 4.0 | 0.00 | 0.00 | 0.00 | 77 | 1013.8 |
| 20260906074321 | 81 | 360 | 1.0 | 4.0 | 0.00 | 0.00 | 0.00 | 77 | 1013.8 |
| 20260906074242 | 81 | 360 | 1.0 | 5.0 | 0.00 | 0.00 | 0.00 | 77 | 1013.7 |
| 20260906074115 | 81 | 360 | 2.0 | 6.0 | 0.00 | 0.00 | 0.00 | 77 | 1013.7 |
| 20260906074016 | 81 | 360 | 2.0 | 6.0 | 0.00 | 0.00 | 0.00 | 77 | 1013.8 |
| 20260906073921 | 81 | 360 | 2.0 | 6.0 | 0.00 | 0.00 | 0.00 | 77 | 1013.8 |
| 20260906073821 | 81 | 360 | 2.0 | 6.0 | 0.00 | 0.00 | 0.00 | 77 | 1013.8 |
| 20260906073722 | 81 | 360 | 3.0 | 6.0 | 0.00 | 0.00 | 0.00 | 77 | 1013.8 |
| 20260906073622 | 81 | 360 | 3.0 | 9.0 | 0.00 | 0.00 | 0.00 | 77 | 1013.8 |
| 20260906073524 | 81 | 360 | 3.0 | 9.0 | 0.00 | 0.00 | 0.00 | 77 | 1013.8 |
| 20260906073424 | 81 | 360 | 3.0 | 9.0 | 0.00 | 0.00 | 0.00 | 77 | 1013.8 |
| 20260906073325 | 82 | 360 | 3.0 | 9.0 | 0.00 | 0.00 | 0.00 | 77 | 1013.8 |
| 20260906073229 | 82 | 360 | 2.0 | 9.0 | 0.00 | 0.00 | 0.00 | 77 | 1013.8 |
| 20260906073149 | 82 | 360 | 1.0 | 9.0 | 0.00 | 0.00 | 0.00 | 77 | 1013.8 |
| 20260906073029 | 82 | 360 | 1.0 | 9.0 | 0.00 | 0.00 | 0.00 | 77 | 1013.8 |
| 20260906072929 | 82 | 360 | 2.0 | 9.0 | 0.00 | 0.00 | 0.00 | 77 | 1013.9 |
| 20260906072832 | 82 | 360 | 3.0 | 9.0 | 0.00 | 0.00 | 0.00 | 76 | 1013.8 |
| 20260906072731 | 82 | 360 | 3.0 | 9.0 | 0.00 | 0.00 | 0.00 | 76 | 1013.8 |
| 20260906072651 | 82 | 360 | 3.0 | 9.0 | 0.00 | 0.00 | 0.00 | 76 | 1013.8 |
| 20260906072531 | 82 | 360 | 2.0 | 6.0 | 0.00 | 0.00 | 0.00 | 76 | 1013.9 |
| 20260906072436 | 82 | 360 | 2.0 | 5.0 | 0.00 | 0.00 | 0.00 | 76 | 1013.9 |
| 20260906072356 | 82 | 360 | 3.0 | 5.0 | 0.00 | 0.00 | 0.00 | 76 | 1013.9 |
| 20260906072217 | 82 | 360 | 3.0 | 5.0 | 0.00 | 0.00 | 0.00 | 76 | 1013.8 |
| 20260906072118 | 82 | 203 | 2.0 | 5.0 | 0.00 | 0.00 | 0.00 | 76 | 1013.8 |
| 20260906072019 | 82 | 360 | 3.0 | 5.0 | 0.00 | 0.00 | 0.00 | 76 | 1013.8 |
| 20260906071919 | 82 | 360 | 2.0 | 5.0 | 0.00 | 0.00 | 0.00 | 76 | 1013.9 |
| 20260906071840 | 82 | 360 | 1.0 | 5.0 | 0.00 | 0.00 | 0.00 | 76 | 1013.8 |
| 20260906071724 | 82 | 360 | 1.0 | 5.0 | 0.00 | 0.00 | 0.00 | 76 | 1013.9 |
| 20260906071626 | 82 | 360 | 1.0 | 5.0 | 0.00 | 0.00 | 0.00 | 76 | 1013.9 |
| 20260906071527 | 82 | 360 | 1.0 | 8.0 | 0.00 | 0.00 | 0.00 | 76 | 1013.8 |
| 20260906071427 | 82 | 360 | 2.0 | 8.0 | 0.00 | 0.00 | 0.00 | 76 | 1013.8 |
| 20260906071329 | 82 | 360 | 2.0 | 8.0 | 0.00 | 0.00 | 0.00 | 76 | 1013.9 |
| 20260906071229 | 82 | 360 | 3.0 | 10.0 | 0.00 | 0.00 | 0.00 | 76 | 1013.9 |
| 20260906071150 | 82 | 360 | 3.0 | 10.0 | 0.00 | 0.00 | 0.00 | 76 | 1013.8 |
| 20260906071034 | 82 | 360 | 3.0 | 10.0 | 0.00 | 0.00 | 0.00 | 76 | 1014.0 |
| 20260906070935 | 82 | 360 | 3.0 | 10.0 | 0.00 | 0.00 | 0.00 | 76 | 1013.9 |
| 20260906070816 | 82 | 360 | 3.0 | 10.0 | 0.00 | 0.00 | 0.00 | 76 | 1013.9 |
| 20260906070717 | 82 | 360 | 4.0 | 10.0 | 0.00 | 0.00 | 0.00 | 76 | 1013.9 |
| 20260906070619 | 82 | 360 | 5.0 | 10.0 | 0.00 | 0.00 | 0.00 | 76 | 1013.9 |
| 20260906070519 | 82 | 360 | 5.0 | 10.0 | 0.00 | 0.00 | 0.00 | 76 | 1014.0 |
| 20260906070419 | 82 | 190 | 5.0 | 10.0 | 0.00 | 0.00 | 0.00 | 76 | 1013.9 |
| 20260906070324 | 82 | 360 | 3.0 | 8.0 | 0.00 | 0.00 | 0.00 | 76 | 1014.0 |
| 20260906070224 | 82 | 360 | 2.0 | 8.0 | 0.00 | 0.00 | 0.00 | 76 | 1014.0 |
| 20260906070126 | 82 | 360 | 2.0 | 8.0 | 0.00 | 0.00 | 0.00 | 76 | 1013.9 |
| 20260906070046 | 82 | 360 | 2.0 | 8.0 | 0.00 | 0.00 | 0.00 | 76 | 1014.0 |
| 20260906065927 | 82 | 360 | 3.0 | 8.0 | 0.00 | 0.00 | 0.00 | 76 | 1014.1 |
| 20260906065828 | 82 | 360 | 3.0 | 8.0 | 0.00 | 0.00 | 0.00 | 76 | 1014.1 |
| 20260906065728 | 82 | 360 | 3.0 | 8.0 | 0.00 | 0.00 | 0.00 | 76 | 1014.1 |
| 20260906065631 | 82 | 360 | 3.0 | 8.0 | 0.00 | 0.00 | 0.00 | 76 | 1014.1 |
| 20260906065532 | 82 | 360 | 3.0 | 8.0 | 0.00 | 0.00 | 0.00 | 75 | 1014.1 |
| 20260906065431 | 82 | 360 | 3.0 | 6.0 | 0.00 | 0.00 | 0.00 | 75 | 1014.1 |
| 20260906065332 | 82 | 360 | 3.0 | 6.0 | 0.00 | 0.00 | 0.00 | 75 | 1014.1 |
| 20260906065233 | 82 | 360 | 3.0 | 9.0 | 0.00 | 0.00 | 0.00 | 75 | 1014.2 |
| 20260906065133 | 82 | 360 | 3.0 | 9.0 | 0.00 | 0.00 | 0.00 | 75 | 1014.1 |
| 20260906065018 | 82 | 360 | 3.0 | 9.0 | 0.00 | 0.00 | 0.00 | 75 | 1014.2 |
| 20260906064919 | 82 | 360 | 3.0 | 9.0 | 0.00 | 0.00 | 0.00 | 75 | 1014.2 |
| 20260906064841 | 82 | 360 | 2.0 | 9.0 | 0.00 | 0.00 | 0.00 | 75 | 1014.2 |
| 20260906064720 | 83 | 360 | 3.0 | 9.0 | 0.00 | 0.00 | 0.00 | 75 | 1014.2 |
| 20260906064641 | 83 | 360 | 3.0 | 9.0 | 0.00 | 0.00 | 0.00 | 75 | 1014.3 |
| 20260906064540 | 83 | 360 | 4.0 | 10.0 | 0.00 | 0.00 | 0.00 | 75 | 1014.3 |
| 20260906064420 | 83 | 360 | 4.0 | 10.0 | 0.00 | 0.00 | 0.00 | 75 | 1014.3 |
| 20260906064320 | 83 | 360 | 4.0 | 10.0 | 0.00 | 0.00 | 0.00 | 75 | 1014.3 |
| 20260906064225 | 83 | 360 | 4.0 | 10.0 | 0.00 | 0.00 | 0.00 | 75 | 1014.3 |
| 20260906064124 | 83 | 360 | 4.0 | 10.0 | 0.00 | 0.00 | 0.00 | 75 | 1014.2 |
| 20260906064025 | 83 | 360 | 5.0 | 10.0 | 0.00 | 0.00 | 0.00 | 75 | 1014.3 |
| 20260906063925 | 83 | 360 | 5.0 | 10.0 | 0.00 | 0.00 | 0.00 | 75 | 1014.2 |
| 20260906063825 | 83 | 360 | 4.0 | 10.0 | 0.00 | 0.00 | 0.00 | 75 | 1014.2 |
| 20260906063745 | 83 | 360 | 3.0 | 10.0 | 0.00 | 0.00 | 0.00 | 75 | 1014.2 |
| 20260906063646 | 83 | 360 | 3.0 | 8.0 | 0.00 | 0.00 | 0.00 | 75 | 1014.2 |
| 20260906063526 | 83 | 360 | 4.0 | 8.0 | 0.00 | 0.00 | 0.00 | 75 | 1014.2 |
| 20260906063429 | 83 | 360 | 4.0 | 8.0 | 0.00 | 0.00 | 0.00 | 75 | 1014.2 |
| 20260906063331 | 83 | 360 | 4.0 | 8.0 | 0.00 | 0.00 | 0.00 | 75 | 1014.3 |
| 20260906063231 | 83 | 360 | 4.0 | 8.0 | 0.00 | 0.00 | 0.00 | 74 | 1014.3 |
| 20260906063132 | 83 | 360 | 4.0 | 8.0 | 0.00 | 0.00 | 0.00 | 74 | 1014.2 |
| 20260906063034 | 83 | 360 | 3.0 | 8.0 | 0.00 | 0.00 | 0.00 | 74 | 1014.3 |
| 20260906062934 | 83 | 360 | 3.0 | 8.0 | 0.00 | 0.00 | 0.00 | 74 | 1014.3 |
| 20260906062818 | 83 | 360 | 4.0 | 8.0 | 0.00 | 0.00 | 0.00 | 74 | 1014.3 |
| 20260906062718 | 83 | 360 | 3.0 | 8.0 | 0.00 | 0.00 | 0.00 | 74 | 1014.3 |
| 20260906062618 | 83 | 360 | 3.0 | 8.0 | 0.00 | 0.00 | 0.00 | 74 | 1014.4 |
| 20260906062539 | 83 | 360 | 2.0 | 6.0 | 0.00 | 0.00 | 0.00 | 74 | 1014.4 |
| 20260906062417 | 83 | 360 | 2.0 | 8.0 | 0.00 | 0.00 | 0.00 | 74 | 1014.4 |
| 20260906062318 | 83 | 360 | 2.0 | 9.0 | 0.00 | 0.00 | 0.00 | 74 | 1014.4 |
| 20260906062218 | 83 | 360 | 2.0 | 9.0 | 0.00 | 0.00 | 0.00 | 74 | 1014.4 |
| 20260906062123 | 83 | 360 | 2.0 | 9.0 | 0.00 | 0.00 | 0.00 | 74 | 1014.4 |
| 20260906062024 | 83 | 360 | 3.0 | 9.0 | 0.00 | 0.00 | 0.00 | 74 | 1014.5 |
| 20260906061924 | 83 | 360 | 4.0 | 9.0 | 0.00 | 0.00 | 0.00 | 74 | 1014.5 |
| 20260906061825 | 83 | 360 | 4.0 | 9.0 | 0.00 | 0.00 | 0.00 | 74 | 1014.4 |
| 20260906061724 | 83 | 360 | 5.0 | 9.0 | 0.00 | 0.00 | 0.00 | 74 | 1014.3 |
| 20260906061625 | 83 | 360 | 5.0 | 9.0 | 0.00 | 0.00 | 0.00 | 74 | 1014.4 |
| 20260906061526 | 83 | 360 | 5.0 | 9.0 | 0.00 | 0.00 | 0.00 | 74 | 1014.5 |
| 20260906061429 | 83 | 360 | 4.0 | 9.0 | 0.00 | 0.00 | 0.00 | 74 | 1014.5 |
| 20260906061330 | 83 | 360 | 4.0 | 9.0 | 0.00 | 0.00 | 0.00 | 74 | 1014.5 |
| 20260906061231 | 83 | 360 | 4.0 | 9.0 | 0.00 | 0.00 | 0.00 | 74 | 1014.5 |
| 20260906061132 | 83 | 360 | 4.0 | 9.0 | 0.00 | 0.00 | 0.00 | 74 | 1014.6 |
| 20260906061032 | 83 | 360 | 4.0 | 9.0 | 0.00 | 0.00 | 0.00 | 74 | 1014.6 |
| 20260906060933 | 83 | 360 | 4.0 | 10.0 | 0.00 | 0.00 | 0.00 | 74 | 1014.6 |
| 20260906060819 | 83 | 360 | 3.0 | 10.0 | 0.00 | 0.00 | 0.00 | 74 | 1014.6 |
| 20260906060720 | 83 | 360 | 3.0 | 10.0 | 0.00 | 0.00 | 0.00 | 74 | 1014.6 |
| 20260906060620 | 83 | 360 | 3.0 | 10.0 | 0.00 | 0.00 | 0.00 | 74 | 1014.6 |
| 20260906060519 | 83 | 360 | 4.0 | 10.0 | 0.00 | 0.00 | 0.00 | 74 | 1014.5 |
| 20260906060420 | 83 | 360 | 4.0 | 10.0 | 0.00 | 0.00 | 0.00 | 73 | 1014.6 |
| 20260906060320 | 83 | 360 | 4.0 | 12.0 | 0.00 | 0.00 | 0.00 | 73 | 1014.5 |
| 20260906060222 | 83 | 360 | 5.0 | 12.0 | 0.00 | 0.00 | 0.00 | 73 | 1014.5 |
| 20260906060125 | 83 | 227 | 6.0 | 12.0 | 0.00 | 0.00 | 0.00 | 73 | 1014.6 |
| 20260906060026 | 83 | 360 | 6.0 | 12.0 | 0.00 | 0.00 | 0.00 | 73 | 1014.5 |
| 20260906055926 | 83 | 360 | 6.0 | 12.0 | 0.00 | 0.00 | 0.00 | 73 | 1014.5 |
| 20260906055848 | 83 | 360 | 5.0 | 12.0 | 0.00 | 0.00 | 0.00 | 73 | 1014.6 |
| 20260906055727 | 83 | 360 | 5.0 | 12.0 | 0.00 | 0.00 | 0.00 | 73 | 1014.5 |
| 20260906055628 | 83 | 360 | 5.0 | 14.0 | 0.00 | 0.00 | 0.00 | 73 | 1014.5 |
| 20260906055528 | 83 | 360 | 5.0 | 14.0 | 0.00 | 0.00 | 0.00 | 73 | 1014.4 |
| 20260906055433 | 83 | 360 | 5.0 | 14.0 | 0.00 | 0.00 | 0.00 | 73 | 1014.4 |
| 20260906055353 | 83 | 360 | 4.0 | 14.0 | 0.00 | 0.00 | 0.00 | 73 | 1014.5 |
| 20260906055230 | 84 | 360 | 4.0 | 14.0 | 0.00 | 0.00 | 0.00 | 73 | 1014.4 |
| 20260906055131 | 84 | 360 | 5.0 | 14.0 | 0.00 | 0.00 | 0.00 | 73 | 1014.4 |
| 20260906055032 | 84 | 360 | 6.0 | 14.0 | 0.00 | 0.00 | 0.00 | 73 | 1014.4 |
| 20260906054932 | 84 | 360 | 6.0 | 14.0 | 0.00 | 0.00 | 0.00 | 73 | 1014.4 |
| 20260906054834 | 84 | 360 | 6.0 | 13.0 | 0.00 | 0.00 | 0.00 | 73 | 1014.3 |
| 20260906054719 | 84 | 360 | 7.0 | 13.0 | 0.00 | 0.00 | 0.00 | 73 | 1014.3 |
| 20260906054640 | 84 | 360 | 7.0 | 13.0 | 0.00 | 0.00 | 0.00 | 73 | 1014.3 |
| 20260906054520 | 84 | 360 | 7.0 | 12.0 | 0.00 | 0.00 | 0.00 | 73 | 1014.2 |
| 20260906054419 | 84 | 360 | 6.0 | 12.0 | 0.00 | 0.00 | 0.00 | 73 | 1014.2 |
| 20260906054320 | 84 | 360 | 5.0 | 12.0 | 0.00 | 0.00 | 0.00 | 73 | 1014.1 |
| 20260906054222 | 84 | 360 | 6.0 | 12.0 | 0.00 | 0.00 | 0.00 | 73 | 1014.1 |
| 20260906054122 | 84 | 360 | 6.0 | 12.0 | 0.00 | 0.00 | 0.00 | 73 | 1014.2 |
| 20260906054026 | 84 | 360 | 5.0 | 12.0 | 0.00 | 0.00 | 0.00 | 73 | 1014.2 |
| 20260906053927 | 84 | 360 | 3.0 | 12.0 | 0.00 | 0.00 | 0.00 | 73 | 1014.2 |
| 20260906053826 | 84 | 360 | 3.0 | 11.0 | 0.00 | 0.00 | 0.00 | 73 | 1014.2 |
| 20260906053747 | 84 | 192 | 4.0 | 11.0 | 0.00 | 0.00 | 0.00 | 73 | 1014.2 |
| 20260906053627 | 84 | 360 | 4.0 | 11.0 | 0.00 | 0.00 | 0.00 | 73 | 1014.2 |
| 20260906053527 | 84 | 360 | 6.0 | 11.0 | 0.00 | 0.00 | 0.00 | 73 | 1014.2 |
| 20260906053427 | 84 | 360 | 5.0 | 11.0 | 0.00 | 0.00 | 0.00 | 73 | 1014.2 |
| 20260906053347 | 84 | 360 | 5.0 | 11.0 | 0.00 | 0.00 | 0.00 | 73 | 1014.2 |
| 20260906053231 | 84 | 360 | 4.0 | 10.0 | 0.00 | 0.00 | 0.00 | 72 | 1014.2 |
| 20260906053131 | 84 | 360 | 5.0 | 10.0 | 0.00 | 0.00 | 0.00 | 72 | 1014.2 |
| 20260906053032 | 84 | 360 | 5.0 | 10.0 | 0.00 | 0.00 | 0.00 | 72 | 1014.2 |
| 20260906052951 | 84 | 360 | 4.0 | 10.0 | 0.00 | 0.00 | 0.00 | 72 | 1014.3 |
| 20260906052832 | 84 | 360 | 3.0 | 10.0 | 0.00 | 0.00 | 0.00 | 72 | 1014.3 |
| 20260906052732 | 84 | 360 | 3.0 | 10.0 | 0.00 | 0.00 | 0.00 | 72 | 1014.3 |
| 20260906052617 | 84 | 360 | 4.0 | 10.0 | 0.00 | 0.00 | 0.00 | 72 | 1014.3 |
| 20260906052517 | 84 | 360 | 5.0 | 13.0 | 0.00 | 0.00 | 0.00 | 72 | 1014.2 |
| 20260906052419 | 84 | 360 | 5.0 | 13.0 | 0.00 | 0.00 | 0.00 | 72 | 1014.2 |
| 20260906052320 | 84 | 360 | 5.0 | 13.0 | 0.00 | 0.00 | 0.00 | 72 | 1014.2 |
| 20260906052240 | 84 | 360 | 4.0 | 13.0 | 0.00 | 0.00 | 0.00 | 72 | 1014.3 |
| 20260906052120 | 84 | 360 | 3.0 | 13.0 | 0.00 | 0.00 | 0.00 | 72 | 1014.3 |
| 20260906052020 | 84 | 360 | 5.0 | 13.0 | 0.00 | 0.00 | 0.00 | 72 | 1014.4 |
| 20260906051924 | 84 | 360 | 6.0 | 13.0 | 0.00 | 0.00 | 0.00 | 72 | 1014.3 |
| 20260906051824 | 84 | 360 | 7.0 | 13.0 | 0.00 | 0.00 | 0.00 | 72 | 1014.4 |
| 20260906051725 | 84 | 360 | 6.0 | 13.0 | 0.00 | 0.00 | 0.00 | 72 | 1014.4 |
| 20260906051625 | 84 | 360 | 4.0 | 11.0 | 0.00 | 0.00 | 0.00 | 72 | 1014.4 |
| 20260906051526 | 84 | 360 | 5.0 | 11.0 | 0.00 | 0.00 | 0.00 | 72 | 1014.4 |
| 20260906051425 | 84 | 360 | 5.0 | 11.0 | 0.00 | 0.00 | 0.00 | 72 | 1014.4 |
| 20260906051326 | 84 | 360 | 5.0 | 11.0 | 0.00 | 0.00 | 0.00 | 72 | 1014.4 |
| 20260906051226 | 84 | 360 | 4.0 | 11.0 | 0.00 | 0.00 | 0.00 | 72 | 1014.4 |
| 20260906051131 | 84 | 360 | 5.0 | 11.0 | 0.00 | 0.00 | 0.00 | 72 | 1014.3 |
| 20260906051031 | 84 | 360 | 5.0 | 11.0 | 0.00 | 0.00 | 0.00 | 72 | 1014.4 |
| 20260906050932 | 84 | 360 | 5.0 | 11.0 | 0.00 | 0.00 | 0.00 | 72 | 1014.3 |
| 20260906050833 | 84 | 360 | 6.0 | 11.0 | 0.00 | 0.00 | 0.00 | 72 | 1014.4 |
| 20260906050732 | 84 | 360 | 7.0 | 15.0 | 0.00 | 0.00 | 0.00 | 71 | 1014.4 |
| 20260906050633 | 84 | 360 | 6.0 | 15.0 | 0.00 | 0.00 | 0.00 | 71 | 1014.4 |
| 20260906050516 | 84 | 360 | 5.0 | 15.0 | 0.00 | 0.00 | 0.00 | 71 | 1014.4 |
| 20260906050437 | 84 | 360 | 4.0 | 15.0 | 0.00 | 0.00 | 0.00 | 71 | 1014.5 |
| 20260906050317 | 84 | 360 | 3.0 | 15.0 | 0.00 | 0.00 | 0.00 | 71 | 1014.5 |
| 20260906050238 | 84 | 360 | 4.0 | 15.0 | 0.00 | 0.00 | 0.00 | 71 | 1014.6 |
| 20260906050138 | 84 | 360 | 5.0 | 15.0 | 0.00 | 0.00 | 0.00 | 71 | 1014.6 |
| 20260906050039 | 84 | 360 | 6.0 | 15.0 | 0.00 | 0.00 | 0.00 | 71 | 1014.5 |
| 20260906045952 | 84 | 360 | 6.0 | 15.0 | 0.00 | 0.00 | 0.00 | 71 | 1014.5 |
| 20260906045832 | 84 | 360 | 6.0 | 15.0 | 0.00 | 0.00 | 0.00 | 71 | 1014.5 |
| 20260906045731 | 84 | 360 | 6.0 | 12.0 | 0.00 | 0.00 | 0.00 | 71 | 1014.6 |
| 20260906045616 | 84 | 360 | 6.0 | 12.0 | 0.00 | 0.00 | 0.00 | 71 | 1014.5 |
| 20260906045517 | 84 | 360 | 5.0 | 12.0 | 0.00 | 0.00 | 0.00 | 71 | 1014.5 |
| 20260906045418 | 85 | 360 | 5.0 | 12.0 | 0.00 | 0.00 | 0.00 | 71 | 1014.5 |
| 20260906045319 | 85 | 360 | 4.0 | 12.0 | 0.00 | 0.00 | 0.00 | 71 | 1014.4 |
| 20260906045219 | 85 | 360 | 5.0 | 15.0 | 0.00 | 0.00 | 0.00 | 71 | 1014.4 |
| 20260906045119 | 85 | 360 | 6.0 | 15.0 | 0.00 | 0.00 | 0.00 | 71 | 1014.4 |
| 20260906045044 | 85 | 360 | 6.0 | 15.0 | 0.00 | 0.00 | 0.00 | 71 | 1014.2 |
| 20260906044924 | 85 | 360 | 6.0 | 15.0 | 0.00 | 0.00 | 0.00 | 71 | 1014.3 |
| 20260906044844 | 85 | 360 | 4.0 | 15.0 | 0.00 | 0.00 | 0.00 | 71 | 1014.3 |
| 20260906044725 | 85 | 360 | 4.0 | 15.0 | 0.00 | 0.00 | 0.00 | 71 | 1014.3 |
| 20260906044625 | 85 | 360 | 5.0 | 15.0 | 0.00 | 0.00 | 0.00 | 71 | 1014.3 |
| 20260906044525 | 85 | 360 | 6.0 | 15.0 | 0.00 | 0.00 | 0.00 | 71 | 1014.4 |
| 20260906044426 | 85 | 360 | 8.0 | 15.0 | 0.00 | 0.00 | 0.00 | 71 | 1014.3 |
| 20260906044331 | 85 | 360 | 8.0 | 15.0 | 0.00 | 0.00 | 0.00 | 71 | 1014.4 |
| 20260906044231 | 85 | 360 | 8.0 | 13.0 | 0.00 | 0.00 | 0.00 | 71 | 1014.5 |
| 20260906044131 | 85 | 360 | 8.0 | 13.0 | 0.00 | 0.00 | 0.00 | 71 | 1014.3 |
| 20260906044032 | 85 | 360 | 8.0 | 13.0 | 0.00 | 0.00 | 0.00 | 70 | 1014.4 |
| 20260906043932 | 85 | 360 | 8.0 | 12.0 | 0.00 | 0.00 | 0.00 | 70 | 1014.5 |
| 20260906043833 | 85 | 360 | 7.0 | 12.0 | 0.00 | 0.00 | 0.00 | 70 | 1014.5 |
| 20260906043717 | 85 | 360 | 7.0 | 12.0 | 0.00 | 0.00 | 0.00 | 70 | 1014.5 |
| 20260906043618 | 85 | 360 | 6.0 | 12.0 | 0.00 | 0.00 | 0.00 | 70 | 1014.4 |
| 20260906043518 | 85 | 360 | 7.0 | 16.0 | 0.00 | 0.00 | 0.00 | 70 | 1014.5 |
| 20260906043419 | 85 | 360 | 6.0 | 16.0 | 0.00 | 0.00 | 0.00 | 70 | 1014.5 |
| 20260906043339 | 85 | 360 | 7.0 | 16.0 | 0.00 | 0.00 | 0.00 | 70 | 1014.5 |
| 20260906043219 | 85 | 360 | 7.0 | 16.0 | 0.00 | 0.00 | 0.00 | 70 | 1014.5 |
| 20260906043120 | 85 | 360 | 8.0 | 16.0 | 0.00 | 0.00 | 0.00 | 70 | 1014.6 |
| 20260906043025 | 85 | 360 | 8.0 | 16.0 | 0.00 | 0.00 | 0.00 | 70 | 1014.6 |
| 20260906042925 | 85 | 360 | 8.0 | 16.0 | 0.00 | 0.00 | 0.00 | 70 | 1014.6 |
| 20260906042826 | 85 | 360 | 9.0 | 16.0 | 0.00 | 0.00 | 0.00 | 70 | 1014.6 |
| 20260906042727 | 85 | 360 | 9.0 | 16.0 | 0.00 | 0.00 | 0.00 | 70 | 1014.5 |
| 20260906042628 | 85 | 360 | 8.0 | 16.0 | 0.00 | 0.00 | 0.00 | 70 | 1014.6 |
| 20260906042528 | 85 | 360 | 7.0 | 16.0 | 0.00 | 0.00 | 0.00 | 70 | 1014.5 |
| 20260906042430 | 85 | 360 | 7.0 | 16.0 | 0.00 | 0.00 | 0.00 | 70 | 1014.5 |
| 20260906042335 | 85 | 360 | 8.0 | 16.0 | 0.00 | 0.00 | 0.00 | 69 | 1014.5 |
| 20260906042235 | 85 | 360 | 7.0 | 16.0 | 0.00 | 0.00 | 0.00 | 69 | 1014.5 |
| 20260906042136 | 85 | 360 | 7.0 | 19.0 | 0.00 | 0.00 | 0.00 | 69 | 1014.5 |
| 20260906042057 | 85 | 360 | 7.0 | 19.0 | 0.00 | 0.00 | 0.00 | 69 | 1014.4 |
| 20260906041936 | 85 | 360 | 8.0 | 19.0 | 0.00 | 0.00 | 0.00 | 69 | 1014.4 |
| 20260906041836 | 85 | 360 | 8.0 | 19.0 | 0.00 | 0.00 | 0.00 | 69 | 1014.5 |
| 20260906041735 | 86 | 360 | 10.0 | 19.0 | 0.00 | 0.00 | 0.00 | 69 | 1014.5 |
| 20260906041620 | 86 | 360 | 11.0 | 19.0 | 0.00 | 0.00 | 0.00 | 69 | 1014.5 |
| 20260906041520 | 86 | 360 | 11.0 | 19.0 | 0.00 | 0.00 | 0.00 | 69 | 1014.5 |
| 20260906041422 | 86 | 360 | 11.0 | 19.0 | 0.00 | 0.00 | 0.00 | 69 | 1014.4 |
| 20260906041322 | 86 | 360 | 11.0 | 20.0 | 0.00 | 0.00 | 0.00 | 69 | 1014.4 |
| 20260906041222 | 86 | 360 | 10.0 | 20.0 | 0.00 | 0.00 | 0.00 | 69 | 1014.5 |
| 20260906041123 | 86 | 360 | 9.0 | 20.0 | 0.00 | 0.00 | 0.00 | 69 | 1014.4 |
| 20260906041023 | 86 | 360 | 9.0 | 20.0 | 0.00 | 0.00 | 0.00 | 69 | 1014.4 |
| 20260906040927 | 86 | 360 | 8.0 | 20.0 | 0.00 | 0.00 | 0.00 | 69 | 1014.4 |
| 20260906040827 | 86 | 360 | 10.0 | 20.0 | 0.00 | 0.00 | 0.00 | 69 | 1014.4 |
| 20260906040727 | 86 | 360 | 11.0 | 20.0 | 0.00 | 0.00 | 0.00 | 69 | 1014.4 |
| 20260906040647 | 86 | 360 | 10.0 | 20.0 | 0.00 | 0.00 | 0.00 | 69 | 1014.4 |
| 20260906040526 | 86 | 360 | 9.0 | 19.0 | 0.00 | 0.00 | 0.00 | 68 | 1014.4 |
| 20260906040427 | 86 | 360 | 8.0 | 17.0 | 0.00 | 0.00 | 0.00 | 68 | 1014.4 |
| 20260906040327 | 86 | 360 | 8.0 | 17.0 | 0.00 | 0.00 | 0.00 | 68 | 1014.3 |
| 20260906040227 | 86 | 360 | 8.0 | 17.0 | 0.00 | 0.00 | 0.00 | 68 | 1014.3 |
| 20260906040152 | 86 | 360 | 9.0 | 17.0 | 0.00 | 0.00 | 0.00 | 68 | 1014.3 |
| 20260906040030 | 86 | 360 | 9.0 | 17.0 | 0.00 | 0.00 | 0.00 | 68 | 1014.4 |
| 20260906035931 | 86 | 360 | 9.0 | 17.0 | 0.00 | 0.00 | 0.00 | 68 | 1014.3 |
| 20260906035832 | 86 | 360 | 9.0 | 18.0 | 0.00 | 0.00 | 0.00 | 68 | 1014.2 |
| 20260906035731 | 86 | 360 | 9.0 | 18.0 | 0.00 | 0.00 | 0.00 | 68 | 1014.3 |
| 20260906035632 | 86 | 360 | 10.0 | 18.0 | 0.00 | 0.00 | 0.00 | 68 | 1014.4 |
| 20260906035533 | 86 | 360 | 10.0 | 18.0 | 0.00 | 0.00 | 0.00 | 68 | 1014.3 |
| 20260906035452 | 86 | 360 | 10.0 | 18.0 | 0.00 | 0.00 | 0.00 | 68 | 1014.3 |
| 20260906035316 | 86 | 360 | 11.0 | 18.0 | 0.00 | 0.00 | 0.00 | 67 | 1014.2 |
| 20260906035237 | 86 | 360 | 10.0 | 18.0 | 0.00 | 0.00 | 0.00 | 67 | 1014.2 |
| 20260906035117 | 86 | 360 | 10.0 | 18.0 | 0.00 | 0.00 | 0.00 | 67 | 1014.2 |
| 20260906035038 | 86 | 360 | 9.0 | 16.0 | 0.00 | 0.00 | 0.00 | 67 | 1014.3 |
| 20260906034917 | 86 | 360 | 10.0 | 16.0 | 0.00 | 0.00 | 0.00 | 67 | 1014.3 |
| 20260906034838 | 86 | 170 | 11.0 | 16.0 | 0.00 | 0.00 | 0.00 | 67 | 1014.3 |
| 20260906034716 | 86 | 360 | 11.0 | 16.0 | 0.00 | 0.00 | 0.00 | 67 | 1014.2 |
| 20260906034637 | 86 | 360 | 11.0 | 16.0 | 0.00 | 0.00 | 0.00 | 67 | 1014.3 |
| 20260906034521 | 86 | 360 | 12.0 | 16.0 | 0.00 | 0.00 | 0.00 | 67 | 1014.3 |
| 20260906034421 | 86 | 175 | 12.0 | 17.0 | 0.00 | 0.00 | 0.00 | 67 | 1014.3 |
| 20260906034321 | 86 | 360 | 10.0 | 17.0 | 0.00 | 0.00 | 0.00 | 67 | 1014.3 |
| 20260906034222 | 86 | 360 | 10.0 | 17.0 | 0.00 | 0.00 | 0.00 | 67 | 1014.4 |
| 20260906034123 | 86 | 360 | 10.0 | 17.0 | 0.00 | 0.00 | 0.00 | 67 | 1014.3 |
| 20260906034024 | 87 | 360 | 11.0 | 20.0 | 0.00 | 0.00 | 0.00 | 66 | 1014.4 |
| 20260906033925 | 87 | 360 | 11.0 | 20.0 | 0.00 | 0.00 | 0.00 | 66 | 1014.3 |
| 20260906033829 | 87 | 360 | 10.0 | 20.0 | 0.00 | 0.00 | 0.00 | 66 | 1014.3 |
| 20260906033729 | 87 | 360 | 10.0 | 20.0 | 0.00 | 0.00 | 0.00 | 66 | 1014.3 |
| 20260906033630 | 87 | 360 | 10.0 | 20.0 | 0.00 | 0.00 | 0.00 | 66 | 1014.3 |
| 20260906033531 | 87 | 360 | 10.0 | 20.0 | 0.00 | 0.00 | 0.00 | 66 | 1014.2 |
| 20260906033432 | 87 | 360 | 10.0 | 20.0 | 0.00 | 0.00 | 0.00 | 66 | 1014.2 |
| 20260906033332 | 87 | 360 | 9.0 | 20.0 | 0.00 | 0.00 | 0.00 | 66 | 1014.2 |
| 20260906033217 | 87 | 360 | 12.0 | 20.0 | 0.00 | 0.00 | 0.00 | 65 | 1014.2 |
| 20260906033118 | 87 | 360 | 13.0 | 20.0 | 0.00 | 0.00 | 0.00 | 65 | 1014.3 |
| 20260906033039 | 87 | 360 | 13.0 | 20.0 | 0.00 | 0.00 | 0.00 | 65 | 1014.2 |
| 20260906032918 | 87 | 360 | 12.0 | 19.0 | 0.00 | 0.00 | 0.00 | 65 | 1014.2 |
| 20260906032819 | 87 | 360 | 10.0 | 17.0 | 0.00 | 0.00 | 0.00 | 65 | 1014.1 |
| 20260906032720 | 87 | 360 | 9.0 | 17.0 | 0.00 | 0.00 | 0.00 | 65 | 1014.2 |
| 20260906032619 | 87 | 360 | 9.0 | 23.0 | 0.00 | 0.00 | 0.00 | 65 | 1014.2 |
| 20260906032524 | 87 | 360 | 10.0 | 23.0 | 0.00 | 0.00 | 0.00 | 65 | 1014.2 |
| 20260906032425 | 87 | 360 | 11.0 | 23.0 | 0.00 | 0.00 | 0.00 | 65 | 1014.2 |
| 20260906032327 | 87 | 360 | 13.0 | 23.0 | 0.00 | 0.00 | 0.00 | 64 | 1014.2 |
| 20260906032247 | 87 | 360 | 12.0 | 23.0 | 0.00 | 0.00 | 0.00 | 64 | 1014.2 |
| 20260906032127 | 87 | 360 | 12.0 | 23.0 | 0.00 | 0.00 | 0.00 | 64 | 1014.3 |
| 20260906032046 | 87 | 360 | 11.0 | 18.0 | 0.00 | 0.00 | 0.00 | 64 | 1014.2 |
| 20260906031926 | 87 | 360 | 11.0 | 18.0 | 0.00 | 0.00 | 0.00 | 64 | 1014.3 |
| 20260906031831 | 87 | 360 | 11.0 | 18.0 | 0.00 | 0.00 | 0.00 | 64 | 1014.2 |
| 20260906031751 | 87 | 360 | 11.0 | 18.0 | 0.00 | 0.00 | 0.00 | 64 | 1014.1 |
| 20260906031631 | 87 | 360 | 12.0 | 18.0 | 0.00 | 0.00 | 0.00 | 64 | 1014.2 |
| 20260906031530 | 87 | 360 | 12.0 | 18.0 | 0.00 | 0.00 | 0.00 | 64 | 1014.1 |
| 20260906031431 | 87 | 360 | 11.0 | 22.0 | 0.00 | 0.00 | 0.00 | 64 | 1014.0 |
| 20260906031331 | 87 | 360 | 10.0 | 22.0 | 0.00 | 0.00 | 0.00 | 64 | 1014.0 |
| 20260906031232 | 88 | 360 | 9.0 | 22.0 | 0.00 | 0.00 | 0.00 | 63 | 1014.0 |
| 20260906031116 | 88 | 360 | 10.0 | 22.0 | 0.00 | 0.00 | 0.00 | 63 | 1014.0 |
| 20260906031017 | 88 | 360 | 11.0 | 22.0 | 0.00 | 0.00 | 0.00 | 63 | 1013.9 |
| 20260906030917 | 88 | 360 | 12.0 | 22.0 | 0.00 | 0.00 | 0.00 | 63 | 1013.9 |
| 20260906030837 | 88 | 360 | 13.0 | 22.0 | 0.00 | 0.00 | 0.00 | 63 | 1013.8 |
| 20260906030717 | 88 | 360 | 12.0 | 22.0 | 0.00 | 0.00 | 0.00 | 63 | 1013.9 |
| 20260906030616 | 88 | 360 | 12.0 | 20.0 | 0.00 | 0.00 | 0.00 | 63 | 1013.8 |
| 20260906030517 | 88 | 360 | 13.0 | 20.0 | 0.00 | 0.00 | 0.00 | 62 | 1013.8 |
| 20260906030422 | 88 | 360 | 12.0 | 18.0 | 0.00 | 0.00 | 0.00 | 62 | 1013.7 |
| 20260906030323 | 88 | 360 | 12.0 | 19.0 | 0.00 | 0.00 | 0.00 | 62 | 1013.7 |
| 20260906030224 | 88 | 360 | 11.0 | 20.0 | 0.00 | 0.00 | 0.00 | 61 | 1013.7 |
| 20260906030123 | 88 | 360 | 10.0 | 20.0 | 0.00 | 0.00 | 0.00 | 61 | 1013.5 |
| 20260906030044 | 88 | 360 | 11.0 | 20.0 | 0.00 | 0.00 | 0.00 | 61 | 1013.6 |
| 20260906025924 | 89 | 360 | 11.0 | 20.0 | 0.00 | 0.00 | 0.00 | 60 | 1013.6 |
| 20260906025826 | 89 | 360 | 12.0 | 20.0 | 0.00 | 0.00 | 0.00 | 60 | 1013.6 |
| 20260906025729 | 89 | 360 | 13.0 | 20.0 | 0.00 | 0.00 | 0.00 | 60 | 1013.5 |
| 20260906025629 | 89 | 360 | 12.0 | 20.0 | 0.00 | 0.00 | 0.00 | 60 | 1013.5 |
| 20260906025550 | 89 | 360 | 13.0 | 20.0 | 0.00 | 0.00 | 0.00 | 60 | 1013.5 |
| 20260906025430 | 89 | 360 | 12.0 | 19.0 | 0.00 | 0.00 | 0.00 | 60 | 1013.4 |
| 20260906025329 | 89 | 360 | 11.0 | 19.0 | 0.00 | 0.00 | 0.00 | 59 | 1013.4 |
| 20260906025230 | 89 | 360 | 12.0 | 19.0 | 0.00 | 0.00 | 0.00 | 59 | 1013.4 |
| 20260906025131 | 89 | 360 | 12.0 | 19.0 | 0.00 | 0.00 | 0.00 | 59 | 1013.5 |
| 20260906025037 | 89 | 360 | 11.0 | 17.0 | 0.00 | 0.00 | 0.00 | 59 | 1013.4 |
| 20260906024936 | 89 | 360 | 11.0 | 17.0 | 0.00 | 0.00 | 0.00 | 59 | 1013.4 |
| 20260906024817 | 89 | 360 | 11.0 | 17.0 | 0.00 | 0.00 | 0.00 | 59 | 1013.4 |
| 20260906024717 | 89 | 360 | 10.0 | 17.0 | 0.00 | 0.00 | 0.00 | 59 | 1013.4 |
| 20260906024617 | 89 | 360 | 10.0 | 17.0 | 0.00 | 0.00 | 0.00 | 59 | 1013.3 |
| 20260906024518 | 89 | 360 | 9.0 | 15.0 | 0.00 | 0.00 | 0.00 | 59 | 1013.3 |
| 20260906024439 | 89 | 360 | 9.0 | 15.0 | 0.00 | 0.00 | 0.00 | 59 | 1013.3 |
| 20260906024322 | 89 | 360 | 8.0 | 15.0 | 0.00 | 0.00 | 0.00 | 60 | 1013.4 |
| 20260906024222 | 89 | 142 | 7.0 | 13.0 | 0.00 | 0.00 | 0.00 | 60 | 1013.2 |
| 20260906024123 | 89 | 123 | 7.0 | 13.0 | 0.00 | 0.00 | 0.00 | 60 | 1013.2 |
| 20260906024023 | 89 | 360 | 6.0 | 13.0 | 0.00 | 0.00 | 0.00 | 60 | 1013.2 |
| 20260906023924 | 89 | 360 | 6.0 | 13.0 | 0.00 | 0.00 | 0.00 | 60 | 1013.2 |
| 20260906023825 | 89 | 360 | 7.0 | 13.0 | 0.00 | 0.00 | 0.00 | 60 | 1013.1 |
| 20260906023725 | 89 | 360 | 7.0 | 13.0 | 0.00 | 0.00 | 0.00 | 60 | 1013.1 |
| 20260906023646 | 89 | 360 | 6.0 | 13.0 | 0.00 | 0.00 | 0.00 | 59 | 1013.1 |
| 20260906023531 | 89 | 135 | 6.0 | 13.0 | 0.00 | 0.00 | 0.00 | 60 | 1013.0 |
| 20260906023432 | 89 | 360 | 6.0 | 13.0 | 0.00 | 0.00 | 0.00 | 59 | 1013.0 |
| 20260906023352 | 89 | 360 | 6.0 | 13.0 | 0.00 | 0.00 | 0.00 | 60 | 1013.0 |
| 20260906023232 | 89 | 360 | 5.0 | 10.0 | 0.00 | 0.00 | 0.00 | 59 | 1012.9 |
| 20260906023132 | 89 | 360 | 4.0 | 10.0 | 0.00 | 0.00 | 0.00 | 59 | 1012.9 |
| 20260906023032 | 89 | 136 | 5.0 | 11.0 | 0.00 | 0.00 | 0.00 | 59 | 1012.9 |
| 20260906022917 | 89 | 164 | 5.0 | 11.0 | 0.00 | 0.00 | 0.00 | 59 | 1012.9 |
| 20260906022818 | 89 | 360 | 6.0 | 13.0 | 0.00 | 0.00 | 0.00 | 59 | 1012.9 |
| 20260906022739 | 89 | 360 | 5.0 | 13.0 | 0.00 | 0.00 | 0.00 | 59 | 1012.9 |
| 20260906022619 | 89 | 164 | 5.0 | 13.0 | 0.00 | 0.00 | 0.00 | 59 | 1012.9 |
| 20260906022540 | 89 | 360 | 5.0 | 13.0 | 0.00 | 0.00 | 0.00 | 59 | 1012.9 |
| 20260906022418 | 89 | 360 | 5.0 | 13.0 | 0.00 | 0.00 | 0.00 | 59 | 1012.9 |
| 20260906022318 | 89 | 360 | 6.0 | 13.0 | 0.00 | 0.00 | 0.00 | 59 | 1012.8 |
| 20260906022220 | 89 | 360 | 6.0 | 13.0 | 0.00 | 0.00 | 0.00 | 59 | 1012.8 |
| 20260906022124 | 89 | 360 | 7.0 | 13.0 | 0.00 | 0.00 | 0.00 | 59 | 1012.7 |
| 20260906022025 | 89 | 360 | 6.0 | 13.0 | 0.00 | 0.00 | 0.00 | 59 | 1012.7 |
| 20260906021926 | 89 | 360 | 6.0 | 13.0 | 0.00 | 0.00 | 0.00 | 59 | 1012.7 |
| 20260906021826 | 89 | 360 | 6.0 | 13.0 | 0.00 | 0.00 | 0.00 | 59 | 1012.6 |
| 20260906021747 | 89 | 360 | 7.0 | 13.0 | 0.00 | 0.00 | 0.00 | 58 | 1012.6 |
| 20260906021647 | 89 | 117 | 7.0 | 13.0 | 0.00 | 0.00 | 0.00 | 58 | 1012.6 |
| 20260906021527 | 89 | 360 | 6.0 | 12.0 | 0.00 | 0.00 | 0.00 | 58 | 1012.5 |
| 20260906021447 | 89 | 360 | 6.0 | 13.0 | 0.00 | 0.00 | 0.00 | 58 | 1012.5 |
| 20260906021331 | 89 | 360 | 7.0 | 13.0 | 0.00 | 0.00 | 0.00 | 58 | 1012.5 |
| 20260906021231 | 89 | 360 | 8.0 | 13.0 | 0.00 | 0.00 | 0.00 | 58 | 1012.5 |
| 20260906021132 | 89 | 360 | 8.0 | 13.0 | 0.00 | 0.00 | 0.00 | 58 | 1012.5 |
| 20260906021033 | 89 | 360 | 7.0 | 13.0 | 0.00 | 0.00 | 0.00 | 58 | 1012.5 |
| 20260906020934 | 89 | 360 | 7.0 | 13.0 | 0.00 | 0.00 | 0.00 | 58 | 1012.5 |
| 20260906020835 | 89 | 360 | 8.0 | 13.0 | 0.00 | 0.00 | 0.00 | 58 | 1012.4 |
| 20260906020719 | 89 | 360 | 8.0 | 13.0 | 0.00 | 0.00 | 0.00 | 58 | 1012.4 |
| 20260906020621 | 89 | 360 | 7.0 | 12.0 | 0.00 | 0.00 | 0.00 | 58 | 1012.4 |
| 20260906020521 | 89 | 360 | 6.0 | 12.0 | 0.00 | 0.00 | 0.00 | 57 | 1012.5 |
| 20260906020421 | 89 | 360 | 5.0 | 12.0 | 0.00 | 0.00 | 0.00 | 57 | 1012.4 |
| 20260906020322 | 90 | 360 | 5.0 | 12.0 | 0.00 | 0.00 | 0.00 | 57 | 1012.4 |
| 20260906020223 | 90 | 121 | 5.0 | 12.0 | 0.00 | 0.00 | 0.00 | 57 | 1012.4 |
| 20260906020123 | 90 | 360 | 5.0 | 12.0 | 0.00 | 0.00 | 0.00 | 57 | 1012.4 |
| 20260906020048 | 90 | 360 | 5.0 | 12.0 | 0.00 | 0.00 | 0.00 | 57 | 1012.4 |
| 20260906015928 | 90 | 360 | 6.0 | 12.0 | 0.00 | 0.00 | 0.00 | 57 | 1012.3 |
| 20260906015829 | 90 | 360 | 7.0 | 12.0 | 0.00 | 0.00 | 0.00 | 57 | 1012.4 |
| 20260906015729 | 90 | 360 | 7.0 | 12.0 | 0.00 | 0.00 | 0.00 | 57 | 1012.4 |
| 20260906015629 | 90 | 360 | 6.0 | 12.0 | 0.00 | 0.00 | 0.00 | 57 | 1012.3 |
| 20260906015530 | 90 | 360 | 5.0 | 12.0 | 0.00 | 0.00 | 0.00 | 57 | 1012.3 |
| 20260906015431 | 90 | 360 | 4.0 | 12.0 | 0.00 | 0.00 | 0.00 | 57 | 1012.3 |
| 20260906015336 | 90 | 360 | 5.0 | 12.0 | 0.00 | 0.00 | 0.00 | 57 | 1012.3 |
| 20260906015256 | 90 | 360 | 6.0 | 12.0 | 0.00 | 0.00 | 0.00 | 57 | 1012.3 |
| 20260906015116 | 90 | 360 | 7.0 | 12.0 | 0.00 | 0.00 | 0.00 | 57 | 1012.3 |
| 20260906015019 | 90 | 360 | 7.0 | 12.0 | 0.00 | 0.00 | 0.00 | 57 | 1012.3 |
| 20260906014918 | 90 | 360 | 6.0 | 11.0 | 0.00 | 0.00 | 0.00 | 57 | 1012.3 |
| 20260906014819 | 90 | 360 | 5.0 | 11.0 | 0.00 | 0.00 | 0.00 | 57 | 1012.2 |
| 20260906014740 | 90 | 360 | 5.0 | 10.0 | 0.00 | 0.00 | 0.00 | 57 | 1012.3 |
| 20260906014624 | 90 | 360 | 5.0 | 11.0 | 0.00 | 0.00 | 0.00 | 57 | 1012.3 |
| 20260906014524 | 89 | 360 | 5.0 | 11.0 | 0.00 | 0.00 | 0.00 | 57 | 1012.3 |
| 20260906014425 | 90 | 360 | 6.0 | 11.0 | 0.00 | 0.00 | 0.00 | 57 | 1012.3 |
| 20260906014326 | 89 | 360 | 6.0 | 11.0 | 0.00 | 0.00 | 0.00 | 57 | 1012.3 |
| 20260906014227 | 89 | 360 | 6.0 | 11.0 | 0.00 | 0.00 | 0.00 | 57 | 1012.2 |
| 20260906014149 | 89 | 360 | 6.0 | 11.0 | 0.00 | 0.00 | 0.00 | 57 | 1012.2 |
| 20260906014027 | 90 | 360 | 6.0 | 11.0 | 0.00 | 0.00 | 0.00 | 57 | 1012.2 |
| 20260906013931 | 90 | 360 | 6.0 | 11.0 | 0.00 | 0.00 | 0.00 | 57 | 1012.2 |
| 20260906013833 | 90 | 360 | 7.0 | 11.0 | 0.00 | 0.00 | 0.00 | 57 | 1012.2 |
| 20260906013733 | 90 | 360 | 8.0 | 11.0 | 0.00 | 0.00 | 0.00 | 57 | 1012.2 |
| 20260906013633 | 90 | 360 | 7.0 | 11.0 | 0.00 | 0.00 | 0.00 | 57 | 1012.1 |
| 20260906013535 | 90 | 360 | 7.0 | 11.0 | 0.00 | 0.00 | 0.00 | 57 | 1012.1 |
| 20260906013434 | 90 | 360 | 7.0 | 11.0 | 0.00 | 0.00 | 0.00 | 58 | 1012.1 |
| 20260906013334 | 90 | 360 | 6.0 | 13.0 | 0.00 | 0.00 | 0.00 | 57 | 1012.1 |
| 20260906013218 | 90 | 360 | 6.0 | 13.0 | 0.00 | 0.00 | 0.00 | 57 | 1012.1 |
| 20260906013118 | 90 | 360 | 6.0 | 13.0 | 0.00 | 0.00 | 0.00 | 57 | 1012.0 |
| 20260906013038 | 90 | 360 | 6.0 | 13.0 | 0.00 | 0.00 | 0.00 | 57 | 1012.1 |
| 20260906012918 | 90 | 360 | 7.0 | 13.0 | 0.00 | 0.00 | 0.00 | 57 | 1012.1 |
| 20260906012820 | 90 | 360 | 8.0 | 13.0 | 0.00 | 0.00 | 0.00 | 56 | 1012.1 |
| 20260906012719 | 90 | 360 | 9.0 | 14.0 | 0.00 | 0.00 | 0.00 | 56 | 1012.1 |
| 20260906012620 | 90 | 360 | 9.0 | 14.0 | 0.00 | 0.00 | 0.00 | 56 | 1012.1 |
| 20260906012524 | 90 | 360 | 9.0 | 14.0 | 0.00 | 0.00 | 0.00 | 56 | 1012.1 |
| 20260906012425 | 90 | 360 | 9.0 | 14.0 | 0.00 | 0.00 | 0.00 | 56 | 1012.1 |
| 20260906012347 | 90 | 161 | 8.0 | 14.0 | 0.00 | 0.00 | 0.00 | 56 | 1012.1 |
| 20260906012245 | 90 | 360 | 8.0 | 14.0 | 0.00 | 0.00 | 0.00 | 56 | 1012.1 |
| 20260906012145 | 90 | 360 | 8.0 | 14.0 | 0.00 | 0.00 | 0.00 | 56 | 1012.1 |
| 20260906012024 | 90 | 360 | 7.0 | 14.0 | 0.00 | 0.00 | 0.00 | 56 | 1012.1 |
| 20260906011945 | 90 | 360 | 9.0 | 14.0 | 0.00 | 0.00 | 0.00 | 56 | 1012.1 |
| 20260906011845 | 90 | 360 | 9.0 | 14.0 | 0.00 | 0.00 | 0.00 | 56 | 1012.1 |
| 20260906011722 | 91 | 360 | 9.0 | 14.0 | 0.00 | 0.00 | 0.00 | 56 | 1012.1 |
| 20260906011623 | 91 | 360 | 9.0 | 16.0 | 0.00 | 0.00 | 0.00 | 56 | 1012.2 |
| 20260906011527 | 91 | 360 | 8.0 | 18.0 | 0.00 | 0.00 | 0.00 | 55 | 1012.1 |
| 20260906011428 | 91 | 360 | 7.0 | 18.0 | 0.00 | 0.00 | 0.00 | 55 | 1012.1 |
| 20260906011348 | 91 | 360 | 8.0 | 18.0 | 0.00 | 0.00 | 0.00 | 55 | 1012.1 |
| 20260906011227 | 91 | 360 | 9.0 | 18.0 | 0.00 | 0.00 | 0.00 | 55 | 1012.0 |
| 20260906011128 | 91 | 360 | 9.0 | 18.0 | 0.00 | 0.00 | 0.00 | 55 | 1012.1 |
| 20260906011047 | 91 | 360 | 10.0 | 18.0 | 0.00 | 0.00 | 0.00 | 54 | 1012.1 |
| 20260906010947 | 91 | 360 | 12.0 | 18.0 | 0.00 | 0.00 | 0.00 | 54 | 1012.1 |
| 20260906010847 | 91 | 360 | 10.0 | 18.0 | 0.00 | 0.00 | 0.00 | 54 | 1012.0 |
| 20260906010731 | 92 | 360 | 11.0 | 18.0 | 0.00 | 0.00 | 0.00 | 54 | 1012.1 |
| 20260906010632 | 92 | 360 | 12.0 | 18.0 | 0.00 | 0.00 | 0.00 | 53 | 1012.1 |
| 20260906010533 | 92 | 360 | 11.0 | 18.0 | 0.00 | 0.00 | 0.00 | 53 | 1012.1 |
| 20260906010433 | 92 | 360 | 11.0 | 18.0 | 0.00 | 0.00 | 0.00 | 52 | 1012.1 |
| 20260906010334 | 92 | 360 | 10.0 | 18.0 | 0.00 | 0.00 | 0.00 | 52 | 1012.1 |
| 20260906010232 | 92 | 360 | 8.0 | 18.0 | 0.00 | 0.00 | 0.00 | 52 | 1012.0 |
| 20260906010134 | 93 | 360 | 8.0 | 17.0 | 0.00 | 0.00 | 0.00 | 51 | 1012.0 |
| 20260906010039 | 93 | 360 | 9.0 | 17.0 | 0.00 | 0.00 | 0.00 | 51 | 1011.9 |
| 20260906005919 | 93 | 135 | 10.0 | 17.0 | 0.00 | 0.00 | 0.00 | 50 | 1012.0 |
| 20260906005821 | 93 | 360 | 10.0 | 17.0 | 0.00 | 0.00 | 0.00 | 50 | 1012.0 |
| 20260906005721 | 93 | 360 | 10.0 | 17.0 | 0.00 | 0.00 | 0.00 | 50 | 1011.9 |
| 20260906005622 | 93 | 360 | 10.0 | 16.0 | 0.00 | 0.00 | 0.00 | 49 | 1012.0 |
| 20260906005523 | 93 | 360 | 10.0 | 16.0 | 0.00 | 0.00 | 0.00 | 49 | 1012.0 |
| 20260906005423 | 93 | 360 | 9.0 | 16.0 | 0.00 | 0.00 | 0.00 | 49 | 1012.0 |
| 20260906005328 | 93 | 360 | 9.0 | 16.0 | 0.00 | 0.00 | 0.00 | 49 | 1012.0 |
| 20260906005230 | 93 | 360 | 9.0 | 16.0 | 0.00 | 0.00 | 0.00 | 49 | 1011.8 |
| 20260906005128 | 93 | 360 | 9.0 | 16.0 | 0.00 | 0.00 | 0.00 | 49 | 1011.9 |
| 20260906005029 | 93 | 360 | 10.0 | 16.0 | 0.00 | 0.00 | 0.00 | 49 | 1011.9 |
| 20260906004950 | 94 | 360 | 10.0 | 16.0 | 0.00 | 0.00 | 0.00 | 48 | 1011.8 |
| 20260906004829 | 94 | 360 | 10.0 | 16.0 | 0.00 | 0.00 | 0.00 | 49 | 1011.8 |
| 20260906004750 | 94 | 360 | 9.0 | 16.0 | 0.00 | 0.00 | 0.00 | 49 | 1011.8 |
| 20260906004628 | 94 | 360 | 8.0 | 16.0 | 0.00 | 0.00 | 0.00 | 49 | 1011.9 |
| 20260906004553 | 94 | 360 | 8.0 | 16.0 | 0.00 | 0.00 | 0.00 | 49 | 1011.9 |
| 20260906004432 | 94 | 360 | 8.0 | 16.0 | 0.00 | 0.00 | 0.00 | 48 | 1011.8 |
| 20260906004332 | 94 | 360 | 9.0 | 16.0 | 0.00 | 0.00 | 0.00 | 48 | 1011.8 |
| 20260906004233 | 94 | 360 | 9.0 | 16.0 | 0.00 | 0.00 | 0.00 | 48 | 1011.8 |
| 20260906004134 | 94 | 360 | 8.0 | 16.0 | 0.00 | 0.00 | 0.00 | 48 | 1011.8 |
| 20260906004034 | 94 | 360 | 7.0 | 17.0 | 0.00 | 0.00 | 0.00 | 48 | 1011.8 |
| 20260906003919 | 94 | 360 | 7.0 | 21.0 | 0.00 | 0.00 | 0.00 | 48 | 1011.8 |
| 20260906003819 | 94 | 360 | 8.0 | 21.0 | 0.00 | 0.00 | 0.00 | 48 | 1011.9 |
| 20260906003719 | 94 | 360 | 8.0 | 21.0 | 0.00 | 0.00 | 0.00 | 47 | 1011.8 |
| 20260906003620 | 94 | 360 | 8.0 | 21.0 | 0.00 | 0.00 | 0.00 | 47 | 1011.8 |
| 20260906003521 | 94 | 360 | 10.0 | 21.0 | 0.00 | 0.00 | 0.00 | 47 | 1011.8 |
| 20260906003422 | 94 | 360 | 10.0 | 21.0 | 0.00 | 0.00 | 0.00 | 47 | 1011.8 |
| 20260906003322 | 95 | 360 | 10.0 | 21.0 | 0.00 | 0.00 | 0.00 | 47 | 1011.8 |
| 20260906003227 | 95 | 360 | 9.0 | 21.0 | 0.00 | 0.00 | 0.00 | 47 | 1011.7 |
| 20260906003146 | 95 | 360 | 7.0 | 21.0 | 0.00 | 0.00 | 0.00 | 46 | 1011.8 |
| 20260906003026 | 95 | 360 | 4.0 | 9.0 | 0.00 | 0.00 | 0.00 | 45 | 1011.8 |
| 20260906002927 | 95 | 360 | 4.0 | 9.0 | 0.00 | 0.00 | 0.00 | 45 | 1011.8 |
| 20260906002829 | 95 | 360 | 4.0 | 9.0 | 0.00 | 0.00 | 0.00 | 45 | 1011.7 |
| 20260906002728 | 95 | 360 | 4.0 | 9.0 | 0.00 | 0.00 | 0.00 | 45 | 1011.7 |
| 20260906002628 | 95 | 360 | 5.0 | 9.0 | 0.00 | 0.00 | 0.00 | 45 | 1011.7 |
| 20260906002553 | 95 | 360 | 5.0 | 9.0 | 0.00 | 0.00 | 0.00 | 45 | 1011.7 |
| 20260906002433 | 95 | 360 | 5.0 | 9.0 | 0.00 | 0.00 | 0.00 | 44 | 1011.6 |
| 20260906002334 | 95 | 360 | 5.0 | 9.0 | 0.00 | 0.00 | 0.00 | 44 | 1011.7 |
| 20260906002234 | 95 | 360 | 4.0 | 8.0 | 0.00 | 0.00 | 0.00 | 44 | 1011.6 |
| 20260906002135 | 95 | 360 | 3.0 | 9.0 | 0.00 | 0.00 | 0.00 | 44 | 1011.7 |
| 20260906002034 | 95 | 360 | 3.0 | 9.0 | 0.00 | 0.00 | 0.00 | 44 | 1011.6 |
| 20260906001919 | 95 | 360 | 3.0 | 9.0 | 0.00 | 0.00 | 0.00 | 45 | 1011.7 |
| 20260906001819 | 95 | 148 | 4.0 | 9.0 | 0.00 | 0.00 | 0.00 | 46 | 1011.7 |
| 20260906001739 | 95 | 360 | 5.0 | 9.0 | 0.00 | 0.00 | 0.00 | 45 | 1011.7 |
| 20260906001619 | 95 | 360 | 5.0 | 9.0 | 0.00 | 0.00 | 0.00 | 44 | 1011.6 |
| 20260906001519 | 95 | 360 | 6.0 | 9.0 | 0.00 | 0.00 | 0.00 | 45 | 1011.7 |
| 20260906001419 | 95 | 360 | 6.0 | 9.0 | 0.00 | 0.00 | 0.00 | 45 | 1011.7 |
| 20260906001340 | 95 | 360 | 6.0 | 9.0 | 0.00 | 0.00 | 0.00 | 44 | 1011.8 |
| 20260906001220 | 95 | 360 | 5.0 | 9.0 | 0.00 | 0.00 | 0.00 | 45 | 1011.7 |
| 20260906001125 | 95 | 360 | 5.0 | 8.0 | 0.00 | 0.00 | 0.00 | 44 | 1011.7 |
| 20260906001025 | 95 | 360 | 5.0 | 8.0 | 0.00 | 0.00 | 0.00 | 45 | 1011.7 |
| 20260906000925 | 95 | 360 | 5.0 | 8.0 | 0.00 | 0.00 | 0.00 | 44 | 1011.7 |
| 20260906000826 | 95 | 360 | 4.0 | 9.0 | 0.00 | 0.00 | 0.00 | 45 | 1011.6 |
| 20260906000727 | 95 | 360 | 4.0 | 9.0 | 0.00 | 0.00 | 0.00 | 45 | 1011.7 |
| 20260906000628 | 95 | 360 | 4.0 | 9.0 | 0.00 | 0.00 | 0.00 | 45 | 1011.7 |
| 20260906000549 | 95 | 360 | 4.0 | 9.0 | 0.00 | 0.00 | 0.00 | 45 | 1011.7 |
| 20260906000434 | 95 | 360 | 4.0 | 9.0 | 0.00 | 0.00 | 0.00 | 45 | 1011.7 |
| 20260906000333 | 95 | 360 | 4.0 | 9.0 | 0.00 | 0.00 | 0.00 | 45 | 1011.7 |
| 20260906000234 | 95 | 360 | 4.0 | 9.0 | 0.00 | 0.00 | 0.00 | 45 | 1011.6 |
| 20260906000134 | 95 | 126 | 5.0 | 10.0 | 0.00 | 0.00 | 0.00 | 45 | 1011.6 |
| 20260906000034 | 95 | 360 | 6.0 | 10.0 | 0.00 | 0.00 | 0.00 | 45 | 1011.6 |
| 20260905235935 | 95 | 360 | 5.0 | 10.0 | 0.00 | 0.00 | 0.00 | 45 | 1011.6 |
| 20260905235820 | 95 | 360 | 5.0 | 10.0 | 0.00 | 0.00 | 0.00 | 45 | 1011.7 |
| 20260905235720 | 95 | 360 | 5.0 | 10.0 | 0.00 | 0.00 | 0.00 | 45 | 1011.6 |
| 20260905235621 | 95 | 360 | 5.0 | 10.0 | 0.00 | 0.00 | 0.00 | 45 | 1011.7 |
| 20260905235522 | 95 | 360 | 6.0 | 10.0 | 0.00 | 0.00 | 0.00 | 45 | 1011.7 |
| 20260905235422 | 95 | 360 | 5.0 | 10.0 | 0.00 | 0.00 | 0.00 | 45 | 1011.6 |
| 20260905235323 | 95 | 360 | 5.0 | 10.0 | 0.00 | 0.00 | 0.00 | 46 | 1011.6 |
| 20260905235244 | 95 | 360 | 4.0 | 10.0 | 0.00 | 0.00 | 0.00 | 46 | 1011.7 |
| 20260905235127 | 95 | 360 | 3.0 | 8.0 | 0.00 | 0.00 | 0.00 | 46 | 1011.7 |
| 20260905235028 | 95 | 360 | 4.0 | 8.0 | 0.00 | 0.00 | 0.00 | 46 | 1011.7 |
| 20260905234929 | 95 | 360 | 4.0 | 9.0 | 0.00 | 0.00 | 0.00 | 46 | 1011.6 |
| 20260905234849 | 95 | 360 | 4.0 | 10.0 | 0.00 | 0.00 | 0.00 | 45 | 1011.7 |
| 20260905234729 | 95 | 360 | 4.0 | 10.0 | 0.00 | 0.00 | 0.00 | 45 | 1011.7 |
| 20260905234631 | 95 | 360 | 4.0 | 10.0 | 0.00 | 0.00 | 0.00 | 45 | 1011.6 |
| 20260905234531 | 95 | 360 | 5.0 | 10.0 | 0.00 | 0.00 | 0.00 | 45 | 1011.6 |
| 20260905234416 | 95 | 360 | 5.0 | 10.0 | 0.00 | 0.00 | 0.00 | 45 | 1011.6 |
| 20260905234316 | 95 | 360 | 6.0 | 10.0 | 0.00 | 0.00 | 0.00 | 45 | 1011.6 |
| 20260905234217 | 95 | 360 | 6.0 | 10.0 | 0.00 | 0.00 | 0.00 | 45 | 1011.7 |
| 20260905234117 | 95 | 360 | 5.0 | 10.0 | 0.00 | 0.00 | 0.00 | 45 | 1011.6 |
| 20260905234018 | 95 | 360 | 5.0 | 10.0 | 0.00 | 0.00 | 0.00 | 45 | 1011.6 |
| 20260905233917 | 95 | 360 | 5.0 | 10.0 | 0.00 | 0.00 | 0.00 | 45 | 1011.6 |
| 20260905233822 | 95 | 360 | 6.0 | 10.0 | 0.00 | 0.00 | 0.00 | 45 | 1011.7 |
| 20260905233721 | 95 | 360 | 6.0 | 10.0 | 0.00 | 0.00 | 0.00 | 44 | 1011.7 |
| 20260905233622 | 95 | 360 | 6.0 | 11.0 | 0.00 | 0.00 | 0.00 | 44 | 1011.7 |
| 20260905233543 | 95 | 360 | 6.0 | 11.0 | 0.00 | 0.00 | 0.00 | 44 | 1011.7 |
| 20260905233442 | 95 | 360 | 7.0 | 11.0 | 0.00 | 0.00 | 0.00 | 44 | 1011.6 |
| 20260905233322 | 95 | 360 | 6.0 | 11.0 | 0.00 | 0.00 | 0.00 | 44 | 1011.7 |
| 20260905233242 | 95 | 360 | 6.0 | 11.0 | 0.00 | 0.00 | 0.00 | 44 | 1011.6 |
| 20260905233123 | 95 | 360 | 6.0 | 11.0 | 0.00 | 0.00 | 0.00 | 44 | 1011.6 |
| 20260905233023 | 96 | 360 | 6.0 | 11.0 | 0.00 | 0.00 | 0.00 | 43 | 1011.6 |
| 20260905232948 | 96 | 360 | 6.0 | 11.0 | 0.00 | 0.00 | 0.00 | 43 | 1011.5 |
| 20260905232845 | 96 | 360 | 7.0 | 11.0 | 0.00 | 0.00 | 0.00 | 43 | 1011.7 |
| 20260905232722 | 96 | 360 | 7.0 | 11.0 | 0.00 | 0.00 | 0.00 | 43 | 1011.6 |
| 20260905232623 | 96 | 360 | 7.0 | 11.0 | 0.00 | 0.00 | 0.00 | 42 | 1011.5 |
| 20260905232524 | 96 | 360 | 6.0 | 11.0 | 0.00 | 0.00 | 0.00 | 43 | 1011.6 |
| 20260905232424 | 96 | 360 | 5.0 | 11.0 | 0.00 | 0.00 | 0.00 | 43 | 1011.6 |
| 20260905232325 | 96 | 360 | 5.0 | 11.0 | 0.00 | 0.00 | 0.00 | 43 | 1011.6 |
| 20260905232225 | 96 | 360 | 5.0 | 11.0 | 0.00 | 0.00 | 0.00 | 43 | 1011.6 |
| 20260905232130 | 96 | 360 | 6.0 | 11.0 | 0.00 | 0.00 | 0.00 | 42 | 1011.6 |
| 20260905232030 | 96 | 73 | 6.0 | 11.0 | 0.00 | 0.00 | 0.00 | 42 | 1011.6 |
| 20260905231930 | 97 | 360 | 5.0 | 11.0 | 0.00 | 0.00 | 0.00 | 41 | 1011.6 |
| 20260905231831 | 97 | 86 | 6.0 | 11.0 | 0.00 | 0.00 | 0.00 | 41 | 1011.6 |
| 20260905231732 | 97 | 360 | 6.0 | 11.0 | 0.00 | 0.00 | 0.00 | 42 | 1011.6 |
| 20260905231652 | 97 | 360 | 6.0 | 11.0 | 0.00 | 0.00 | 0.00 | 42 | 1011.7 |
| 20260905231531 | 97 | 360 | 6.0 | 11.0 | 0.00 | 0.00 | 0.00 | 42 | 1011.7 |
| 20260905231456 | 97 | 360 | 4.0 | 9.0 | 0.00 | 0.00 | 0.00 | 42 | 1011.7 |
| 20260905231336 | 96 | 360 | 3.0 | 8.0 | 0.00 | 0.00 | 0.00 | 42 | 1011.7 |
| 20260905231235 | 96 | 360 | 3.0 | 6.0 | 0.00 | 0.00 | 0.00 | 42 | 1011.6 |
| 20260905231136 | 96 | 360 | 3.0 | 6.0 | 0.00 | 0.00 | 0.00 | 41 | 1011.6 |
| 20260905231017 | 96 | 360 | 4.0 | 6.0 | 0.00 | 0.00 | 0.00 | 41 | 1011.7 |
| 20260905230918 | 96 | 360 | 4.0 | 10.0 | 0.00 | 0.00 | 0.00 | 41 | 1011.7 |
| 20260905230818 | 96 | 360 | 5.0 | 10.0 | 0.00 | 0.00 | 0.00 | 41 | 1011.6 |
| 20260905230723 | 97 | 360 | 4.0 | 10.0 | 0.00 | 0.00 | 0.00 | 41 | 1011.6 |
| 20260905230626 | 97 | 99 | 4.0 | 10.0 | 0.00 | 0.00 | 0.00 | 41 | 1011.6 |
| 20260905230526 | 97 | 360 | 4.0 | 10.0 | 0.00 | 0.00 | 0.00 | 41 | 1011.6 |
| 20260905230426 | 97 | 360 | 5.0 | 10.0 | 0.00 | 0.00 | 0.00 | 41 | 1011.6 |
| 20260905230326 | 97 | 360 | 5.0 | 10.0 | 0.00 | 0.00 | 0.00 | 41 | 1011.6 |
| 20260905230227 | 97 | 360 | 5.0 | 10.0 | 0.00 | 0.00 | 0.00 | 41 | 1011.6 |
| 20260905230128 | 97 | 360 | 4.0 | 9.0 | 0.00 | 0.00 | 0.00 | 41 | 1011.6 |
| 20260905230031 | 97 | 360 | 4.0 | 6.0 | 0.00 | 0.00 | 0.00 | 41 | 1011.6 |
| 20260905225932 | 97 | 360 | 3.0 | 10.0 | 0.00 | 0.00 | 0.00 | 41 | 1011.6 |
| 20260905225854 | 97 | 360 | 3.0 | 10.0 | 0.00 | 0.00 | 0.00 | 41 | 1011.6 |
| 20260905225732 | 97 | 360 | 3.0 | 10.0 | 0.00 | 0.00 | 0.00 | 41 | 1011.6 |
| 20260905225633 | 97 | 360 | 3.0 | 10.0 | 0.00 | 0.00 | 0.00 | 40 | 1011.6 |
| 20260905225533 | 97 | 140 | 3.0 | 10.0 | 0.00 | 0.00 | 0.00 | 40 | 1011.5 |
| 20260905225417 | 97 | 360 | 4.0 | 10.0 | 0.00 | 0.00 | 0.00 | 40 | 1011.6 |
| 20260905225318 | 97 | 360 | 5.0 | 10.0 | 0.00 | 0.00 | 0.00 | 40 | 1011.6 |
| 20260905225219 | 97 | 360 | 5.0 | 10.0 | 0.00 | 0.00 | 0.00 | 40 | 1011.5 |
| 20260905225119 | 97 | 360 | 5.0 | 10.0 | 0.00 | 0.00 | 0.00 | 40 | 1011.6 |
| 20260905225019 | 97 | 360 | 4.0 | 8.0 | 0.00 | 0.00 | 0.00 | 40 | 1011.6 |
| 20260905224919 | 97 | 360 | 3.0 | 6.0 | 0.00 | 0.00 | 0.00 | 40 | 1011.6 |
| 20260905224819 | 97 | 360 | 3.0 | 6.0 | 0.00 | 0.00 | 0.00 | 40 | 1011.6 |
| 20260905224725 | 97 | 360 | 2.0 | 6.0 | 0.00 | 0.00 | 0.00 | 40 | 1011.6 |
| 20260905224624 | 97 | 360 | 1.0 | 5.0 | 0.00 | 0.00 | 0.00 | 40 | 1011.6 |
| 20260905224524 | 97 | 360 | 1.0 | 4.0 | 0.00 | 0.00 | 0.00 | 40 | 1011.5 |
| 20260905224425 | 96 | 360 | 2.0 | 4.0 | 0.00 | 0.00 | 0.00 | 40 | 1011.6 |
| 20260905224324 | 96 | 87 | 2.0 | 4.0 | 0.00 | 0.00 | 0.00 | 40 | 1011.6 |
| 20260905224225 | 96 | 88 | 3.0 | 5.0 | 0.00 | 0.00 | 0.00 | 40 | 1011.6 |
| 20260905224126 | 96 | 86 | 3.0 | 5.0 | 0.00 | 0.00 | 0.00 | 40 | 1011.6 |
| 20260905224031 | 96 | 87 | 3.0 | 6.0 | 0.00 | 0.00 | 0.00 | 40 | 1011.5 |
| 20260905223932 | 96 | 89 | 3.0 | 6.0 | 0.00 | 0.00 | 0.00 | 40 | 1011.5 |
| 20260905223832 | 96 | 360 | 2.0 | 6.0 | 0.00 | 0.00 | 0.00 | 40 | 1011.5 |
| 20260905223733 | 96 | 360 | 2.0 | 6.0 | 0.00 | 0.00 | 0.00 | 40 | 1011.5 |
| 20260905223632 | 96 | 112 | 3.0 | 6.0 | 0.00 | 0.00 | 0.00 | 40 | 1011.6 |
| 20260905223533 | 96 | 360 | 3.0 | 8.0 | 0.00 | 0.00 | 0.00 | 39 | 1011.4 |
| 20260905223417 | 97 | 113 | 4.0 | 8.0 | 0.00 | 0.00 | 0.00 | 40 | 1011.5 |
| 20260905223317 | 97 | 114 | 4.0 | 8.0 | 0.00 | 0.00 | 0.00 | 39 | 1011.5 |
| 20260905223218 | 97 | 360 | 4.0 | 8.0 | 0.00 | 0.00 | 0.00 | 40 | 1011.5 |
| 20260905223119 | 97 | 360 | 3.0 | 8.0 | 0.00 | 0.00 | 0.00 | 39 | 1011.5 |
| 20260905223020 | 98 | 360 | 2.0 | 8.0 | 0.00 | 0.00 | 0.00 | 39 | 1011.6 |
| 20260905222920 | 98 | 360 | 2.0 | 8.0 | 0.00 | 0.00 | 0.00 | 39 | 1011.6 |
| 20260905222822 | 98 | 360 | 2.0 | 8.0 | 0.00 | 0.00 | 0.00 | 39 | 1011.6 |
| 20260905222745 | 98 | 121 | 3.0 | 8.0 | 0.00 | 0.00 | 0.00 | 39 | 1011.7 |
| 20260905222625 | 98 | 360 | 4.0 | 8.0 | 0.00 | 0.00 | 0.00 | 40 | 1011.7 |
| 20260905222526 | 98 | 86 | 4.0 | 8.0 | 0.00 | 0.00 | 0.00 | 40 | 1011.6 |
| 20260905222425 | 98 | 360 | 3.0 | 6.0 | 0.00 | 0.00 | 0.00 | 40 | 1011.6 |
| 20260905222326 | 98 | 360 | 3.0 | 6.0 | 0.00 | 0.00 | 0.00 | 39 | 1011.5 |
| 20260905222227 | 98 | 360 | 2.0 | 8.0 | 0.00 | 0.00 | 0.00 | 39 | 1011.6 |
| 20260905222127 | 98 | 360 | 2.0 | 8.0 | 0.00 | 0.00 | 0.00 | 40 | 1011.6 |
| 20260905222031 | 98 | 360 | 2.0 | 8.0 | 0.00 | 0.00 | 0.00 | 39 | 1011.7 |
| 20260905221952 | 98 | 360 | 2.0 | 8.0 | 0.00 | 0.00 | 0.00 | 39 | 1011.7 |
| 20260905221830 | 98 | 360 | 3.0 | 8.0 | 0.00 | 0.00 | 0.00 | 39 | 1011.6 |
| 20260905221731 | 98 | 360 | 4.0 | 8.0 | 0.00 | 0.00 | 0.00 | 39 | 1011.7 |
| 20260905221632 | 98 | 360 | 4.0 | 8.0 | 0.00 | 0.00 | 0.00 | 39 | 1011.7 |
| 20260905221533 | 98 | 360 | 4.0 | 8.0 | 0.00 | 0.00 | 0.00 | 39 | 1011.7 |
| 20260905221433 | 98 | 360 | 3.0 | 8.0 | 0.00 | 0.00 | 0.00 | 39 | 1011.8 |
| 20260905221318 | 98 | 360 | 2.0 | 5.0 | 0.00 | 0.00 | 0.00 | 38 | 1011.7 |
| 20260905221219 | 98 | 360 | 2.0 | 5.0 | 0.00 | 0.00 | 0.00 | 38 | 1011.7 |
| 20260905221120 | 98 | 360 | 2.0 | 5.0 | 0.00 | 0.00 | 0.00 | 38 | 1011.8 |
| 20260905221021 | 98 | 360 | 2.0 | 5.0 | 0.00 | 0.00 | 0.00 | 39 | 1011.8 |
| 20260905220921 | 99 | 360 | 2.0 | 8.0 | 0.00 | 0.00 | 0.00 | 39 | 1011.8 |
| 20260905220821 | 99 | 360 | 2.0 | 8.0 | 0.00 | 0.00 | 0.00 | 39 | 1011.7 |
| 20260905220725 | 98 | 360 | 2.0 | 8.0 | 0.00 | 0.00 | 0.00 | 39 | 1011.7 |
| 20260905220626 | 98 | 360 | 3.0 | 8.0 | 0.00 | 0.00 | 0.00 | 39 | 1011.9 |
| 20260905220527 | 98 | 360 | 3.0 | 8.0 | 0.00 | 0.00 | 0.00 | 40 | 1011.8 |
| 20260905220446 | 98 | 360 | 3.0 | 8.0 | 0.00 | 0.00 | 0.00 | 40 | 1011.7 |
| 20260905220326 | 98 | 360 | 4.0 | 8.0 | 0.00 | 0.00 | 0.00 | 40 | 1011.8 |
| 20260905220226 | 98 | 360 | 4.0 | 8.0 | 0.00 | 0.00 | 0.00 | 39 | 1011.8 |
| 20260905220127 | 98 | 360 | 4.0 | 8.0 | 0.00 | 0.00 | 0.00 | 40 | 1011.8 |
| 20260905220032 | 98 | 360 | 2.0 | 8.0 | 0.00 | 0.00 | 0.00 | 39 | 1011.8 |
| 20260905215932 | 97 | 360 | 2.0 | 8.0 | 0.00 | 0.00 | 0.00 | 39 | 1011.8 |
| 20260905215835 | 97 | 360 | 3.0 | 9.0 | 0.00 | 0.00 | 0.00 | 39 | 1011.8 |
| 20260905215735 | 97 | 360 | 3.0 | 9.0 | 0.00 | 0.00 | 0.00 | 39 | 1011.8 |
| 20260905215636 | 98 | 360 | 3.0 | 9.0 | 0.00 | 0.00 | 0.00 | 39 | 1011.8 |
| 20260905215535 | 98 | 360 | 2.0 | 12.0 | 0.00 | 0.00 | 0.00 | 40 | 1011.8 |
| 20260905215435 | 97 | 360 | 3.0 | 12.0 | 0.00 | 0.00 | 0.00 | 40 | 1011.8 |
| 20260905215319 | 97 | 360 | 4.0 | 12.0 | 0.00 | 0.00 | 0.00 | 40 | 1011.8 |
| 20260905215220 | 97 | 360 | 5.0 | 12.0 | 0.00 | 0.00 | 0.00 | 39 | 1011.9 |
| 20260905215120 | 97 | 360 | 6.0 | 12.0 | 0.00 | 0.00 | 0.00 | 40 | 1011.8 |
| 20260905215021 | 97 | 360 | 6.0 | 12.0 | 0.00 | 0.00 | 0.00 | 40 | 1011.9 |
| 20260905214921 | 97 | 360 | 8.0 | 12.0 | 0.00 | 0.00 | 0.00 | 40 | 1011.9 |
| 20260905214821 | 97 | 360 | 9.0 | 12.0 | 0.00 | 0.00 | 0.00 | 39 | 1011.9 |
| 20260905214719 | 97 | 360 | 9.0 | 12.0 | 0.00 | 0.00 | 0.00 | 39 | 1011.9 |
| 20260905214624 | 98 | 360 | 8.0 | 12.0 | 0.00 | 0.00 | 0.00 | 39 | 1011.8 |
| 20260905214524 | 98 | 360 | 6.0 | 10.0 | 0.00 | 0.00 | 0.00 | 39 | 1011.9 |
| 20260905214425 | 99 | 360 | 5.0 | 8.0 | 0.00 | 0.00 | 0.00 | 38 | 1011.8 |
| 20260905214326 | 99 | 360 | 4.0 | 6.0 | 0.00 | 0.00 | 0.00 | 38 | 1011.8 |
| 20260905214226 | 99 | 360 | 3.0 | 6.0 | 0.00 | 0.00 | 0.00 | 38 | 1011.8 |
| 20260905214127 | 99 | 360 | 2.0 | 6.0 | 0.00 | 0.00 | 0.00 | 38 | 1011.9 |
| 20260905214028 | 99 | 360 | 1.0 | 6.0 | 0.00 | 0.00 | 0.00 | 38 | 1011.8 |
| 20260905213931 | 99 | 360 | 2.0 | 6.0 | 0.00 | 0.00 | 0.00 | 39 | 1011.8 |
| 20260905213831 | 98 | 360 | 2.0 | 6.0 | 0.00 | 0.00 | 0.00 | 39 | 1011.9 |
| 20260905213731 | 98 | 360 | 2.0 | 6.0 | 0.00 | 0.00 | 0.00 | 39 | 1011.8 |
| 20260905213652 | 98 | 360 | 3.0 | 5.0 | 0.00 | 0.00 | 0.00 | 39 | 1011.9 |
| 20260905213552 | 98 | 360 | 3.0 | 5.0 | 0.00 | 0.00 | 0.00 | 39 | 1011.9 |
| 20260905213451 | 98 | 360 | 2.0 | 8.0 | 0.00 | 0.00 | 0.00 | 39 | 1011.9 |
| 20260905213331 | 98 | 360 | 2.0 | 8.0 | 0.00 | 0.00 | 0.00 | 39 | 1011.9 |
| 20260905213232 | 98 | 360 | 2.0 | 8.0 | 0.00 | 0.00 | 0.00 | 39 | 1011.9 |
| 20260905213117 | 97 | 360 | 2.0 | 8.0 | 0.00 | 0.00 | 0.00 | 39 | 1011.9 |
| 20260905213017 | 97 | 360 | 3.0 | 11.0 | 0.00 | 0.00 | 0.00 | 39 | 1011.8 |
| 20260905212919 | 97 | 360 | 3.0 | 11.0 | 0.00 | 0.00 | 0.00 | 39 | 1011.9 |
| 20260905212819 | 97 | 360 | 4.0 | 11.0 | 0.00 | 0.00 | 0.00 | 39 | 1011.9 |
| 20260905212739 | 97 | 360 | 4.0 | 11.0 | 0.00 | 0.00 | 0.00 | 39 | 1011.9 |
| 20260905212617 | 97 | 360 | 3.0 | 11.0 | 0.00 | 0.00 | 0.00 | 40 | 1011.8 |